Wetterdaten: Donnerstag, 17.03.2016
Datum Zeit Temp. A. Feuchte A. Luftdruck Regen Wind Richtung Richtung Sonnenschein ET UV Solar Taupunkt Windchill Windben Empfang
17.03.2016 00:00 1,8 C 87 % 1027,2 hPa 0,0 l/m 13,2 km/h (3 Bft) O 88 0 min 0,000 mm 0,0 UV-I 0 W/m -0,1 C -3,7 C 19,3 km/h (3 Bft) 100,00 %
17.03.2016 00:02 1,8 C 87 % 1027,2 hPa 0,0 l/m 19,6 km/h (3 Bft) O 90 0 min 0,000 mm 0,0 UV-I 0 W/m -0,1 C -7,1 C 27,4 km/h (4 Bft) 95,56 %
17.03.2016 00:03 1,8 C 87 % 1027,2 hPa 0,0 l/m 21,0 km/h (4 Bft) O 88 0 min 0,000 mm 0,0 UV-I 0 W/m -0,1 C -7,7 C 25,7 km/h (4 Bft) 100,00 %
17.03.2016 00:04 1,8 C 87 % 1027,2 hPa 0,0 l/m 16,1 km/h (3 Bft) O 94 0 min 0,000 mm 0,0 UV-I 0 W/m -0,1 C -5,4 C 22,5 km/h (4 Bft) 95,65 %
17.03.2016 00:05 1,8 C 87 % 1027,1 hPa 0,0 l/m 18,1 km/h (3 Bft) O-NO 59 0 min 0,000 mm 0,0 UV-I 0 W/m -0,1 C -6,4 C 22,5 km/h (4 Bft) 100,00 %
17.03.2016 00:06 1,8 C 87 % 1027,2 hPa 0,0 l/m 21,7 km/h (4 Bft) O-SO 115 0 min 0,000 mm 0,0 UV-I 0 W/m -0,1 C -8,0 C 29,0 km/h (5 Bft) 95,65 %
17.03.2016 00:07 1,8 C 87 % 1027,1 hPa 0,0 l/m 14,3 km/h (3 Bft) O-NO 65 0 min 0,000 mm 0,0 UV-I 0 W/m -0,1 C -4,4 C 20,9 km/h (4 Bft) 100,00 %
17.03.2016 00:08 1,8 C 87 % 1027,1 hPa 0,0 l/m 16,5 km/h (3 Bft) NO 46 0 min 0,000 mm 0,0 UV-I 0 W/m -0,1 C -5,6 C 22,5 km/h (4 Bft) 95,65 %
17.03.2016 00:09 1,8 C 87 % 1027,2 hPa 0,0 l/m 18,0 km/h (3 Bft) O-NO 72 0 min 0,000 mm 0,0 UV-I 0 W/m -0,1 C -6,4 C 24,1 km/h (4 Bft) 95,83 %
17.03.2016 00:10 1,8 C 87 % 1027,2 hPa 0,0 l/m 18,7 km/h (3 Bft) O-NO 74 0 min 0,000 mm 0,0 UV-I 0 W/m -0,1 C -6,7 C 24,1 km/h (4 Bft) 100,00 %
17.03.2016 00:11 1,9 C 87 % 1027,1 hPa 0,0 l/m 17,9 km/h (3 Bft) O 86 0 min 0,000 mm 0,0 UV-I 0 W/m -0,0 C -6,2 C 20,9 km/h (4 Bft) 92,59 %
17.03.2016 00:12 1,9 C 87 % 1027,2 hPa 0,0 l/m 14,6 km/h (3 Bft) O-NO 74 0 min 0,000 mm 0,0 UV-I 0 W/m -0,0 C -4,4 C 22,5 km/h (4 Bft) 100,00 %
17.03.2016 00:13 1,9 C 87 % 1027,2 hPa 0,0 l/m 21,1 km/h (4 Bft) O 86 0 min 0,000 mm 0,0 UV-I 0 W/m -0,0 C -7,6 C 27,4 km/h (4 Bft) 96,15 %
17.03.2016 00:14 1,9 C 87 % 1027,2 hPa 0,0 l/m 19,7 km/h (3 Bft) O-NO 78 0 min 0,000 mm 0,0 UV-I 0 W/m -0,0 C -7,0 C 27,4 km/h (4 Bft) 100,00 %
17.03.2016 00:15 1,9 C 87 % 1027,2 hPa 0,0 l/m 16,5 km/h (3 Bft) O-NO 66 0 min 0,000 mm 0,0 UV-I 0 W/m -0,0 C -5,5 C 24,1 km/h (4 Bft) 96,67 %
17.03.2016 00:16 1,9 C 87 % 1027,1 hPa 0,0 l/m 13,8 km/h (3 Bft) O-NO 57 0 min 0,000 mm 0,0 UV-I 0 W/m -0,0 C -4,0 C 20,9 km/h (4 Bft) 100,00 %
17.03.2016 00:17 1,9 C 87 % 1027,1 hPa 0,0 l/m 15,5 km/h (3 Bft) O 84 0 min 0,000 mm 0,0 UV-I 0 W/m -0,0 C -5,0 C 20,9 km/h (4 Bft) 92,31 %
17.03.2016 00:18 1,9 C 87 % 1027,1 hPa 0,0 l/m 15,4 km/h (3 Bft) O-NO 61 0 min 0,000 mm 0,0 UV-I 0 W/m -0,0 C -4,9 C 19,3 km/h (3 Bft) 100,00 %
17.03.2016 00:19 1,9 C 87 % 1027,1 hPa 0,0 l/m 16,3 km/h (3 Bft) O-NO 65 0 min 0,000 mm 0,0 UV-I 0 W/m -0,0 C -5,4 C 27,4 km/h (4 Bft) 97,37 %
17.03.2016 00:20 1,8 C 87 % 1027,1 hPa 0,0 l/m 15,4 km/h (3 Bft) O 82 0 min 0,000 mm 0,0 UV-I 0 W/m -0,1 C -5,0 C 22,5 km/h (4 Bft) 95,83 %
17.03.2016 00:21 1,8 C 87 % 1027,1 hPa 0,0 l/m 19,1 km/h (3 Bft) O-NO 74 0 min 0,000 mm 0,0 UV-I 0 W/m -0,1 C -6,9 C 22,5 km/h (4 Bft) 100,00 %
17.03.2016 00:22 1,8 C 87 % 1027,1 hPa 0,0 l/m 12,3 km/h (3 Bft) O-NO 70 0 min 0,000 mm 0,0 UV-I 0 W/m -0,1 C -3,1 C 20,9 km/h (4 Bft) 100,00 %
17.03.2016 00:23 1,8 C 87 % 1027,1 hPa 0,0 l/m 14,1 km/h (3 Bft) O-NO 64 0 min 0,000 mm 0,0 UV-I 0 W/m -0,1 C -4,3 C 19,3 km/h (3 Bft) 100,00 %
17.03.2016 00:24 1,8 C 87 % 1027,1 hPa 0,0 l/m 12,6 km/h (3 Bft) O-NO 66 0 min 0,000 mm 0,0 UV-I 0 W/m -0,1 C -3,3 C 20,9 km/h (4 Bft) 100,00 %
17.03.2016 00:25 1,8 C 87 % 1027,1 hPa 0,0 l/m 15,9 km/h (3 Bft) O-NO 76 0 min 0,000 mm 0,0 UV-I 0 W/m -0,1 C -5,3 C 20,9 km/h (4 Bft) 100,00 %
17.03.2016 00:26 1,8 C 87 % 1027,1 hPa 0,0 l/m 14,1 km/h (3 Bft) O-SO 102 0 min 0,000 mm 0,0 UV-I 0 W/m -0,1 C -4,3 C 19,3 km/h (3 Bft) 96,67 %
17.03.2016 00:27 1,8 C 88 % 1027,1 hPa 0,0 l/m 19,2 km/h (3 Bft) O-NO 74 0 min 0,000 mm 0,0 UV-I 0 W/m 0,0 C -6,9 C 24,1 km/h (4 Bft) 100,00 %
17.03.2016 00:28 1,8 C 88 % 1027,1 hPa 0,0 l/m 16,3 km/h (3 Bft) NO 44 0 min 0,000 mm 0,0 UV-I 0 W/m 0,0 C -5,5 C 22,5 km/h (4 Bft) 100,00 %
17.03.2016 00:29 1,8 C 88 % 1027,1 hPa 0,0 l/m 15,9 km/h (3 Bft) O-NO 73 0 min 0,000 mm 0,0 UV-I 0 W/m 0,0 C -5,3 C 19,3 km/h (3 Bft) 95,65 %
17.03.2016 00:30 1,8 C 88 % 1027,1 hPa 0,0 l/m 15,7 km/h (3 Bft) O 84 0 min 0,000 mm 0,0 UV-I 0 W/m 0,0 C -5,2 C 20,9 km/h (4 Bft) 100,00 %
17.03.2016 00:31 1,8 C 88 % 1027,1 hPa 0,0 l/m 16,0 km/h (3 Bft) NO 55 0 min 0,000 mm 0,0 UV-I 0 W/m 0,0 C -5,4 C 24,1 km/h (4 Bft) 100,00 %
17.03.2016 00:32 1,8 C 88 % 1027,1 hPa 0,0 l/m 18,6 km/h (3 Bft) O 84 0 min 0,000 mm 0,0 UV-I 0 W/m 0,0 C -6,7 C 25,7 km/h (4 Bft) 100,00 %
17.03.2016 00:33 1,8 C 88 % 1027,1 hPa 0,0 l/m 18,5 km/h (3 Bft) O-NO 63 0 min 0,000 mm 0,0 UV-I 0 W/m 0,0 C -6,6 C 24,1 km/h (4 Bft) 100,00 %
17.03.2016 00:34 1,8 C 88 % 1027,1 hPa 0,0 l/m 18,6 km/h (3 Bft) O 88 0 min 0,000 mm 0,0 UV-I 0 W/m 0,0 C -6,7 C 24,1 km/h (4 Bft) 100,00 %
17.03.2016 00:35 1,8 C 88 % 1027,1 hPa 0,0 l/m 18,9 km/h (3 Bft) O 82 0 min 0,000 mm 0,0 UV-I 0 W/m 0,0 C -6,8 C 22,5 km/h (4 Bft) 91,67 %
17.03.2016 00:36 1,8 C 88 % 1027,0 hPa 0,0 l/m 19,0 km/h (3 Bft) O-NO 67 0 min 0,000 mm 0,0 UV-I 0 W/m 0,0 C -6,9 C 25,7 km/h (4 Bft) 100,00 %
17.03.2016 00:37 1,8 C 88 % 1027,0 hPa 0,0 l/m 16,8 km/h (3 Bft) O-NO 71 0 min 0,000 mm 0,0 UV-I 0 W/m 0,0 C -5,8 C 24,1 km/h (4 Bft) 100,00 %
17.03.2016 00:38 1,8 C 88 % 1027,0 hPa 0,0 l/m 19,1 km/h (3 Bft) O-NO 72 0 min 0,000 mm 0,0 UV-I 0 W/m 0,0 C -6,9 C 29,0 km/h (5 Bft) 100,00 %
17.03.2016 00:39 1,8 C 88 % 1027,0 hPa 0,0 l/m 21,8 km/h (4 Bft) O 90 0 min 0,000 mm 0,0 UV-I 0 W/m 0,0 C -8,1 C 27,4 km/h (4 Bft) 100,00 %
17.03.2016 00:40 1,8 C 88 % 1027,0 hPa 0,0 l/m 18,6 km/h (3 Bft) NO 49 0 min 0,000 mm 0,0 UV-I 0 W/m 0,0 C -6,7 C 25,7 km/h (4 Bft) 95,83 %
17.03.2016 00:41 1,8 C 88 % 1027,0 hPa 0,0 l/m 16,0 km/h (3 Bft) O 80 0 min 0,000 mm 0,0 UV-I 0 W/m 0,0 C -5,4 C 20,9 km/h (4 Bft) 100,00 %
17.03.2016 00:42 1,8 C 88 % 1027,0 hPa 0,0 l/m 15,0 km/h (3 Bft) O 86 0 min 0,000 mm 0,0 UV-I 0 W/m 0,0 C -4,8 C 19,3 km/h (3 Bft) 95,65 %
17.03.2016 00:43 1,8 C 88 % 1027,1 hPa 0,0 l/m 14,8 km/h (3 Bft) O-NO 68 0 min 0,000 mm 0,0 UV-I 0 W/m 0,0 C -4,7 C 20,9 km/h (4 Bft) 100,00 %
17.03.2016 00:44 1,8 C 88 % 1027,0 hPa 0,0 l/m 16,3 km/h (3 Bft) O-NO 70 0 min 0,000 mm 0,0 UV-I 0 W/m 0,0 C -5,5 C 19,3 km/h (3 Bft) 100,00 %
17.03.2016 00:45 1,8 C 88 % 1027,1 hPa 0,0 l/m 16,4 km/h (3 Bft) O 82 0 min 0,000 mm 0,0 UV-I 0 W/m 0,0 C -5,6 C 20,9 km/h (4 Bft) 100,00 %
17.03.2016 00:46 1,8 C 88 % 1027,0 hPa 0,0 l/m 17,5 km/h (3 Bft) O 82 0 min 0,000 mm 0,0 UV-I 0 W/m 0,0 C -6,1 C 22,5 km/h (4 Bft) 100,00 %
17.03.2016 00:47 1,8 C 88 % 1027,0 hPa 0,0 l/m 18,7 km/h (3 Bft) O 85 0 min 0,000 mm 0,0 UV-I 0 W/m 0,0 C -6,7 C 24,1 km/h (4 Bft) 100,00 %
17.03.2016 00:48 1,8 C 88 % 1027,0 hPa 0,0 l/m 17,7 km/h (3 Bft) O 88 0 min 0,000 mm 0,0 UV-I 0 W/m 0,0 C -6,2 C 20,9 km/h (4 Bft) 100,00 %
17.03.2016 00:49 1,8 C 88 % 1027,0 hPa 0,0 l/m 18,7 km/h (3 Bft) O-NO 78 0 min 0,000 mm 0,0 UV-I 0 W/m 0,0 C -6,7 C 22,5 km/h (4 Bft) 100,00 %
17.03.2016 00:50 1,8 C 88 % 1027,0 hPa 0,0 l/m 17,6 km/h (3 Bft) O 79 0 min 0,000 mm 0,0 UV-I 0 W/m 0,0 C -6,2 C 20,9 km/h (4 Bft) 100,00 %
17.03.2016 00:51 1,8 C 88 % 1027,0 hPa 0,0 l/m 12,8 km/h (3 Bft) NO 49 0 min 0,000 mm 0,0 UV-I 0 W/m 0,0 C -3,5 C 20,9 km/h (4 Bft) 100,00 %
17.03.2016 00:52 1,8 C 88 % 1027,0 hPa 0,0 l/m 13,8 km/h (3 Bft) O-NO 76 0 min 0,000 mm 0,0 UV-I 0 W/m 0,0 C -4,1 C 17,7 km/h (3 Bft) 100,00 %
17.03.2016 00:53 1,8 C 88 % 1027,0 hPa 0,0 l/m 16,3 km/h (3 Bft) O-NO 74 0 min 0,000 mm 0,0 UV-I 0 W/m 0,0 C -5,5 C 19,3 km/h (3 Bft) 100,00 %
17.03.2016 00:54 1,8 C 88 % 1027,0 hPa 0,0 l/m 14,7 km/h (3 Bft) O 84 0 min 0,000 mm 0,0 UV-I 0 W/m 0,0 C -4,6 C 19,3 km/h (3 Bft) 100,00 %
17.03.2016 00:55 1,8 C 88 % 1027,0 hPa 0,0 l/m 11,5 km/h (2 Bft) O-NO 78 0 min 0,000 mm 0,0 UV-I 0 W/m 0,0 C -2,6 C 17,7 km/h (3 Bft) 100,00 %
17.03.2016 00:56 1,8 C 88 % 1027,0 hPa 0,0 l/m 11,7 km/h (2 Bft) O-NO 71 0 min 0,000 mm 0,0 UV-I 0 W/m 0,0 C -2,7 C 16,1 km/h (3 Bft) 100,00 %
17.03.2016 00:57 1,7 C 88 % 1027,0 hPa 0,0 l/m 14,8 km/h (3 Bft) O 79 0 min 0,000 mm 0,0 UV-I 0 W/m -0,1 C -4,8 C 19,3 km/h (3 Bft) 100,00 %
17.03.2016 00:58 1,7 C 88 % 1027,0 hPa 0,0 l/m 14,9 km/h (3 Bft) O 86 0 min 0,000 mm 0,0 UV-I 0 W/m -0,1 C -4,9 C 19,3 km/h (3 Bft) 98,57 %
17.03.2016 00:59 1,7 C 88 % 1027,0 hPa 0,0 l/m 11,7 km/h (2 Bft) NO 53 0 min 0,000 mm 0,0 UV-I 0 W/m -0,1 C -2,8 C 16,1 km/h (3 Bft) 100,00 %
17.03.2016 01:00 1,7 C 88 % 1027,0 hPa 0,0 l/m 11,3 km/h (2 Bft) NO 44 0 min 0,025 mm 0,0 UV-I 0 W/m -0,1 C -2,6 C 14,5 km/h (3 Bft) 100,00 %
17.03.2016 01:02 1,7 C 88 % 1027,0 hPa 0,0 l/m 15,4 km/h (3 Bft) O-NO 64 0 min 0,000 mm 0,0 UV-I 0 W/m -0,1 C -5,1 C 20,9 km/h (4 Bft) 100,00 %
17.03.2016 01:03 1,7 C 88 % 1027,0 hPa 0,0 l/m 11,4 km/h (2 Bft) O-NO 77 0 min 0,000 mm 0,0 UV-I 0 W/m -0,1 C -2,6 C 16,1 km/h (3 Bft) 96,55 %
17.03.2016 01:04 1,7 C 88 % 1027,0 hPa 0,0 l/m 16,9 km/h (3 Bft) O-NO 71 0 min 0,000 mm 0,0 UV-I 0 W/m -0,1 C -6,0 C 20,9 km/h (4 Bft) 100,00 %
17.03.2016 01:05 1,7 C 88 % 1027,0 hPa 0,0 l/m 12,3 km/h (3 Bft) O-NO 68 0 min 0,000 mm 0,0 UV-I 0 W/m -0,1 C -3,2 C 16,1 km/h (3 Bft) 96,30 %
17.03.2016 01:06 1,7 C 88 % 1027,0 hPa 0,0 l/m 13,2 km/h (3 Bft) O 80 0 min 0,000 mm 0,0 UV-I 0 W/m -0,1 C -3,8 C 16,1 km/h (3 Bft) 100,00 %
17.03.2016 01:07 1,7 C 88 % 1027,0 hPa 0,0 l/m 16,1 km/h (3 Bft) O-NO 69 0 min 0,000 mm 0,0 UV-I 0 W/m -0,1 C -5,5 C 20,9 km/h (4 Bft) 100,00 %
17.03.2016 01:08 1,6 C 88 % 1026,9 hPa 0,0 l/m 16,4 km/h (3 Bft) O 84 0 min 0,000 mm 0,0 UV-I 0 W/m -0,2 C -5,8 C 19,3 km/h (3 Bft) 100,00 %
17.03.2016 01:09 1,6 C 88 % 1027,0 hPa 0,0 l/m 11,8 km/h (2 Bft) O-NO 69 0 min 0,000 mm 0,0 UV-I 0 W/m -0,2 C -3,0 C 16,1 km/h (3 Bft) 98,68 %
17.03.2016 01:10 1,6 C 89 % 1026,9 hPa 0,0 l/m 17,1 km/h (3 Bft) O 80 0 min 0,000 mm 0,0 UV-I 0 W/m -0,0 C -6,2 C 24,1 km/h (4 Bft) 100,00 %
17.03.2016 01:11 1,6 C 89 % 1026,9 hPa 0,0 l/m 13,3 km/h (3 Bft) O-NO 70 0 min 0,000 mm 0,0 UV-I 0 W/m -0,0 C -4,0 C 17,7 km/h (3 Bft) 100,00 %
17.03.2016 01:12 1,6 C 89 % 1027,0 hPa 0,0 l/m 15,3 km/h (3 Bft) O-NO 73 0 min 0,000 mm 0,0 UV-I 0 W/m -0,0 C -5,2 C 20,9 km/h (4 Bft) 100,00 %
17.03.2016 01:13 1,6 C 89 % 1027,0 hPa 0,0 l/m 14,9 km/h (3 Bft) O-NO 74 0 min 0,000 mm 0,0 UV-I 0 W/m -0,0 C -5,0 C 19,3 km/h (3 Bft) 100,00 %
17.03.2016 01:14 1,6 C 89 % 1026,9 hPa 0,0 l/m 14,6 km/h (3 Bft) O-NO 59 0 min 0,000 mm 0,0 UV-I 0 W/m -0,0 C -4,8 C 20,9 km/h (4 Bft) 96,15 %
17.03.2016 01:15 1,6 C 89 % 1026,9 hPa 0,0 l/m 14,3 km/h (3 Bft) O-SO 107 0 min 0,000 mm 0,0 UV-I 0 W/m -0,0 C -4,6 C 17,7 km/h (3 Bft) 100,00 %
17.03.2016 01:16 1,6 C 89 % 1026,9 hPa 0,0 l/m 15,4 km/h (3 Bft) O-NO 78 0 min 0,000 mm 0,0 UV-I 0 W/m -0,0 C -5,3 C 19,3 km/h (3 Bft) 100,00 %
17.03.2016 01:17 1,6 C 89 % 1026,9 hPa 0,0 l/m 17,5 km/h (3 Bft) O 91 0 min 0,000 mm 0,0 UV-I 0 W/m -0,0 C -6,4 C 20,9 km/h (4 Bft) 100,00 %
17.03.2016 01:18 1,6 C 89 % 1026,9 hPa 0,0 l/m 14,6 km/h (3 Bft) O 85 0 min 0,000 mm 0,0 UV-I 0 W/m -0,0 C -4,8 C 20,9 km/h (4 Bft) 100,00 %
17.03.2016 01:19 1,6 C 89 % 1026,9 hPa 0,0 l/m 17,3 km/h (3 Bft) O 82 0 min 0,000 mm 0,0 UV-I 0 W/m -0,0 C -6,3 C 20,9 km/h (4 Bft) 100,00 %
17.03.2016 01:20 1,6 C 89 % 1027,0 hPa 0,0 l/m 14,6 km/h (3 Bft) O-NO 61 0 min 0,000 mm 0,0 UV-I 0 W/m -0,0 C -4,8 C 19,3 km/h (3 Bft) 95,65 %
17.03.2016 01:21 1,6 C 89 % 1026,9 hPa 0,0 l/m 16,3 km/h (3 Bft) O-NO 65 0 min 0,000 mm 0,0 UV-I 0 W/m -0,0 C -5,8 C 19,3 km/h (3 Bft) 100,00 %
17.03.2016 01:22 1,6 C 89 % 1026,9 hPa 0,0 l/m 16,9 km/h (3 Bft) O-NO 77 0 min 0,000 mm 0,0 UV-I 0 W/m -0,0 C -6,1 C 22,5 km/h (4 Bft) 100,00 %
17.03.2016 01:23 1,6 C 90 % 1026,9 hPa 0,0 l/m 17,1 km/h (3 Bft) O-NO 66 0 min 0,000 mm 0,0 UV-I 0 W/m 0,1 C -6,2 C 22,5 km/h (4 Bft) 100,00 %
17.03.2016 01:24 1,6 C 90 % 1026,9 hPa 0,0 l/m 14,3 km/h (3 Bft) NO 51 0 min 0,000 mm 0,0 UV-I 0 W/m 0,1 C -4,6 C 20,9 km/h (4 Bft) 100,00 %
17.03.2016 01:25 1,6 C 90 % 1026,9 hPa 0,0 l/m 16,7 km/h (3 Bft) O-NO 57 0 min 0,000 mm 0,0 UV-I 0 W/m 0,1 C -6,0 C 20,9 km/h (4 Bft) 100,00 %
17.03.2016 01:26 1,6 C 90 % 1027,0 hPa 0,0 l/m 13,8 km/h (3 Bft) O-SO 102 0 min 0,000 mm 0,0 UV-I 0 W/m 0,1 C -4,3 C 17,7 km/h (3 Bft) 100,00 %
17.03.2016 01:27 1,6 C 90 % 1027,0 hPa 0,0 l/m 15,8 km/h (3 Bft) O-NO 67 0 min 0,000 mm 0,0 UV-I 0 W/m 0,1 C -5,5 C 19,3 km/h (3 Bft) 100,00 %
17.03.2016 01:28 1,6 C 90 % 1026,9 hPa 0,0 l/m 14,4 km/h (3 Bft) O-NO 67 0 min 0,000 mm 0,0 UV-I 0 W/m 0,1 C -4,7 C 19,3 km/h (3 Bft) 95,65 %
17.03.2016 01:29 1,6 C 90 % 1026,9 hPa 0,0 l/m 16,3 km/h (3 Bft) O-NO 75 0 min 0,000 mm 0,0 UV-I 0 W/m 0,1 C -5,8 C 22,5 km/h (4 Bft) 100,00 %
17.03.2016 01:30 1,6 C 90 % 1026,9 hPa 0,0 l/m 14,0 km/h (3 Bft) O-NO 74 0 min 0,000 mm 0,0 UV-I 0 W/m 0,1 C -4,5 C 22,5 km/h (4 Bft) 100,00 %
17.03.2016 01:31 1,6 C 90 % 1026,9 hPa 0,0 l/m 17,1 km/h (3 Bft) NO 40 0 min 0,000 mm 0,0 UV-I 0 W/m 0,1 C -6,2 C 25,7 km/h (4 Bft) 100,00 %
17.03.2016 01:32 1,6 C 90 % 1026,9 hPa 0,0 l/m 16,4 km/h (3 Bft) O 87 0 min 0,000 mm 0,0 UV-I 0 W/m 0,1 C -5,8 C 24,1 km/h (4 Bft) 100,00 %
17.03.2016 01:33 1,6 C 90 % 1026,9 hPa 0,0 l/m 14,8 km/h (3 Bft) O-NO 73 0 min 0,000 mm 0,0 UV-I 0 W/m 0,1 C -4,9 C 20,9 km/h (4 Bft) 100,00 %
17.03.2016 01:34 1,6 C 90 % 1026,8 hPa 0,0 l/m 16,2 km/h (3 Bft) O-NO 69 0 min 0,000 mm 0,0 UV-I 0 W/m 0,1 C -5,7 C 22,5 km/h (4 Bft) 100,00 %
17.03.2016 01:35 1,6 C 90 % 1026,7 hPa 0,0 l/m 13,9 km/h (3 Bft) O-NO 61 0 min 0,000 mm 0,0 UV-I 0 W/m 0,1 C -4,4 C 19,3 km/h (3 Bft) 100,00 %
17.03.2016 01:36 1,6 C 90 % 1026,7 hPa 0,0 l/m 17,7 km/h (3 Bft) O-NO 67 0 min 0,000 mm 0,0 UV-I 0 W/m 0,1 C -6,5 C 20,9 km/h (4 Bft) 95,83 %
17.03.2016 01:37 1,6 C 90 % 1026,7 hPa 0,0 l/m 16,0 km/h (3 Bft) N 360 0 min 0,000 mm 0,0 UV-I 0 W/m 0,1 C -5,6 C 20,9 km/h (4 Bft) 100,00 %
17.03.2016 01:38 1,6 C 90 % 1026,7 hPa 0,0 l/m 16,5 km/h (3 Bft) O 87 0 min 0,000 mm 0,0 UV-I 0 W/m 0,1 C -5,9 C 22,5 km/h (4 Bft) 100,00 %
17.03.2016 01:39 1,6 C 90 % 1026,7 hPa 0,0 l/m 16,4 km/h (3 Bft) O-NO 71 0 min 0,000 mm 0,0 UV-I 0 W/m 0,1 C -5,8 C 20,9 km/h (4 Bft) 100,00 %
17.03.2016 01:40 1,6 C 90 % 1026,7 hPa 0,0 l/m 19,3 km/h (3 Bft) O-NO 66 0 min 0,000 mm 0,0 UV-I 0 W/m 0,1 C -7,2 C 25,7 km/h (4 Bft) 92,59 %
17.03.2016 01:41 1,6 C 90 % 1026,7 hPa 0,0 l/m 14,7 km/h (3 Bft) O-NO 70 0 min 0,000 mm 0,0 UV-I 0 W/m 0,1 C -4,9 C 20,9 km/h (4 Bft) 100,00 %
17.03.2016 01:42 1,6 C 90 % 1026,7 hPa 0,0 l/m 17,8 km/h (3 Bft) O-NO 61 0 min 0,000 mm 0,0 UV-I 0 W/m 0,1 C -6,5 C 25,7 km/h (4 Bft) 96,30 %
17.03.2016 01:43 1,6 C 90 % 1026,7 hPa 0,0 l/m 15,5 km/h (3 Bft) NO 36 0 min 0,000 mm 0,0 UV-I 0 W/m 0,1 C -5,3 C 20,9 km/h (4 Bft) 100,00 %
17.03.2016 01:44 1,6 C 90 % 1026,7 hPa 0,0 l/m 15,3 km/h (3 Bft) O-NO 58 0 min 0,000 mm 0,0 UV-I 0 W/m 0,1 C -5,2 C 19,3 km/h (3 Bft) 100,00 %
17.03.2016 01:45 1,6 C 90 % 1026,7 hPa 0,0 l/m 12,9 km/h (3 Bft) O-NO 61 0 min 0,000 mm 0,0 UV-I 0 W/m 0,1 C -3,8 C 19,3 km/h (3 Bft) 100,00 %
17.03.2016 01:46 1,6 C 90 % 1026,7 hPa 0,0 l/m 16,4 km/h (3 Bft) NO 40 0 min 0,000 mm 0,0 UV-I 0 W/m 0,1 C -5,8 C 22,5 km/h (4 Bft) 100,00 %
17.03.2016 01:47 1,6 C 90 % 1026,7 hPa 0,0 l/m 14,9 km/h (3 Bft) O-NO 78 0 min 0,000 mm 0,0 UV-I 0 W/m 0,1 C -5,0 C 19,3 km/h (3 Bft) 98,87 %
17.03.2016 01:48 1,6 C 90 % 1026,6 hPa 0,0 l/m 15,1 km/h (3 Bft) O-NO 69 0 min 0,000 mm 0,0 UV-I 0 W/m 0,1 C -5,1 C 19,3 km/h (3 Bft) 97,87 %
17.03.2016 01:49 1,6 C 90 % 1026,6 hPa 0,0 l/m 16,1 km/h (3 Bft) NO 53 0 min 0,000 mm 0,0 UV-I 0 W/m 0,1 C -5,7 C 20,9 km/h (4 Bft) 100,00 %
17.03.2016 01:50 1,6 C 90 % 1026,7 hPa 0,0 l/m 14,8 km/h (3 Bft) O-NO 78 0 min 0,000 mm 0,0 UV-I 0 W/m 0,1 C -4,9 C 20,9 km/h (4 Bft) 96,55 %
17.03.2016 01:51 1,5 C 90 % 1026,6 hPa 0,0 l/m 12,9 km/h (3 Bft) O-NO 77 0 min 0,000 mm 0,0 UV-I 0 W/m 0,0 C -3,9 C 17,7 km/h (3 Bft) 96,15 %
17.03.2016 01:52 1,5 C 90 % 1026,7 hPa 0,0 l/m 12,8 km/h (3 Bft) O-NO 61 0 min 0,000 mm 0,0 UV-I 0 W/m 0,0 C -3,8 C 17,7 km/h (3 Bft) 100,00 %
17.03.2016 01:53 1,5 C 90 % 1026,7 hPa 0,0 l/m 14,5 km/h (3 Bft) O-NO 60 0 min 0,000 mm 0,0 UV-I 0 W/m 0,0 C -4,9 C 17,7 km/h (3 Bft) 97,37 %
17.03.2016 01:54 1,5 C 90 % 1026,7 hPa 0,0 l/m 14,8 km/h (3 Bft) O-NO 71 0 min 0,000 mm 0,0 UV-I 0 W/m 0,0 C -5,0 C 17,7 km/h (3 Bft) 100,00 %
17.03.2016 01:55 1,5 C 90 % 1026,7 hPa 0,0 l/m 15,3 km/h (3 Bft) NO 53 0 min 0,000 mm 0,0 UV-I 0 W/m 0,0 C -5,3 C 19,3 km/h (3 Bft) 100,00 %
17.03.2016 01:56 1,5 C 90 % 1026,7 hPa 0,0 l/m 14,4 km/h (3 Bft) O-NO 63 0 min 0,000 mm 0,0 UV-I 0 W/m 0,0 C -4,8 C 17,7 km/h (3 Bft) 96,88 %
17.03.2016 01:57 1,5 C 90 % 1026,7 hPa 0,0 l/m 13,7 km/h (3 Bft) O-NO 63 0 min 0,000 mm 0,0 UV-I 0 W/m 0,0 C -4,4 C 16,1 km/h (3 Bft) 91,67 %
17.03.2016 01:58 1,5 C 90 % 1026,6 hPa 0,0 l/m 14,6 km/h (3 Bft) O-NO 67 0 min 0,000 mm 0,0 UV-I 0 W/m 0,0 C -4,9 C 19,3 km/h (3 Bft) 100,00 %
17.03.2016 01:59 1,5 C 90 % 1026,6 hPa 0,0 l/m 13,1 km/h (3 Bft) O 84 0 min 0,000 mm 0,0 UV-I 0 W/m 0,0 C -4,0 C 19,3 km/h (3 Bft) 96,30 %
17.03.2016 02:00 1,4 C 90 % 1026,6 hPa 0,0 l/m 15,6 km/h (3 Bft) O-NO 78 0 min 0,026 mm 0,0 UV-I 0 W/m -0,1 C -5,6 C 22,5 km/h (4 Bft) 96,15 %
17.03.2016 02:01 1,4 C 90 % 1026,6 hPa 0,0 l/m 16,5 km/h (3 Bft) O-NO 68 0 min 0,000 mm 0,0 UV-I 0 W/m -0,1 C -6,1 C 22,5 km/h (4 Bft) 100,00 %
17.03.2016 02:02 1,5 C 90 % 1026,5 hPa 0,0 l/m 14,1 km/h (3 Bft) O-NO 67 0 min 0,000 mm 0,0 UV-I 0 W/m 0,0 C -4,6 C 17,7 km/h (3 Bft) 92,31 %
17.03.2016 02:03 1,5 C 90 % 1026,5 hPa 0,0 l/m 13,4 km/h (3 Bft) O-NO 68 0 min 0,000 mm 0,0 UV-I 0 W/m 0,0 C -4,2 C 19,3 km/h (3 Bft) 96,30 %
17.03.2016 02:04 1,4 C 90 % 1026,5 hPa 0,0 l/m 14,1 km/h (3 Bft) O-NO 75 0 min 0,000 mm 0,0 UV-I 0 W/m -0,1 C -4,8 C 19,3 km/h (3 Bft) 94,12 %
17.03.2016 02:05 1,4 C 90 % 1026,5 hPa 0,0 l/m 13,8 km/h (3 Bft) O-NO 65 0 min 0,000 mm 0,0 UV-I 0 W/m -0,1 C -4,6 C 17,7 km/h (3 Bft) 100,00 %
17.03.2016 02:06 1,4 C 90 % 1026,5 hPa 0,0 l/m 12,2 km/h (2 Bft) O-NO 66 0 min 0,000 mm 0,0 UV-I 0 W/m -0,1 C -3,5 C 20,9 km/h (4 Bft) 95,65 %
17.03.2016 02:07 1,4 C 90 % 1026,5 hPa 0,0 l/m 15,2 km/h (3 Bft) O-NO 67 0 min 0,000 mm 0,0 UV-I 0 W/m -0,1 C -5,4 C 19,3 km/h (3 Bft) 100,00 %
17.03.2016 02:08 1,4 C 91 % 1026,5 hPa 0,0 l/m 16,0 km/h (3 Bft) O-NO 72 0 min 0,000 mm 0,0 UV-I 0 W/m 0,1 C -5,8 C 19,3 km/h (3 Bft) 96,15 %
17.03.2016 02:09 1,4 C 91 % 1026,5 hPa 0,0 l/m 11,8 km/h (2 Bft) O 79 0 min 0,000 mm 0,0 UV-I 0 W/m 0,1 C -3,2 C 14,5 km/h (3 Bft) 91,67 %
17.03.2016 02:10 1,4 C 91 % 1026,5 hPa 0,0 l/m 13,3 km/h (3 Bft) NO 47 0 min 0,000 mm 0,0 UV-I 0 W/m 0,1 C -4,3 C 17,7 km/h (3 Bft) 100,00 %
17.03.2016 02:11 1,4 C 91 % 1026,5 hPa 0,0 l/m 10,4 km/h (2 Bft) O-NO 63 0 min 0,000 mm 0,0 UV-I 0 W/m 0,1 C -2,2 C 16,1 km/h (3 Bft) 96,55 %
17.03.2016 02:12 1,4 C 91 % 1026,5 hPa 0,0 l/m 12,4 km/h (3 Bft) NO 49 0 min 0,000 mm 0,0 UV-I 0 W/m 0,1 C -3,7 C 16,1 km/h (3 Bft) 100,00 %
17.03.2016 02:13 1,4 C 91 % 1026,5 hPa 0,0 l/m 10,9 km/h (2 Bft) NO 55 0 min 0,000 mm 0,0 UV-I 0 W/m 0,1 C -2,6 C 16,1 km/h (3 Bft) 96,30 %
17.03.2016 02:14 1,3 C 91 % 1026,5 hPa 0,0 l/m 12,8 km/h (3 Bft) O-NO 66 0 min 0,000 mm 0,0 UV-I 0 W/m -0,0 C -4,0 C 16,1 km/h (3 Bft) 100,00 %
17.03.2016 02:15 1,3 C 91 % 1026,5 hPa 0,0 l/m 13,7 km/h (3 Bft) NO 54 0 min 0,000 mm 0,0 UV-I 0 W/m -0,0 C -4,6 C 17,7 km/h (3 Bft) 96,55 %
17.03.2016 02:16 1,3 C 91 % 1026,5 hPa 0,0 l/m 11,8 km/h (2 Bft) NO 53 0 min 0,000 mm 0,0 UV-I 0 W/m -0,0 C -3,4 C 16,1 km/h (3 Bft) 93,33 %
17.03.2016 02:17 1,3 C 91 % 1026,5 hPa 0,0 l/m 11,9 km/h (2 Bft) O-NO 62 0 min 0,000 mm 0,0 UV-I 0 W/m -0,0 C -3,4 C 14,5 km/h (3 Bft) 92,31 %
17.03.2016 02:18 1,3 C 91 % 1026,5 hPa 0,0 l/m 12,7 km/h (3 Bft) NO 48 0 min 0,000 mm 0,0 UV-I 0 W/m -0,0 C -4,0 C 16,1 km/h (3 Bft) 100,00 %
17.03.2016 02:19 1,3 C 91 % 1026,5 hPa 0,0 l/m 15,1 km/h (3 Bft) O-NO 67 0 min 0,000 mm 0,0 UV-I 0 W/m -0,0 C -5,5 C 20,9 km/h (4 Bft) 95,65 %
17.03.2016 02:20 1,3 C 91 % 1026,5 hPa 0,0 l/m 12,3 km/h (3 Bft) NO 50 0 min 0,000 mm 0,0 UV-I 0 W/m -0,0 C -3,7 C 14,5 km/h (3 Bft) 95,83 %
17.03.2016 02:21 1,3 C 91 % 1026,5 hPa 0,0 l/m 14,8 km/h (3 Bft) O-NO 63 0 min 0,000 mm 0,0 UV-I 0 W/m -0,0 C -5,3 C 19,3 km/h (3 Bft) 100,00 %
17.03.2016 02:22 1,3 C 91 % 1026,4 hPa 0,0 l/m 15,4 km/h (3 Bft) O-NO 72 0 min 0,000 mm 0,0 UV-I 0 W/m -0,0 C -5,6 C 20,9 km/h (4 Bft) 95,83 %
17.03.2016 02:23 1,3 C 91 % 1026,4 hPa 0,0 l/m 13,0 km/h (3 Bft) O-NO 63 0 min 0,000 mm 0,0 UV-I 0 W/m -0,0 C -4,2 C 16,1 km/h (3 Bft) 100,00 %
17.03.2016 02:24 1,3 C 91 % 1026,4 hPa 0,0 l/m 12,4 km/h (3 Bft) O-NO 65 0 min 0,000 mm 0,0 UV-I 0 W/m -0,0 C -3,8 C 16,1 km/h (3 Bft) 95,83 %
17.03.2016 02:25 1,3 C 91 % 1026,5 hPa 0,0 l/m 15,0 km/h (3 Bft) O-NO 57 0 min 0,000 mm 0,0 UV-I 0 W/m -0,0 C -5,4 C 19,3 km/h (3 Bft) 100,00 %
17.03.2016 02:26 1,3 C 91 % 1026,4 hPa 0,0 l/m 14,6 km/h (3 Bft) O-NO 76 0 min 0,000 mm 0,0 UV-I 0 W/m -0,0 C -5,2 C 19,3 km/h (3 Bft) 91,67 %
17.03.2016 02:27 1,3 C 91 % 1026,4 hPa 0,0 l/m 16,3 km/h (3 Bft) NO 38 0 min 0,000 mm 0,0 UV-I 0 W/m -0,0 C -6,1 C 20,9 km/h (4 Bft) 100,00 %
17.03.2016 02:28 1,3 C 91 % 1026,4 hPa 0,0 l/m 16,3 km/h (3 Bft) O-NO 61 0 min 0,000 mm 0,0 UV-I 0 W/m -0,0 C -6,1 C 19,3 km/h (3 Bft) 100,00 %
17.03.2016 02:29 1,3 C 91 % 1026,4 hPa 0,0 l/m 14,8 km/h (3 Bft) O-NO 62 0 min 0,000 mm 0,0 UV-I 0 W/m -0,0 C -5,3 C 17,7 km/h (3 Bft) 100,00 %
17.03.2016 02:30 1,3 C 91 % 1026,4 hPa 0,0 l/m 14,9 km/h (3 Bft) O-NO 67 0 min 0,000 mm 0,0 UV-I 0 W/m -0,0 C -5,3 C 19,3 km/h (3 Bft) 100,00 %
17.03.2016 02:31 1,3 C 91 % 1026,4 hPa 0,0 l/m 9,9 km/h (2 Bft) O-NO 59 0 min 0,000 mm 0,0 UV-I 0 W/m -0,0 C -1,9 C 12,9 km/h (3 Bft) 94,12 %
17.03.2016 02:32 1,3 C 91 % 1026,3 hPa 0,0 l/m 12,6 km/h (3 Bft) NO 42 0 min 0,000 mm 0,0 UV-I 0 W/m -0,0 C -3,9 C 19,3 km/h (3 Bft) 100,00 %
17.03.2016 02:33 1,3 C 92 % 1026,3 hPa 0,0 l/m 14,0 km/h (3 Bft) NO 56 0 min 0,000 mm 0,0 UV-I 0 W/m 0,1 C -4,8 C 17,7 km/h (3 Bft) 100,00 %
17.03.2016 02:34 1,3 C 92 % 1026,4 hPa 0,0 l/m 12,3 km/h (3 Bft) NO 51 0 min 0,000 mm 0,0 UV-I 0 W/m 0,1 C -3,7 C 17,7 km/h (3 Bft) 100,00 %
17.03.2016 02:35 1,3 C 92 % 1026,3 hPa 0,0 l/m 11,7 km/h (2 Bft) NO 47 0 min 0,000 mm 0,0 UV-I 0 W/m 0,1 C -3,3 C 16,1 km/h (3 Bft) 100,00 %
17.03.2016 02:36 1,3 C 92 % 1026,3 hPa 0,0 l/m 9,8 km/h (2 Bft) O-NO 70 0 min 0,000 mm 0,0 UV-I 0 W/m 0,1 C -1,9 C 14,5 km/h (3 Bft) 100,00 %
17.03.2016 02:37 1,3 C 92 % 1026,4 hPa 0,0 l/m 12,9 km/h (3 Bft) NO 55 0 min 0,000 mm 0,0 UV-I 0 W/m 0,1 C -4,1 C 16,1 km/h (3 Bft) 95,83 %
17.03.2016 02:38 1,2 C 92 % 1026,3 hPa 0,0 l/m 13,1 km/h (3 Bft) NO 38 0 min 0,000 mm 0,0 UV-I 0 W/m 0,0 C -4,4 C 16,1 km/h (3 Bft) 100,00 %
17.03.2016 02:39 1,2 C 91 % 1026,3 hPa 0,0 l/m 14,4 km/h (3 Bft) O-NO 61 0 min 0,000 mm 0,0 UV-I 0 W/m -0,1 C -5,2 C 19,3 km/h (3 Bft) 100,00 %
17.03.2016 02:40 1,3 C 92 % 1026,3 hPa 0,0 l/m 15,0 km/h (3 Bft) O-NO 61 0 min 0,000 mm 0,0 UV-I 0 W/m 0,1 C -5,4 C 19,3 km/h (3 Bft) 95,65 %
17.03.2016 02:41 1,2 C 92 % 1026,3 hPa 0,0 l/m 15,3 km/h (3 Bft) O-NO 59 0 min 0,000 mm 0,0 UV-I 0 W/m 0,0 C -5,7 C 17,7 km/h (3 Bft) 100,00 %
17.03.2016 02:42 1,3 C 92 % 1026,3 hPa 0,0 l/m 16,3 km/h (3 Bft) O-NO 60 0 min 0,000 mm 0,0 UV-I 0 W/m 0,1 C -6,1 C 24,1 km/h (4 Bft) 100,00 %
17.03.2016 02:43 1,3 C 92 % 1026,4 hPa 0,0 l/m 14,2 km/h (3 Bft) O-NO 69 0 min 0,000 mm 0,0 UV-I 0 W/m 0,1 C -4,9 C 17,7 km/h (3 Bft) 100,00 %
17.03.2016 02:44 1,3 C 92 % 1026,3 hPa 0,0 l/m 14,3 km/h (3 Bft) O-NO 70 0 min 0,000 mm 0,0 UV-I 0 W/m 0,1 C -5,0 C 17,7 km/h (3 Bft) 100,00 %
17.03.2016 02:45 1,2 C 92 % 1026,3 hPa 0,0 l/m 13,7 km/h (3 Bft) O-NO 63 0 min 0,000 mm 0,0 UV-I 0 W/m 0,0 C -4,7 C 17,7 km/h (3 Bft) 100,00 %
17.03.2016 02:46 1,2 C 92 % 1026,3 hPa 0,0 l/m 13,2 km/h (3 Bft) NO 49 0 min 0,000 mm 0,0 UV-I 0 W/m 0,0 C -4,4 C 17,7 km/h (3 Bft) 100,00 %
17.03.2016 02:47 1,2 C 92 % 1026,3 hPa 0,0 l/m 13,6 km/h (3 Bft) O-NO 62 0 min 0,000 mm 0,0 UV-I 0 W/m 0,0 C -4,7 C 16,1 km/h (3 Bft) 100,00 %
17.03.2016 02:48 1,2 C 92 % 1026,3 hPa 0,0 l/m 16,2 km/h (3 Bft) O-NO 63 0 min 0,000 mm 0,0 UV-I 0 W/m 0,0 C -6,2 C 19,3 km/h (3 Bft) 100,00 %
17.03.2016 02:49 1,2 C 92 % 1026,3 hPa 0,0 l/m 11,2 km/h (2 Bft) O-NO 73 0 min 0,000 mm 0,0 UV-I 0 W/m 0,0 C -3,0 C 16,1 km/h (3 Bft) 100,00 %
17.03.2016 02:50 1,2 C 92 % 1026,3 hPa 0,0 l/m 14,9 km/h (3 Bft) O-NO 67 0 min 0,000 mm 0,0 UV-I 0 W/m 0,0 C -5,5 C 19,3 km/h (3 Bft) 100,00 %
17.03.2016 02:51 1,2 C 92 % 1026,3 hPa 0,0 l/m 13,3 km/h (3 Bft) O-NO 62 0 min 0,000 mm 0,0 UV-I 0 W/m 0,0 C -4,5 C 16,1 km/h (3 Bft) 100,00 %
17.03.2016 02:52 1,2 C 92 % 1026,3 hPa 0,0 l/m 15,8 km/h (3 Bft) O-NO 74 0 min 0,000 mm 0,0 UV-I 0 W/m 0,0 C -6,0 C 19,3 km/h (3 Bft) 100,00 %
17.03.2016 02:53 1,2 C 92 % 1026,3 hPa 0,0 l/m 16,3 km/h (3 Bft) O-NO 63 0 min 0,000 mm 0,0 UV-I 0 W/m 0,0 C -6,3 C 19,3 km/h (3 Bft) 100,00 %
17.03.2016 02:54 1,2 C 92 % 1026,2 hPa 0,0 l/m 14,1 km/h (3 Bft) O-NO 70 0 min 0,000 mm 0,0 UV-I 0 W/m 0,0 C -5,0 C 17,7 km/h (3 Bft) 95,65 %
17.03.2016 02:55 1,2 C 92 % 1026,3 hPa 0,0 l/m 14,2 km/h (3 Bft) O-NO 59 0 min 0,000 mm 0,0 UV-I 0 W/m 0,0 C -5,1 C 19,3 km/h (3 Bft) 100,00 %
17.03.2016 02:56 1,2 C 92 % 1026,2 hPa 0,0 l/m 14,6 km/h (3 Bft) O-NO 63 0 min 0,000 mm 0,0 UV-I 0 W/m 0,0 C -5,3 C 20,9 km/h (4 Bft) 100,00 %
17.03.2016 02:57 1,2 C 92 % 1026,2 hPa 0,0 l/m 14,3 km/h (3 Bft) O-NO 65 0 min 0,000 mm 0,0 UV-I 0 W/m 0,0 C -5,1 C 17,7 km/h (3 Bft) 97,56 %
17.03.2016 02:58 1,2 C 92 % 1026,2 hPa 0,0 l/m 16,3 km/h (3 Bft) O-NO 71 0 min 0,000 mm 0,0 UV-I 0 W/m 0,0 C -6,3 C 22,5 km/h (4 Bft) 100,00 %
17.03.2016 02:59 1,2 C 92 % 1026,2 hPa 0,0 l/m 18,4 km/h (3 Bft) O-NO 76 0 min 0,000 mm 0,0 UV-I 0 W/m 0,0 C -7,3 C 24,1 km/h (4 Bft) 100,00 %
17.03.2016 03:00 1,2 C 92 % 1026,2 hPa 0,0 l/m 15,5 km/h (3 Bft) O-NO 76 0 min 0,000 mm 0,0 UV-I 0 W/m 0,0 C -5,8 C 19,3 km/h (3 Bft) 100,00 %
17.03.2016 03:01 1,2 C 93 % 1026,3 hPa 0,0 l/m 14,2 km/h (3 Bft) O-NO 66 0 min 0,000 mm 0,0 UV-I 0 W/m 0,2 C -5,1 C 17,7 km/h (3 Bft) 100,00 %
17.03.2016 03:02 1,2 C 92 % 1026,2 hPa 0,0 l/m 15,9 km/h (3 Bft) O-NO 64 0 min 0,000 mm 0,0 UV-I 0 W/m 0,0 C -6,0 C 20,9 km/h (4 Bft) 100,00 %
17.03.2016 03:03 1,2 C 93 % 1026,2 hPa 0,0 l/m 18,6 km/h (3 Bft) O-NO 65 0 min 0,000 mm 0,0 UV-I 0 W/m 0,2 C -7,4 C 25,7 km/h (4 Bft) 100,00 %
17.03.2016 03:04 1,2 C 92 % 1026,2 hPa 0,0 l/m 16,9 km/h (3 Bft) O-NO 67 0 min 0,000 mm 0,0 UV-I 0 W/m 0,0 C -6,6 C 20,9 km/h (4 Bft) 100,00 %
17.03.2016 03:05 1,3 C 93 % 1026,2 hPa 0,0 l/m 18,2 km/h (3 Bft) O 82 0 min 0,000 mm 0,0 UV-I 0 W/m 0,3 C -7,1 C 22,5 km/h (4 Bft) 100,00 %
17.03.2016 03:06 1,3 C 92 % 1026,3 hPa 0,0 l/m 14,8 km/h (3 Bft) O-NO 62 0 min 0,000 mm 0,0 UV-I 0 W/m 0,1 C -5,3 C 19,3 km/h (3 Bft) 100,00 %
17.03.2016 03:07 1,3 C 92 % 1026,3 hPa 0,0 l/m 17,8 km/h (3 Bft) O-NO 67 0 min 0,000 mm 0,0 UV-I 0 W/m 0,1 C -6,9 C 24,1 km/h (4 Bft) 95,65 %
17.03.2016 03:08 1,3 C 92 % 1026,2 hPa 0,0 l/m 15,7 km/h (3 Bft) O 84 0 min 0,000 mm 0,0 UV-I 0 W/m 0,1 C -5,8 C 19,3 km/h (3 Bft) 100,00 %
17.03.2016 03:09 1,3 C 92 % 1026,2 hPa 0,0 l/m 17,8 km/h (3 Bft) O-NO 66 0 min 0,000 mm 0,0 UV-I 0 W/m 0,1 C -6,9 C 20,9 km/h (4 Bft) 100,00 %
17.03.2016 03:10 1,3 C 92 % 1026,2 hPa 0,0 l/m 20,4 km/h (4 Bft) O-NO 72 0 min 0,000 mm 0,0 UV-I 0 W/m 0,1 C -8,1 C 29,0 km/h (5 Bft) 100,00 %
17.03.2016 03:11 1,3 C 92 % 1026,2 hPa 0,0 l/m 19,1 km/h (3 Bft) O-NO 73 0 min 0,000 mm 0,0 UV-I 0 W/m 0,1 C -7,5 C 24,1 km/h (4 Bft) 100,00 %
17.03.2016 03:12 1,3 C 92 % 1026,1 hPa 0,0 l/m 14,7 km/h (3 Bft) O-NO 63 0 min 0,000 mm 0,0 UV-I 0 W/m 0,1 C -5,2 C 19,3 km/h (3 Bft) 92,59 %
17.03.2016 03:13 1,3 C 92 % 1026,2 hPa 0,0 l/m 17,1 km/h (3 Bft) O-NO 59 0 min 0,000 mm 0,0 UV-I 0 W/m 0,1 C -6,6 C 22,5 km/h (4 Bft) 100,00 %
17.03.2016 03:14 1,3 C 92 % 1026,2 hPa 0,0 l/m 18,0 km/h (3 Bft) O-NO 59 0 min 0,000 mm 0,0 UV-I 0 W/m 0,1 C -7,0 C 22,5 km/h (4 Bft) 100,00 %
17.03.2016 03:15 1,3 C 92 % 1026,2 hPa 0,0 l/m 15,6 km/h (3 Bft) O-NO 61 0 min 0,000 mm 0,0 UV-I 0 W/m 0,1 C -5,7 C 20,9 km/h (4 Bft) 100,00 %
17.03.2016 03:16 1,3 C 92 % 1026,2 hPa 0,0 l/m 17,2 km/h (3 Bft) O-NO 69 0 min 0,000 mm 0,0 UV-I 0 W/m 0,1 C -6,6 C 24,1 km/h (4 Bft) 100,00 %
17.03.2016 03:17 1,3 C 92 % 1026,2 hPa 0,0 l/m 15,7 km/h (3 Bft) O 87 0 min 0,000 mm 0,0 UV-I 0 W/m 0,1 C -5,8 C 17,7 km/h (3 Bft) 100,00 %
17.03.2016 03:18 1,3 C 92 % 1026,2 hPa 0,0 l/m 13,4 km/h (3 Bft) O-NO 78 0 min 0,000 mm 0,0 UV-I 0 W/m 0,1 C -4,4 C 17,7 km/h (3 Bft) 100,00 %
17.03.2016 03:19 1,3 C 92 % 1026,2 hPa 0,0 l/m 17,3 km/h (3 Bft) NO 53 0 min 0,000 mm 0,0 UV-I 0 W/m 0,1 C -6,7 C 20,9 km/h (4 Bft) 100,00 %
17.03.2016 03:20 1,3 C 92 % 1026,2 hPa 0,0 l/m 15,6 km/h (3 Bft) O 86 0 min 0,000 mm 0,0 UV-I 0 W/m 0,1 C -5,7 C 19,3 km/h (3 Bft) 100,00 %
17.03.2016 03:21 1,3 C 92 % 1026,2 hPa 0,0 l/m 15,7 km/h (3 Bft) O-NO 75 0 min 0,000 mm 0,0 UV-I 0 W/m 0,1 C -5,8 C 20,9 km/h (4 Bft) 100,00 %
17.03.2016 03:22 1,3 C 92 % 1026,2 hPa 0,0 l/m 14,2 km/h (3 Bft) O-NO 71 0 min 0,000 mm 0,0 UV-I 0 W/m 0,1 C -4,9 C 17,7 km/h (3 Bft) 100,00 %
17.03.2016 03:23 1,3 C 92 % 1026,2 hPa 0,0 l/m 16,2 km/h (3 Bft) O-NO 65 0 min 0,000 mm 0,0 UV-I 0 W/m 0,1 C -6,1 C 22,5 km/h (4 Bft) 96,67 %
17.03.2016 03:24 1,3 C 92 % 1026,2 hPa 0,0 l/m 14,7 km/h (3 Bft) O-NO 67 0 min 0,000 mm 0,0 UV-I 0 W/m 0,1 C -5,2 C 19,3 km/h (3 Bft) 100,00 %
17.03.2016 03:25 1,3 C 92 % 1026,2 hPa 0,0 l/m 14,8 km/h (3 Bft) O-NO 66 0 min 0,000 mm 0,0 UV-I 0 W/m 0,1 C -5,3 C 19,3 km/h (3 Bft) 100,00 %
17.03.2016 03:26 1,3 C 92 % 1026,2 hPa 0,0 l/m 16,7 km/h (3 Bft) NO 53 0 min 0,000 mm 0,0 UV-I 0 W/m 0,1 C -6,3 C 20,9 km/h (4 Bft) 100,00 %
17.03.2016 03:27 1,3 C 92 % 1026,2 hPa 0,0 l/m 15,4 km/h (3 Bft) O-NO 75 0 min 0,000 mm 0,0 UV-I 0 W/m 0,1 C -5,6 C 19,3 km/h (3 Bft) 100,00 %
17.03.2016 03:28 1,3 C 92 % 1026,2 hPa 0,0 l/m 17,1 km/h (3 Bft) N-NO 28 0 min 0,000 mm 0,0 UV-I 0 W/m 0,1 C -6,6 C 20,9 km/h (4 Bft) 100,00 %
17.03.2016 03:29 1,3 C 92 % 1026,2 hPa 0,0 l/m 17,7 km/h (3 Bft) O-NO 67 0 min 0,000 mm 0,0 UV-I 0 W/m 0,1 C -6,9 C 22,5 km/h (4 Bft) 100,00 %
17.03.2016 03:30 1,3 C 92 % 1026,2 hPa 0,0 l/m 15,2 km/h (3 Bft) O-NO 76 0 min 0,000 mm 0,0 UV-I 0 W/m 0,1 C -5,5 C 19,3 km/h (3 Bft) 100,00 %
17.03.2016 03:31 1,3 C 92 % 1026,2 hPa 0,0 l/m 14,6 km/h (3 Bft) O-NO 67 0 min 0,000 mm 0,0 UV-I 0 W/m 0,1 C -5,2 C 17,7 km/h (3 Bft) 100,00 %
17.03.2016 03:32 1,3 C 92 % 1026,1 hPa 0,0 l/m 17,5 km/h (3 Bft) O-NO 74 0 min 0,000 mm 0,0 UV-I 0 W/m 0,1 C -6,8 C 24,1 km/h (4 Bft) 100,00 %
17.03.2016 03:33 1,3 C 93 % 1026,1 hPa 0,0 l/m 16,8 km/h (3 Bft) NO 56 0 min 0,000 mm 0,0 UV-I 0 W/m 0,3 C -6,4 C 22,5 km/h (4 Bft) 100,00 %
17.03.2016 03:34 1,3 C 93 % 1026,2 hPa 0,0 l/m 17,6 km/h (3 Bft) O-NO 72 0 min 0,000 mm 0,0 UV-I 0 W/m 0,3 C -6,8 C 24,1 km/h (4 Bft) 100,00 %
17.03.2016 03:35 1,3 C 93 % 1026,2 hPa 0,0 l/m 17,6 km/h (3 Bft) O 80 0 min 0,000 mm 0,0 UV-I 0 W/m 0,3 C -6,8 C 22,5 km/h (4 Bft) 100,00 %
17.03.2016 03:36 1,3 C 93 % 1026,2 hPa 0,0 l/m 20,4 km/h (4 Bft) O 79 0 min 0,000 mm 0,0 UV-I 0 W/m 0,3 C -8,1 C 24,1 km/h (4 Bft) 96,30 %
17.03.2016 03:37 1,3 C 93 % 1026,2 hPa 0,0 l/m 16,7 km/h (3 Bft) O-NO 74 0 min 0,000 mm 0,0 UV-I 0 W/m 0,3 C -6,3 C 24,1 km/h (4 Bft) 100,00 %
17.03.2016 03:38 1,3 C 93 % 1026,2 hPa 0,0 l/m 17,4 km/h (3 Bft) O-NO 71 0 min 0,000 mm 0,0 UV-I 0 W/m 0,3 C -6,7 C 22,5 km/h (4 Bft) 100,00 %
17.03.2016 03:39 1,4 C 93 % 1026,2 hPa 0,0 l/m 18,3 km/h (3 Bft) O-NO 60 0 min 0,000 mm 0,0 UV-I 0 W/m 0,4 C -7,0 C 25,7 km/h (4 Bft) 92,86 %
17.03.2016 03:40 1,4 C 93 % 1026,2 hPa 0,0 l/m 17,3 km/h (3 Bft) O 86 0 min 0,000 mm 0,0 UV-I 0 W/m 0,4 C -6,5 C 20,9 km/h (4 Bft) 100,00 %
17.03.2016 03:41 1,4 C 93 % 1026,2 hPa 0,0 l/m 14,4 km/h (3 Bft) N-NO 28 0 min 0,000 mm 0,0 UV-I 0 W/m 0,4 C -4,9 C 17,7 km/h (3 Bft) 100,00 %
17.03.2016 03:42 1,3 C 93 % 1026,2 hPa 0,0 l/m 15,0 km/h (3 Bft) O-NO 70 0 min 0,000 mm 0,0 UV-I 0 W/m 0,3 C -5,4 C 22,5 km/h (4 Bft) 96,30 %
17.03.2016 03:43 1,3 C 92 % 1026,2 hPa 0,0 l/m 16,0 km/h (3 Bft) NO 52 0 min 0,000 mm 0,0 UV-I 0 W/m 0,1 C -6,0 C 22,5 km/h (4 Bft) 100,00 %
17.03.2016 03:44 1,3 C 93 % 1026,2 hPa 0,0 l/m 15,1 km/h (3 Bft) O-NO 59 0 min 0,000 mm 0,0 UV-I 0 W/m 0,3 C -5,5 C 20,9 km/h (4 Bft) 100,00 %
17.03.2016 03:45 1,3 C 93 % 1026,1 hPa 0,0 l/m 19,9 km/h (4 Bft) O-SO 105 0 min 0,000 mm 0,0 UV-I 0 W/m 0,3 C -7,9 C 25,7 km/h (4 Bft) 96,55 %
17.03.2016 03:46 1,3 C 93 % 1026,1 hPa 0,0 l/m 17,1 km/h (3 Bft) O 81 0 min 0,000 mm 0,0 UV-I 0 W/m 0,3 C -6,6 C 20,9 km/h (4 Bft) 100,00 %
17.03.2016 03:47 1,3 C 93 % 1026,1 hPa 0,0 l/m 14,5 km/h (3 Bft) O 82 0 min 0,000 mm 0,0 UV-I 0 W/m 0,3 C -5,1 C 22,5 km/h (4 Bft) 100,00 %
17.03.2016 03:48 1,3 C 93 % 1026,1 hPa 0,0 l/m 18,0 km/h (3 Bft) O 100 0 min 0,000 mm 0,0 UV-I 0 W/m 0,3 C -7,0 C 24,1 km/h (4 Bft) 100,00 %
17.03.2016 03:49 1,3 C 93 % 1026,1 hPa 0,0 l/m 16,2 km/h (3 Bft) O-NO 74 0 min 0,000 mm 0,0 UV-I 0 W/m 0,3 C -6,1 C 22,5 km/h (4 Bft) 100,00 %
17.03.2016 03:50 1,3 C 93 % 1026,1 hPa 0,0 l/m 16,3 km/h (3 Bft) O-SO 110 0 min 0,000 mm 0,0 UV-I 0 W/m 0,3 C -6,1 C 24,1 km/h (4 Bft) 100,00 %
17.03.2016 03:51 1,3 C 93 % 1026,0 hPa 0,0 l/m 14,6 km/h (3 Bft) O 82 0 min 0,000 mm 0,0 UV-I 0 W/m 0,3 C -5,2 C 24,1 km/h (4 Bft) 100,00 %
17.03.2016 03:52 1,3 C 93 % 1026,0 hPa 0,0 l/m 14,4 km/h (3 Bft) O 86 0 min 0,000 mm 0,0 UV-I 0 W/m 0,3 C -5,1 C 17,7 km/h (3 Bft) 100,00 %
17.03.2016 03:53 1,3 C 93 % 1026,0 hPa 0,0 l/m 13,3 km/h (3 Bft) O 82 0 min 0,000 mm 0,0 UV-I 0 W/m 0,3 C -4,4 C 17,7 km/h (3 Bft) 100,00 %
17.03.2016 03:54 1,3 C 93 % 1026,0 hPa 0,0 l/m 10,0 km/h (2 Bft) O 79 0 min 0,000 mm 0,0 UV-I 0 W/m 0,3 C -2,0 C 16,1 km/h (3 Bft) 100,00 %
17.03.2016 03:55 1,3 C 93 % 1026,1 hPa 0,0 l/m 12,5 km/h (3 Bft) O 82 0 min 0,000 mm 0,0 UV-I 0 W/m 0,3 C -3,8 C 17,7 km/h (3 Bft) 100,00 %
17.03.2016 03:56 1,3 C 93 % 1026,0 hPa 0,0 l/m 15,7 km/h (3 Bft) O-NO 74 0 min 0,000 mm 0,0 UV-I 0 W/m 0,3 C -5,8 C 19,3 km/h (3 Bft) 100,00 %
17.03.2016 03:57 1,3 C 93 % 1026,0 hPa 0,0 l/m 13,7 km/h (3 Bft) O-NO 75 0 min 0,000 mm 0,0 UV-I 0 W/m 0,3 C -4,6 C 20,9 km/h (4 Bft) 92,59 %
17.03.2016 03:58 1,3 C 93 % 1026,0 hPa 0,0 l/m 15,0 km/h (3 Bft) O-NO 77 0 min 0,000 mm 0,0 UV-I 0 W/m 0,3 C -5,4 C 20,9 km/h (4 Bft) 100,00 %
17.03.2016 03:59 1,3 C 93 % 1026,0 hPa 0,0 l/m 17,6 km/h (3 Bft) O-NO 78 0 min 0,000 mm 0,0 UV-I 0 W/m 0,3 C -6,8 C 20,9 km/h (4 Bft) 96,30 %
17.03.2016 04:00 1,3 C 93 % 1026,0 hPa 0,0 l/m 19,3 km/h (3 Bft) NO 56 0 min 0,000 mm 0,0 UV-I 0 W/m 0,3 C -7,6 C 22,5 km/h (4 Bft) 100,00 %
17.03.2016 04:03 1,3 C 93 % 1026,0 hPa 0,0 l/m 15,6 km/h (3 Bft) O 83 0 min 0,000 mm 0,0 UV-I 0 W/m 0,3 C -5,7 C 20,9 km/h (4 Bft) 97,96 %
17.03.2016 04:04 1,3 C 93 % 1026,0 hPa 0,0 l/m 15,6 km/h (3 Bft) O 84 0 min 0,000 mm 0,0 UV-I 0 W/m 0,3 C -5,7 C 17,7 km/h (3 Bft) 96,15 %
17.03.2016 04:05 1,3 C 93 % 1026,0 hPa 0,0 l/m 10,3 km/h (2 Bft) O-NO 64 0 min 0,000 mm 0,0 UV-I 0 W/m 0,3 C -2,3 C 16,1 km/h (3 Bft) 100,00 %
17.03.2016 04:06 1,3 C 93 % 1026,0 hPa 0,0 l/m 13,8 km/h (3 Bft) O-NO 71 0 min 0,000 mm 0,0 UV-I 0 W/m 0,3 C -4,7 C 20,9 km/h (4 Bft) 95,65 %
17.03.2016 04:07 1,3 C 93 % 1026,0 hPa 0,0 l/m 9,9 km/h (2 Bft) O-NO 63 0 min 0,000 mm 0,0 UV-I 0 W/m 0,3 C -1,9 C 14,5 km/h (3 Bft) 100,00 %
17.03.2016 04:08 1,3 C 93 % 1026,1 hPa 0,0 l/m 11,5 km/h (2 Bft) O 82 0 min 0,000 mm 0,0 UV-I 0 W/m 0,3 C -3,2 C 14,5 km/h (3 Bft) 96,55 %
17.03.2016 04:09 1,3 C 93 % 1026,1 hPa 0,0 l/m 12,5 km/h (3 Bft) O 86 0 min 0,000 mm 0,0 UV-I 0 W/m 0,3 C -3,8 C 17,7 km/h (3 Bft) 100,00 %
17.03.2016 04:10 1,3 C 93 % 1026,0 hPa 0,0 l/m 12,9 km/h (3 Bft) O 100 0 min 0,000 mm 0,0 UV-I 0 W/m 0,3 C -4,1 C 16,1 km/h (3 Bft) 94,12 %
17.03.2016 04:11 1,3 C 93 % 1026,0 hPa 0,0 l/m 10,2 km/h (2 Bft) O-SO 114 0 min 0,000 mm 0,0 UV-I 0 W/m 0,3 C -2,2 C 16,1 km/h (3 Bft) 96,30 %
17.03.2016 04:12 1,2 C 93 % 1026,1 hPa 0,0 l/m 12,0 km/h (2 Bft) O-NO 70 0 min 0,000 mm 0,0 UV-I 0 W/m 0,2 C -3,6 C 19,3 km/h (3 Bft) 96,15 %
17.03.2016 04:13 1,2 C 93 % 1026,0 hPa 0,0 l/m 15,8 km/h (3 Bft) O-NO 78 0 min 0,000 mm 0,0 UV-I 0 W/m 0,2 C -6,0 C 20,9 km/h (4 Bft) 86,67 %
17.03.2016 04:14 1,2 C 93 % 1026,0 hPa 0,0 l/m 15,6 km/h (3 Bft) O-NO 77 0 min 0,000 mm 0,0 UV-I 0 W/m 0,2 C -5,9 C 19,3 km/h (3 Bft) 96,80 %
17.03.2016 04:15 1,2 C 93 % 1026,0 hPa 0,0 l/m 11,9 km/h (2 Bft) O 82 0 min 0,000 mm 0,0 UV-I 0 W/m 0,2 C -3,5 C 16,1 km/h (3 Bft) 98,21 %
17.03.2016 04:16 1,2 C 93 % 1026,0 hPa 0,0 l/m 11,9 km/h (2 Bft) NO 49 0 min 0,000 mm 0,0 UV-I 0 W/m 0,2 C -3,5 C 16,1 km/h (3 Bft) 100,00 %
17.03.2016 04:17 1,2 C 93 % 1026,0 hPa 0,0 l/m 14,3 km/h (3 Bft) O-NO 65 0 min 0,000 mm 0,0 UV-I 0 W/m 0,2 C -5,1 C 22,5 km/h (4 Bft) 96,15 %
17.03.2016 04:18 1,2 C 93 % 1026,0 hPa 0,0 l/m 12,7 km/h (3 Bft) O-SO 112 0 min 0,000 mm 0,0 UV-I 0 W/m 0,2 C -4,1 C 20,9 km/h (4 Bft) 100,00 %
17.03.2016 04:19 1,2 C 93 % 1026,0 hPa 0,0 l/m 7,6 km/h (2 Bft) O-NO 61 0 min 0,000 mm 0,0 UV-I 0 W/m 0,2 C -0,0 C 12,9 km/h (3 Bft) 95,65 %
17.03.2016 04:20 1,2 C 93 % 1026,0 hPa 0,0 l/m 10,6 km/h (2 Bft) O-NO 57 0 min 0,000 mm 0,0 UV-I 0 W/m 0,2 C -2,6 C 14,5 km/h (3 Bft) 100,00 %
17.03.2016 04:21 1,2 C 93 % 1026,0 hPa 0,0 l/m 13,8 km/h (3 Bft) O-NO 62 0 min 0,000 mm 0,0 UV-I 0 W/m 0,2 C -4,8 C 17,7 km/h (3 Bft) 93,75 %
17.03.2016 04:22 1,2 C 93 % 1026,0 hPa 0,0 l/m 13,5 km/h (3 Bft) NO 40 0 min 0,000 mm 0,0 UV-I 0 W/m 0,2 C -4,6 C 17,7 km/h (3 Bft) 100,00 %
17.03.2016 04:23 1,2 C 93 % 1026,0 hPa 0,0 l/m 11,4 km/h (2 Bft) O-NO 68 0 min 0,000 mm 0,0 UV-I 0 W/m 0,2 C -3,2 C 14,5 km/h (3 Bft) 96,15 %
17.03.2016 04:24 1,2 C 93 % 1026,0 hPa 0,0 l/m 10,4 km/h (2 Bft) O-NO 60 0 min 0,000 mm 0,0 UV-I 0 W/m 0,2 C -2,4 C 14,5 km/h (3 Bft) 96,30 %
17.03.2016 04:25 1,2 C 93 % 1026,0 hPa 0,0 l/m 11,7 km/h (2 Bft) O-NO 60 0 min 0,000 mm 0,0 UV-I 0 W/m 0,2 C -3,4 C 16,1 km/h (3 Bft) 100,00 %
17.03.2016 04:26 1,1 C 93 % 1026,0 hPa 0,0 l/m 9,7 km/h (2 Bft) NO 54 0 min 0,000 mm 0,0 UV-I 0 W/m 0,1 C -2,0 C 12,9 km/h (3 Bft) 91,67 %
17.03.2016 04:27 1,1 C 93 % 1026,0 hPa 0,0 l/m 10,1 km/h (2 Bft) O-NO 67 0 min 0,000 mm 0,0 UV-I 0 W/m 0,1 C -2,3 C 16,1 km/h (3 Bft) 100,00 %
17.03.2016 04:28 1,1 C 93 % 1026,0 hPa 0,0 l/m 13,7 km/h (3 Bft) O-NO 64 0 min 0,000 mm 0,0 UV-I 0 W/m 0,1 C -4,9 C 17,7 km/h (3 Bft) 96,67 %
17.03.2016 04:29 1,1 C 93 % 1026,0 hPa 0,0 l/m 12,0 km/h (2 Bft) O-NO 75 0 min 0,000 mm 0,0 UV-I 0 W/m 0,1 C -3,7 C 16,1 km/h (3 Bft) 96,15 %
17.03.2016 04:30 1,1 C 93 % 1026,0 hPa 0,0 l/m 12,3 km/h (3 Bft) O-NO 59 0 min 0,000 mm 0,0 UV-I 0 W/m 0,1 C -3,9 C 14,5 km/h (3 Bft) 100,00 %
17.03.2016 04:31 1,1 C 93 % 1026,0 hPa 0,0 l/m 12,1 km/h (2 Bft) O-NO 59 0 min 0,000 mm 0,0 UV-I 0 W/m 0,1 C -3,8 C 16,1 km/h (3 Bft) 96,30 %
17.03.2016 04:32 1,1 C 93 % 1026,0 hPa 0,0 l/m 13,9 km/h (3 Bft) O-NO 60 0 min 0,000 mm 0,0 UV-I 0 W/m 0,1 C -5,0 C 19,3 km/h (3 Bft) 100,00 %
17.03.2016 04:33 1,1 C 93 % 1026,0 hPa 0,0 l/m 13,8 km/h (3 Bft) O-NO 67 0 min 0,000 mm 0,0 UV-I 0 W/m 0,1 C -4,9 C 17,7 km/h (3 Bft) 100,00 %
17.03.2016 04:34 1,1 C 93 % 1026,0 hPa 0,0 l/m 17,0 km/h (3 Bft) O-NO 67 0 min 0,000 mm 0,0 UV-I 0 W/m 0,1 C -6,8 C 22,5 km/h (4 Bft) 96,30 %
17.03.2016 04:35 1,1 C 93 % 1026,0 hPa 0,0 l/m 16,8 km/h (3 Bft) NO 50 0 min 0,000 mm 0,0 UV-I 0 W/m 0,1 C -6,6 C 19,3 km/h (3 Bft) 100,00 %
17.03.2016 04:36 1,1 C 93 % 1026,0 hPa 0,0 l/m 15,0 km/h (3 Bft) NO 41 0 min 0,000 mm 0,0 UV-I 0 W/m 0,1 C -5,6 C 19,3 km/h (3 Bft) 96,88 %
17.03.2016 04:37 1,1 C 93 % 1026,0 hPa 0,0 l/m 13,1 km/h (3 Bft) O-NO 58 0 min 0,000 mm 0,0 UV-I 0 W/m 0,1 C -4,5 C 17,7 km/h (3 Bft) 96,30 %
17.03.2016 04:38 1,1 C 93 % 1026,0 hPa 0,0 l/m 15,1 km/h (3 Bft) NO 51 0 min 0,000 mm 0,0 UV-I 0 W/m 0,1 C -5,7 C 22,5 km/h (4 Bft) 100,00 %
17.03.2016 04:39 1,1 C 93 % 1026,0 hPa 0,0 l/m 16,7 km/h (3 Bft) O-NO 76 0 min 0,000 mm 0,0 UV-I 0 W/m 0,1 C -6,6 C 20,9 km/h (4 Bft) 100,00 %
17.03.2016 04:40 1,1 C 93 % 1026,0 hPa 0,0 l/m 14,0 km/h (3 Bft) O-NO 63 0 min 0,000 mm 0,0 UV-I 0 W/m 0,1 C -5,0 C 17,7 km/h (3 Bft) 100,00 %
17.03.2016 04:41 1,1 C 93 % 1026,0 hPa 0,0 l/m 16,3 km/h (3 Bft) NO 51 0 min 0,000 mm 0,0 UV-I 0 W/m 0,1 C -6,4 C 20,9 km/h (4 Bft) 100,00 %
17.03.2016 04:42 1,1 C 93 % 1026,0 hPa 0,0 l/m 15,8 km/h (3 Bft) NO 52 0 min 0,000 mm 0,0 UV-I 0 W/m 0,1 C -6,1 C 20,9 km/h (4 Bft) 92,31 %
17.03.2016 04:43 1,1 C 93 % 1026,0 hPa 0,0 l/m 12,7 km/h (3 Bft) O-NO 63 0 min 0,000 mm 0,0 UV-I 0 W/m 0,1 C -4,2 C 20,9 km/h (4 Bft) 100,00 %
17.03.2016 04:44 1,1 C 93 % 1026,0 hPa 0,0 l/m 15,6 km/h (3 Bft) NO 48 0 min 0,000 mm 0,0 UV-I 0 W/m 0,1 C -6,0 C 19,3 km/h (3 Bft) 100,00 %
17.03.2016 04:45 1,1 C 93 % 1026,0 hPa 0,0 l/m 14,3 km/h (3 Bft) O-NO 65 0 min 0,000 mm 0,0 UV-I 0 W/m 0,1 C -5,2 C 22,5 km/h (4 Bft) 100,00 %
17.03.2016 04:46 1,2 C 93 % 1026,0 hPa 0,0 l/m 14,6 km/h (3 Bft) O-NO 63 0 min 0,000 mm 0,0 UV-I 0 W/m 0,2 C -5,3 C 17,7 km/h (3 Bft) 95,65 %
17.03.2016 04:47 1,1 C 93 % 1026,0 hPa 0,0 l/m 12,5 km/h (3 Bft) O-NO 58 0 min 0,000 mm 0,0 UV-I 0 W/m 0,1 C -4,1 C 16,1 km/h (3 Bft) 100,00 %
17.03.2016 04:48 1,1 C 93 % 1026,0 hPa 0,0 l/m 15,9 km/h (3 Bft) NO 55 0 min 0,000 mm 0,0 UV-I 0 W/m 0,1 C -6,2 C 20,9 km/h (4 Bft) 97,59 %
17.03.2016 04:49 1,1 C 93 % 1026,0 hPa 0,0 l/m 15,7 km/h (3 Bft) NO 47 0 min 0,000 mm 0,0 UV-I 0 W/m 0,1 C -6,0 C 19,3 km/h (3 Bft) 97,73 %
17.03.2016 04:50 1,1 C 93 % 1026,0 hPa 0,0 l/m 13,3 km/h (3 Bft) O-NO 77 0 min 0,000 mm 0,0 UV-I 0 W/m 0,1 C -4,6 C 16,1 km/h (3 Bft) 100,00 %
17.03.2016 04:51 1,1 C 93 % 1026,1 hPa 0,0 l/m 13,7 km/h (3 Bft) NO 44 0 min 0,000 mm 0,0 UV-I 0 W/m 0,1 C -4,9 C 17,7 km/h (3 Bft) 100,00 %
17.03.2016 04:52 1,1 C 93 % 1026,1 hPa 0,0 l/m 13,0 km/h (3 Bft) O-NO 71 0 min 0,000 mm 0,0 UV-I 0 W/m 0,1 C -4,4 C 17,7 km/h (3 Bft) 100,00 %
17.03.2016 04:53 1,1 C 93 % 1026,1 hPa 0,0 l/m 12,2 km/h (2 Bft) NO 49 0 min 0,000 mm 0,0 UV-I 0 W/m 0,1 C -3,9 C 14,5 km/h (3 Bft) 100,00 %
17.03.2016 04:54 1,1 C 93 % 1026,0 hPa 0,0 l/m 14,1 km/h (3 Bft) NO 56 0 min 0,000 mm 0,0 UV-I 0 W/m 0,1 C -5,1 C 17,7 km/h (3 Bft) 96,30 %
17.03.2016 04:55 1,1 C 93 % 1026,1 hPa 0,0 l/m 11,3 km/h (2 Bft) NO 51 0 min 0,000 mm 0,0 UV-I 0 W/m 0,1 C -3,2 C 17,7 km/h (3 Bft) 96,55 %
17.03.2016 04:56 1,1 C 93 % 1026,0 hPa 0,0 l/m 12,3 km/h (3 Bft) O-NO 57 0 min 0,000 mm 0,0 UV-I 0 W/m 0,1 C -3,9 C 16,1 km/h (3 Bft) 100,00 %
17.03.2016 04:57 1,1 C 93 % 1026,0 hPa 0,0 l/m 10,8 km/h (2 Bft) NO 50 0 min 0,000 mm 0,0 UV-I 0 W/m 0,1 C -2,9 C 14,5 km/h (3 Bft) 100,00 %
17.03.2016 04:58 1,0 C 93 % 1026,0 hPa 0,0 l/m 10,6 km/h (2 Bft) O-NO 63 0 min 0,000 mm 0,0 UV-I 0 W/m -0,0 C -2,8 C 14,5 km/h (3 Bft) 100,00 %
17.03.2016 04:59 1,0 C 93 % 1026,0 hPa 0,0 l/m 12,4 km/h (3 Bft) O-NO 59 0 min 0,000 mm 0,0 UV-I 0 W/m -0,0 C -4,1 C 16,1 km/h (3 Bft) 100,00 %
17.03.2016 05:00 1,0 C 93 % 1026,0 hPa 0,0 l/m 14,6 km/h (3 Bft) O-NO 69 0 min 0,000 mm 0,0 UV-I 0 W/m -0,0 C -5,5 C 17,7 km/h (3 Bft) 100,00 %
17.03.2016 05:02 1,0 C 93 % 1026,1 hPa 0,0 l/m 12,2 km/h (2 Bft) NO 38 0 min 0,000 mm 0,0 UV-I 0 W/m -0,0 C -4,0 C 17,7 km/h (3 Bft) 97,37 %
17.03.2016 05:03 1,0 C 93 % 1026,1 hPa 0,0 l/m 10,7 km/h (2 Bft) NO 46 0 min 0,000 mm 0,0 UV-I 0 W/m -0,0 C -2,9 C 14,5 km/h (3 Bft) 100,00 %
17.03.2016 05:04 1,0 C 94 % 1026,1 hPa 0,0 l/m 12,2 km/h (2 Bft) NO 48 0 min 0,000 mm 0,0 UV-I 0 W/m 0,1 C -4,0 C 16,1 km/h (3 Bft) 96,67 %
17.03.2016 05:05 1,0 C 94 % 1026,1 hPa 0,0 l/m 10,5 km/h (2 Bft) O-NO 59 0 min 0,000 mm 0,0 UV-I 0 W/m 0,1 C -2,7 C 12,9 km/h (3 Bft) 100,00 %
17.03.2016 05:06 0,9 C 94 % 1026,1 hPa 0,0 l/m 10,2 km/h (2 Bft) O-NO 60 0 min 0,000 mm 0,0 UV-I 0 W/m 0,0 C -2,6 C 14,5 km/h (3 Bft) 96,30 %
17.03.2016 05:07 0,9 C 94 % 1026,1 hPa 0,0 l/m 12,8 km/h (3 Bft) NO 46 0 min 0,000 mm 0,0 UV-I 0 W/m 0,0 C -4,5 C 16,1 km/h (3 Bft) 100,00 %
17.03.2016 05:08 0,9 C 94 % 1026,1 hPa 0,0 l/m 9,7 km/h (2 Bft) O 85 0 min 0,000 mm 0,0 UV-I 0 W/m 0,0 C -2,2 C 12,9 km/h (3 Bft) 100,00 %
17.03.2016 05:09 0,9 C 94 % 1026,1 hPa 0,0 l/m 9,3 km/h (2 Bft) O-NO 61 0 min 0,000 mm 0,0 UV-I 0 W/m 0,0 C -1,9 C 14,5 km/h (3 Bft) 100,00 %
17.03.2016 05:10 0,9 C 94 % 1026,1 hPa 0,0 l/m 9,2 km/h (2 Bft) NO 46 0 min 0,000 mm 0,0 UV-I 0 W/m 0,0 C -1,8 C 11,3 km/h (2 Bft) 100,00 %
17.03.2016 05:11 0,9 C 94 % 1026,1 hPa 0,0 l/m 11,1 km/h (2 Bft) O-NO 61 0 min 0,000 mm 0,0 UV-I 0 W/m 0,0 C -3,3 C 14,5 km/h (3 Bft) 95,65 %
17.03.2016 05:12 0,9 C 94 % 1026,1 hPa 0,0 l/m 11,4 km/h (2 Bft) O-NO 60 0 min 0,000 mm 0,0 UV-I 0 W/m 0,0 C -3,5 C 16,1 km/h (3 Bft) 96,30 %
17.03.2016 05:13 0,9 C 94 % 1026,1 hPa 0,0 l/m 9,8 km/h (2 Bft) NO 47 0 min 0,000 mm 0,0 UV-I 0 W/m 0,0 C -2,3 C 14,5 km/h (3 Bft) 100,00 %
17.03.2016 05:14 0,9 C 94 % 1026,1 hPa 0,0 l/m 8,5 km/h (2 Bft) O-NO 60 0 min 0,000 mm 0,0 UV-I 0 W/m 0,0 C -1,2 C 9,7 km/h (2 Bft) 100,00 %
17.03.2016 05:15 0,9 C 94 % 1026,0 hPa 0,0 l/m 9,3 km/h (2 Bft) O 80 0 min 0,000 mm 0,0 UV-I 0 W/m 0,0 C -1,9 C 12,9 km/h (3 Bft) 100,00 %
17.03.2016 05:16 0,9 C 94 % 1026,1 hPa 0,0 l/m 8,6 km/h (2 Bft) NO 46 0 min 0,000 mm 0,0 UV-I 0 W/m 0,0 C -1,3 C 11,3 km/h (2 Bft) 100,00 %
17.03.2016 05:17 0,8 C 94 % 1026,1 hPa 0,0 l/m 11,1 km/h (2 Bft) O-NO 60 0 min 0,000 mm 0,0 UV-I 0 W/m -0,1 C -3,4 C 14,5 km/h (3 Bft) 96,30 %
17.03.2016 05:18 0,8 C 94 % 1026,1 hPa 0,0 l/m 8,2 km/h (2 Bft) O-NO 75 0 min 0,000 mm 0,0 UV-I 0 W/m -0,1 C -1,0 C 12,9 km/h (3 Bft) 100,00 %
17.03.2016 05:19 0,8 C 94 % 1026,1 hPa 0,0 l/m 9,1 km/h (2 Bft) O-NO 58 0 min 0,000 mm 0,0 UV-I 0 W/m -0,1 C -1,8 C 14,5 km/h (3 Bft) 100,00 %
17.03.2016 05:20 0,8 C 94 % 1026,1 hPa 0,0 l/m 10,5 km/h (2 Bft) O-NO 72 0 min 0,000 mm 0,0 UV-I 0 W/m -0,1 C -3,0 C 14,5 km/h (3 Bft) 100,00 %
17.03.2016 05:21 0,8 C 94 % 1026,1 hPa 0,0 l/m 8,9 km/h (2 Bft) O 82 0 min 0,000 mm 0,0 UV-I 0 W/m -0,1 C -1,6 C 12,9 km/h (3 Bft) 100,00 %
17.03.2016 05:22 0,8 C 94 % 1026,1 hPa 0,0 l/m 9,2 km/h (2 Bft) O-NO 67 0 min 0,000 mm 0,0 UV-I 0 W/m -0,1 C -1,9 C 12,9 km/h (3 Bft) 100,00 %
17.03.2016 05:23 0,8 C 94 % 1026,1 hPa 0,0 l/m 9,0 km/h (2 Bft) O 81 0 min 0,000 mm 0,0 UV-I 0 W/m -0,1 C -1,7 C 12,9 km/h (3 Bft) 100,00 %
17.03.2016 05:24 0,8 C 94 % 1026,1 hPa 0,0 l/m 10,5 km/h (2 Bft) NO 47 0 min 0,000 mm 0,0 UV-I 0 W/m -0,1 C -3,0 C 16,1 km/h (3 Bft) 100,00 %
17.03.2016 05:25 0,8 C 94 % 1026,1 hPa 0,0 l/m 10,3 km/h (2 Bft) O-NO 61 0 min 0,000 mm 0,0 UV-I 0 W/m -0,1 C -2,8 C 14,5 km/h (3 Bft) 100,00 %
17.03.2016 05:26 0,8 C 94 % 1026,1 hPa 0,0 l/m 11,1 km/h (2 Bft) O-NO 77 0 min 0,000 mm 0,0 UV-I 0 W/m -0,1 C -3,4 C 14,5 km/h (3 Bft) 100,00 %
17.03.2016 05:27 0,8 C 94 % 1026,1 hPa 0,0 l/m 8,9 km/h (2 Bft) O-NO 69 0 min 0,000 mm 0,0 UV-I 0 W/m -0,1 C -1,6 C 14,5 km/h (3 Bft) 100,00 %
17.03.2016 05:28 0,8 C 94 % 1026,1 hPa 0,0 l/m 8,7 km/h (2 Bft) NO 51 0 min 0,000 mm 0,0 UV-I 0 W/m -0,1 C -1,5 C 12,9 km/h (3 Bft) 90,91 %
17.03.2016 05:29 0,8 C 94 % 1026,1 hPa 0,0 l/m 10,0 km/h (2 Bft) O-NO 76 0 min 0,000 mm 0,0 UV-I 0 W/m -0,1 C -2,6 C 14,5 km/h (3 Bft) 100,00 %
17.03.2016 05:30 0,8 C 94 % 1026,1 hPa 0,0 l/m 9,7 km/h (2 Bft) O-NO 63 0 min 0,000 mm 0,0 UV-I 0 W/m -0,1 C -2,3 C 14,5 km/h (3 Bft) 100,00 %
17.03.2016 05:31 0,8 C 94 % 1026,1 hPa 0,0 l/m 11,1 km/h (2 Bft) O 88 0 min 0,000 mm 0,0 UV-I 0 W/m -0,1 C -3,4 C 14,5 km/h (3 Bft) 100,00 %
17.03.2016 05:32 0,8 C 94 % 1026,1 hPa 0,0 l/m 7,9 km/h (2 Bft) O-NO 66 0 min 0,000 mm 0,0 UV-I 0 W/m -0,1 C -0,7 C 11,3 km/h (2 Bft) 100,00 %
17.03.2016 05:33 0,8 C 94 % 1026,1 hPa 0,0 l/m 8,2 km/h (2 Bft) O-NO 59 0 min 0,000 mm 0,0 UV-I 0 W/m -0,1 C -1,0 C 11,3 km/h (2 Bft) 100,00 %
17.03.2016 05:34 0,8 C 94 % 1026,1 hPa 0,0 l/m 10,1 km/h (2 Bft) O 80 0 min 0,000 mm 0,0 UV-I 0 W/m -0,1 C -2,6 C 14,5 km/h (3 Bft) 100,00 %
17.03.2016 05:35 0,8 C 94 % 1026,1 hPa 0,0 l/m 8,6 km/h (2 Bft) NO 53 0 min 0,000 mm 0,0 UV-I 0 W/m -0,1 C -1,4 C 12,9 km/h (3 Bft) 100,00 %
17.03.2016 05:36 0,8 C 94 % 1026,2 hPa 0,0 l/m 9,1 km/h (2 Bft) O 84 0 min 0,000 mm 0,0 UV-I 0 W/m -0,1 C -1,8 C 14,5 km/h (3 Bft) 95,83 %
17.03.2016 05:37 0,8 C 94 % 1026,1 hPa 0,0 l/m 9,0 km/h (2 Bft) O-NO 76 0 min 0,000 mm 0,0 UV-I 0 W/m -0,1 C -1,7 C 12,9 km/h (3 Bft) 100,00 %
17.03.2016 05:38 0,8 C 94 % 1026,1 hPa 0,0 l/m 10,2 km/h (2 Bft) O 82 0 min 0,000 mm 0,0 UV-I 0 W/m -0,1 C -2,7 C 12,9 km/h (3 Bft) 100,00 %
17.03.2016 05:39 0,8 C 94 % 1026,1 hPa 0,0 l/m 10,0 km/h (2 Bft) O-NO 74 0 min 0,000 mm 0,0 UV-I 0 W/m -0,1 C -2,6 C 12,9 km/h (3 Bft) 100,00 %
17.03.2016 05:40 0,8 C 94 % 1026,1 hPa 0,0 l/m 6,7 km/h (2 Bft) O 84 0 min 0,000 mm 0,0 UV-I 0 W/m -0,1 C 0,5 C 11,3 km/h (2 Bft) 100,00 %
17.03.2016 05:41 0,8 C 94 % 1026,1 hPa 0,0 l/m 9,8 km/h (2 Bft) O-NO 63 0 min 0,000 mm 0,0 UV-I 0 W/m -0,1 C -2,4 C 12,9 km/h (3 Bft) 100,00 %
17.03.2016 05:42 0,8 C 94 % 1026,1 hPa 0,0 l/m 11,2 km/h (2 Bft) O-NO 69 0 min 0,000 mm 0,0 UV-I 0 W/m -0,1 C -3,5 C 16,1 km/h (3 Bft) 100,00 %
17.03.2016 05:43 0,8 C 94 % 1026,1 hPa 0,0 l/m 10,0 km/h (2 Bft) O-NO 72 0 min 0,000 mm 0,0 UV-I 0 W/m -0,1 C -2,6 C 12,9 km/h (3 Bft) 100,00 %
17.03.2016 05:44 0,8 C 94 % 1026,1 hPa 0,0 l/m 11,3 km/h (2 Bft) O-NO 77 0 min 0,000 mm 0,0 UV-I 0 W/m -0,1 C -3,6 C 14,5 km/h (3 Bft) 96,30 %
17.03.2016 05:45 0,8 C 94 % 1026,1 hPa 0,0 l/m 10,1 km/h (2 Bft) O-NO 69 0 min 0,000 mm 0,0 UV-I 0 W/m -0,1 C -2,6 C 14,5 km/h (3 Bft) 100,00 %
17.03.2016 05:46 0,8 C 94 % 1026,1 hPa 0,0 l/m 10,5 km/h (2 Bft) O-NO 71 0 min 0,000 mm 0,0 UV-I 0 W/m -0,1 C -3,0 C 12,9 km/h (3 Bft) 100,00 %
17.03.2016 05:47 0,8 C 94 % 1026,1 hPa 0,0 l/m 8,9 km/h (2 Bft) O-NO 77 0 min 0,000 mm 0,0 UV-I 0 W/m -0,1 C -1,6 C 12,9 km/h (3 Bft) 100,00 %
17.03.2016 05:48 0,8 C 94 % 1026,1 hPa 0,0 l/m 7,4 km/h (2 Bft) NO 46 0 min 0,000 mm 0,0 UV-I 0 W/m -0,1 C -0,2 C 11,3 km/h (2 Bft) 100,00 %
17.03.2016 05:49 0,8 C 94 % 1026,1 hPa 0,0 l/m 8,0 km/h (2 Bft) O 80 0 min 0,000 mm 0,0 UV-I 0 W/m -0,1 C -0,8 C 12,9 km/h (3 Bft) 100,00 %
17.03.2016 05:50 0,8 C 94 % 1026,1 hPa 0,0 l/m 7,1 km/h (2 Bft) O-NO 58 0 min 0,000 mm 0,0 UV-I 0 W/m -0,1 C 0,1 C 12,9 km/h (3 Bft) 100,00 %
17.03.2016 05:51 0,8 C 94 % 1026,1 hPa 0,0 l/m 10,9 km/h (2 Bft) O-NO 71 0 min 0,000 mm 0,0 UV-I 0 W/m -0,1 C -3,3 C 14,5 km/h (3 Bft) 96,15 %
17.03.2016 05:52 0,8 C 94 % 1026,1 hPa 0,0 l/m 8,8 km/h (2 Bft) O-NO 59 0 min 0,000 mm 0,0 UV-I 0 W/m -0,1 C -1,5 C 12,9 km/h (3 Bft) 100,00 %
17.03.2016 05:53 0,8 C 94 % 1026,1 hPa 0,0 l/m 11,5 km/h (2 Bft) O-NO 65 0 min 0,000 mm 0,0 UV-I 0 W/m -0,1 C -3,7 C 17,7 km/h (3 Bft) 100,00 %
17.03.2016 05:54 0,8 C 94 % 1026,0 hPa 0,0 l/m 11,1 km/h (2 Bft) NO 53 0 min 0,000 mm 0,0 UV-I 0 W/m -0,1 C -3,4 C 16,1 km/h (3 Bft) 100,00 %
17.03.2016 05:55 0,8 C 94 % 1026,1 hPa 0,0 l/m 9,8 km/h (2 Bft) O-NO 71 0 min 0,000 mm 0,0 UV-I 0 W/m -0,1 C -2,4 C 14,5 km/h (3 Bft) 100,00 %
17.03.2016 05:56 0,8 C 94 % 1026,1 hPa 0,0 l/m 12,3 km/h (3 Bft) O-NO 71 0 min 0,000 mm 0,0 UV-I 0 W/m -0,1 C -4,3 C 17,7 km/h (3 Bft) 100,00 %
17.03.2016 05:57 0,8 C 94 % 1026,1 hPa 0,0 l/m 10,3 km/h (2 Bft) O-NO 62 0 min 0,000 mm 0,0 UV-I 0 W/m -0,1 C -2,8 C 14,5 km/h (3 Bft) 100,00 %
17.03.2016 05:58 0,8 C 94 % 1026,1 hPa 0,0 l/m 13,2 km/h (3 Bft) O-NO 61 0 min 0,000 mm 0,0 UV-I 0 W/m -0,1 C -4,9 C 22,5 km/h (4 Bft) 90,91 %
17.03.2016 05:59 0,8 C 94 % 1026,0 hPa 0,0 l/m 14,9 km/h (3 Bft) O-NO 76 0 min 0,000 mm 0,0 UV-I 0 W/m -0,1 C -6,0 C 17,7 km/h (3 Bft) 100,00 %
17.03.2016 06:00 0,8 C 94 % 1026,0 hPa 0,0 l/m 11,6 km/h (2 Bft) NO 52 0 min 0,000 mm 0,0 UV-I 0 W/m -0,1 C -3,8 C 16,1 km/h (3 Bft) 96,55 %
17.03.2016 06:01 0,8 C 94 % 1026,1 hPa 0,0 l/m 14,8 km/h (3 Bft) O-NO 71 0 min 0,000 mm 0,0 UV-I 0 W/m -0,1 C -5,9 C 17,7 km/h (3 Bft) 100,00 %
17.03.2016 06:02 0,8 C 94 % 1026,1 hPa 0,0 l/m 12,3 km/h (3 Bft) O-NO 62 0 min 0,000 mm 0,0 UV-I 0 W/m -0,1 C -4,3 C 16,1 km/h (3 Bft) 100,00 %
17.03.2016 06:03 0,8 C 94 % 1026,1 hPa 0,0 l/m 8,7 km/h (2 Bft) O-NO 74 0 min 0,000 mm 0,0 UV-I 0 W/m -0,1 C -1,5 C 17,7 km/h (3 Bft) 100,00 %
17.03.2016 06:04 0,8 C 94 % 1026,1 hPa 0,0 l/m 12,5 km/h (3 Bft) NO 53 0 min 0,000 mm 0,0 UV-I 0 W/m -0,1 C -4,4 C 19,3 km/h (3 Bft) 100,00 %
17.03.2016 06:05 0,8 C 94 % 1026,1 hPa 0,0 l/m 11,5 km/h (2 Bft) O-NO 62 0 min 0,000 mm 0,0 UV-I 0 W/m -0,1 C -3,7 C 17,7 km/h (3 Bft) 96,67 %
17.03.2016 06:06 0,8 C 94 % 1026,1 hPa 0,0 l/m 11,3 km/h (2 Bft) O-NO 63 0 min 0,000 mm 0,0 UV-I 0 W/m -0,1 C -3,6 C 14,5 km/h (3 Bft) 95,65 %
17.03.2016 06:07 0,8 C 94 % 1026,1 hPa 0,0 l/m 10,9 km/h (2 Bft) NO 46 0 min 0,000 mm 0,0 UV-I 0 W/m -0,1 C -3,3 C 14,5 km/h (3 Bft) 100,00 %
17.03.2016 06:08 0,8 C 94 % 1026,1 hPa 0,0 l/m 11,3 km/h (2 Bft) O-NO 57 0 min 0,000 mm 0,0 UV-I 0 W/m -0,1 C -3,6 C 16,1 km/h (3 Bft) 96,15 %
17.03.2016 06:09 0,8 C 94 % 1026,1 hPa 0,0 l/m 10,1 km/h (2 Bft) O-NO 57 0 min 0,000 mm 0,0 UV-I 0 W/m -0,1 C -2,6 C 16,1 km/h (3 Bft) 100,00 %
17.03.2016 06:10 0,8 C 94 % 1026,1 hPa 0,0 l/m 9,1 km/h (2 Bft) O 82 0 min 0,000 mm 0,0 UV-I 3 W/m -0,1 C -1,8 C 12,9 km/h (3 Bft) 96,15 %
17.03.2016 06:11 0,8 C 94 % 1026,1 hPa 0,0 l/m 10,2 km/h (2 Bft) NO 51 0 min 0,000 mm 0,0 UV-I 5 W/m -0,1 C -2,7 C 14,5 km/h (3 Bft) 100,00 %
17.03.2016 06:12 0,8 C 94 % 1026,1 hPa 0,0 l/m 10,6 km/h (2 Bft) O 79 0 min 0,000 mm 0,0 UV-I 5 W/m -0,1 C -3,0 C 16,1 km/h (3 Bft) 96,55 %
17.03.2016 06:13 0,8 C 94 % 1026,1 hPa 0,0 l/m 8,4 km/h (2 Bft) O 80 0 min 0,000 mm 0,0 UV-I 5 W/m -0,1 C -1,2 C 11,3 km/h (2 Bft) 100,00 %
17.03.2016 06:14 0,8 C 94 % 1026,0 hPa 0,0 l/m 8,3 km/h (2 Bft) O-NO 65 0 min 0,000 mm 0,0 UV-I 5 W/m -0,1 C -1,1 C 12,9 km/h (3 Bft) 96,30 %
17.03.2016 06:15 0,8 C 94 % 1026,1 hPa 0,0 l/m 9,6 km/h (2 Bft) O-NO 68 0 min 0,000 mm 0,0 UV-I 5 W/m -0,1 C -2,2 C 14,5 km/h (3 Bft) 100,00 %
17.03.2016 06:16 0,8 C 94 % 1026,0 hPa 0,0 l/m 10,0 km/h (2 Bft) NO 52 0 min 0,000 mm 0,0 UV-I 6 W/m -0,1 C -2,6 C 12,9 km/h (3 Bft) 97,44 %
17.03.2016 06:17 0,8 C 94 % 1026,0 hPa 0,0 l/m 10,6 km/h (2 Bft) O-NO 71 0 min 0,000 mm 0,0 UV-I 7 W/m -0,1 C -3,0 C 14,5 km/h (3 Bft) 95,65 %
17.03.2016 06:18 0,8 C 94 % 1026,0 hPa 0,0 l/m 8,4 km/h (2 Bft) O-NO 71 0 min 0,000 mm 0,0 UV-I 7 W/m -0,1 C -1,2 C 11,3 km/h (2 Bft) 100,00 %
17.03.2016 06:19 0,8 C 94 % 1026,0 hPa 0,0 l/m 7,0 km/h (2 Bft) O-NO 63 0 min 0,000 mm 0,0 UV-I 7 W/m -0,1 C 0,2 C 9,7 km/h (2 Bft) 95,65 %
17.03.2016 06:20 0,8 C 94 % 1026,0 hPa 0,0 l/m 9,4 km/h (2 Bft) O-NO 75 0 min 0,000 mm 0,0 UV-I 9 W/m -0,1 C -2,1 C 16,1 km/h (3 Bft) 95,83 %
17.03.2016 06:21 0,8 C 94 % 1026,0 hPa 0,0 l/m 7,0 km/h (2 Bft) O-NO 65 0 min 0,000 mm 0,0 UV-I 9 W/m -0,1 C 0,2 C 8,0 km/h (2 Bft) 100,00 %
17.03.2016 06:22 0,8 C 94 % 1026,0 hPa 0,0 l/m 9,8 km/h (2 Bft) NO 53 0 min 0,000 mm 0,0 UV-I 9 W/m -0,1 C -2,4 C 16,1 km/h (3 Bft) 100,00 %
17.03.2016 06:23 0,8 C 94 % 1026,0 hPa 0,0 l/m 9,6 km/h (2 Bft) O-NO 64 1 min 0,000 mm 0,0 UV-I 11 W/m -0,1 C -2,2 C 12,9 km/h (3 Bft) 96,15 %
17.03.2016 06:24 0,8 C 94 % 1026,0 hPa 0,0 l/m 9,1 km/h (2 Bft) O 82 0 min 0,000 mm 0,0 UV-I 11 W/m -0,1 C -1,8 C 12,9 km/h (3 Bft) 96,30 %
17.03.2016 06:25 0,8 C 94 % 1026,0 hPa 0,0 l/m 10,1 km/h (2 Bft) O-NO 61 0 min 0,000 mm 0,0 UV-I 12 W/m -0,1 C -2,6 C 12,9 km/h (3 Bft) 100,00 %
17.03.2016 06:26 0,8 C 94 % 1026,0 hPa 0,0 l/m 7,4 km/h (2 Bft) O-NO 78 0 min 0,000 mm 0,0 UV-I 12 W/m -0,1 C -0,2 C 12,9 km/h (3 Bft) 91,67 %
17.03.2016 06:27 0,8 C 94 % 1026,0 hPa 0,0 l/m 6,3 km/h (2 Bft) O-NO 76 0 min 0,000 mm 0,0 UV-I 13 W/m -0,1 C 0,8 C 8,0 km/h (2 Bft) 100,00 %
17.03.2016 06:28 0,8 C 94 % 1026,0 hPa 0,0 l/m 7,2 km/h (2 Bft) O-NO 74 0 min 0,000 mm 0,0 UV-I 14 W/m -0,1 C -0,0 C 11,3 km/h (2 Bft) 93,33 %
17.03.2016 06:29 0,8 C 94 % 1026,0 hPa 0,0 l/m 8,3 km/h (2 Bft) O-NO 73 0 min 0,000 mm 0,0 UV-I 14 W/m -0,1 C -1,1 C 11,3 km/h (2 Bft) 95,65 %
17.03.2016 06:30 0,8 C 94 % 1026,1 hPa 0,0 l/m 5,1 km/h (1 Bft) O-NO 68 0 min 0,000 mm 0,0 UV-I 14 W/m -0,1 C 0,8 C 6,4 km/h (2 Bft) 100,00 %
17.03.2016 06:31 0,7 C 94 % 1026,1 hPa 0,0 l/m 6,0 km/h (2 Bft) O-NO 68 0 min 0,000 mm 0,0 UV-I 16 W/m -0,2 C 0,7 C 8,0 km/h (2 Bft) 91,30 %
17.03.2016 06:32 0,7 C 94 % 1026,1 hPa 0,0 l/m 5,9 km/h (2 Bft) O-NO 69 0 min 0,000 mm 0,0 UV-I 16 W/m -0,2 C 0,7 C 9,7 km/h (2 Bft) 100,00 %
17.03.2016 06:33 0,7 C 94 % 1026,1 hPa 0,0 l/m 6,9 km/h (2 Bft) O-NO 76 0 min 0,000 mm 0,0 UV-I 16 W/m -0,2 C 0,2 C 11,3 km/h (2 Bft) 95,83 %
17.03.2016 06:34 0,7 C 94 % 1026,1 hPa 0,0 l/m 6,5 km/h (2 Bft) O 80 0 min 0,000 mm 0,0 UV-I 17 W/m -0,2 C 0,6 C 8,0 km/h (2 Bft) 100,00 %
17.03.2016 06:35 0,7 C 94 % 1026,1 hPa 0,0 l/m 6,4 km/h (2 Bft) O-NO 71 0 min 0,000 mm 0,0 UV-I 18 W/m -0,2 C 0,7 C 8,0 km/h (2 Bft) 96,30 %
17.03.2016 06:36 0,7 C 94 % 1026,1 hPa 0,0 l/m 5,5 km/h (1 Bft) O-NO 76 0 min 0,000 mm 0,0 UV-I 18 W/m -0,2 C 0,7 C 8,0 km/h (2 Bft) 100,00 %
17.03.2016 06:37 0,7 C 94 % 1026,1 hPa 0,0 l/m 7,1 km/h (2 Bft) O-NO 63 0 min 0,000 mm 0,0 UV-I 22 W/m -0,2 C -0,0 C 9,7 km/h (2 Bft) 98,32 %
17.03.2016 06:38 0,7 C 94 % 1026,1 hPa 0,0 l/m 10,3 km/h (2 Bft) O-NO 59 0 min 0,000 mm 0,0 UV-I 22 W/m -0,2 C -2,9 C 14,5 km/h (3 Bft) 97,56 %
17.03.2016 06:39 0,7 C 94 % 1026,1 hPa 0,0 l/m 6,0 km/h (2 Bft) O-NO 66 0 min 0,000 mm 0,0 UV-I 21 W/m -0,2 C 0,7 C 8,0 km/h (2 Bft) 96,30 %
17.03.2016 06:40 0,7 C 94 % 1026,1 hPa 0,0 l/m 7,4 km/h (2 Bft) O-NO 61 0 min 0,000 mm 0,0 UV-I 21 W/m -0,2 C -0,3 C 11,3 km/h (2 Bft) 100,00 %
17.03.2016 06:41 0,7 C 94 % 1026,1 hPa 0,0 l/m 8,0 km/h (2 Bft) O-NO 73 0 min 0,000 mm 0,0 UV-I 24 W/m -0,2 C -0,9 C 12,9 km/h (3 Bft) 100,00 %
17.03.2016 06:42 0,7 C 94 % 1026,1 hPa 0,0 l/m 9,5 km/h (2 Bft) O-NO 66 0 min 0,000 mm 0,0 UV-I 24 W/m -0,2 C -2,3 C 12,9 km/h (3 Bft) 96,15 %
17.03.2016 06:43 0,7 C 95 % 1026,1 hPa 0,0 l/m 8,9 km/h (2 Bft) O-NO 75 0 min 0,000 mm 0,0 UV-I 26 W/m -0,0 C -1,7 C 12,9 km/h (3 Bft) 96,30 %
17.03.2016 06:44 0,7 C 95 % 1026,1 hPa 0,0 l/m 6,4 km/h (2 Bft) O-NO 65 0 min 0,000 mm 0,0 UV-I 25 W/m -0,0 C 0,7 C 8,0 km/h (2 Bft) 95,65 %
17.03.2016 06:45 0,7 C 95 % 1026,1 hPa 0,0 l/m 10,4 km/h (2 Bft) O-NO 60 0 min 0,000 mm 0,0 UV-I 27 W/m -0,0 C -3,0 C 14,5 km/h (3 Bft) 100,00 %
17.03.2016 06:46 0,7 C 95 % 1026,1 hPa 0,0 l/m 11,5 km/h (2 Bft) O-NO 63 0 min 0,000 mm 0,0 UV-I 26 W/m -0,0 C -3,8 C 16,1 km/h (3 Bft) 92,31 %
17.03.2016 06:47 0,7 C 95 % 1026,1 hPa 0,0 l/m 10,9 km/h (2 Bft) O-NO 70 0 min 0,000 mm 0,0 UV-I 26 W/m -0,0 C -3,4 C 14,5 km/h (3 Bft) 95,83 %
17.03.2016 06:48 0,7 C 95 % 1026,1 hPa 0,0 l/m 7,9 km/h (2 Bft) O-NO 65 0 min 0,000 mm 0,0 UV-I 28 W/m -0,0 C -0,8 C 12,9 km/h (3 Bft) 100,00 %
17.03.2016 06:49 0,7 C 95 % 1026,1 hPa 0,0 l/m 8,4 km/h (2 Bft) O 81 0 min 0,000 mm 0,0 UV-I 29 W/m -0,0 C -1,3 C 12,9 km/h (3 Bft) 100,00 %
17.03.2016 06:50 0,7 C 95 % 1026,1 hPa 0,0 l/m 11,8 km/h (2 Bft) O-NO 64 0 min 0,000 mm 0,0 UV-I 31 W/m -0,0 C -4,1 C 17,7 km/h (3 Bft) 100,00 %
17.03.2016 06:51 0,8 C 95 % 1026,1 hPa 0,0 l/m 13,8 km/h (3 Bft) O 96 0 min 0,000 mm 0,0 UV-I 32 W/m 0,1 C -5,3 C 20,9 km/h (4 Bft) 91,67 %
17.03.2016 06:52 0,8 C 95 % 1026,0 hPa 0,0 l/m 13,4 km/h (3 Bft) NO 40 0 min 0,000 mm 0,0 UV-I 38 W/m 0,1 C -5,0 C 17,7 km/h (3 Bft) 96,30 %
17.03.2016 06:53 0,8 C 95 % 1026,0 hPa 0,0 l/m 10,0 km/h (2 Bft) O 88 0 min 0,000 mm 0,0 UV-I 33 W/m 0,1 C -2,6 C 14,5 km/h (3 Bft) 100,00 %
17.03.2016 06:54 0,8 C 95 % 1026,0 hPa 0,0 l/m 13,6 km/h (3 Bft) O-NO 76 0 min 0,000 mm 0,0 UV-I 39 W/m 0,1 C -5,2 C 16,1 km/h (3 Bft) 100,00 %
17.03.2016 06:55 0,8 C 95 % 1026,0 hPa 0,0 l/m 10,6 km/h (2 Bft) NO 52 0 min 0,000 mm 0,0 UV-I 40 W/m 0,1 C -3,0 C 14,5 km/h (3 Bft) 96,15 %
17.03.2016 06:56 0,8 C 95 % 1026,0 hPa 0,0 l/m 11,3 km/h (2 Bft) O-NO 77 0 min 0,000 mm 0,0 UV-I 43 W/m 0,1 C -3,6 C 16,1 km/h (3 Bft) 100,00 %
17.03.2016 06:57 0,8 C 94 % 1026,0 hPa 0,0 l/m 11,6 km/h (2 Bft) O-NO 58 0 min 0,000 mm 0,0 UV-I 44 W/m -0,1 C -3,8 C 14,5 km/h (3 Bft) 100,00 %
17.03.2016 06:58 0,8 C 95 % 1026,0 hPa 0,0 l/m 9,6 km/h (2 Bft) NO 50 0 min 0,000 mm 0,0 UV-I 46 W/m 0,1 C -2,2 C 12,9 km/h (3 Bft) 100,00 %
17.03.2016 06:59 0,8 C 94 % 1026,0 hPa 0,0 l/m 11,8 km/h (2 Bft) O-NO 61 0 min 0,000 mm 0,0 UV-I 55 W/m -0,1 C -3,9 C 17,7 km/h (3 Bft) 100,00 %
17.03.2016 07:00 0,8 C 94 % 1026,0 hPa 0,0 l/m 11,5 km/h (2 Bft) O 97 0 min 0,000 mm 0,0 UV-I 56 W/m -0,1 C -3,7 C 14,5 km/h (3 Bft) 100,00 %
17.03.2016 07:01 0,8 C 94 % 1026,0 hPa 0,0 l/m 10,5 km/h (2 Bft) NO 49 0 min 0,000 mm 0,0 UV-I 56 W/m -0,1 C -3,0 C 14,5 km/h (3 Bft) 100,00 %
17.03.2016 07:02 0,8 C 95 % 1026,0 hPa 0,0 l/m 11,6 km/h (2 Bft) O-NO 57 0 min 0,000 mm 0,0 UV-I 58 W/m 0,1 C -3,8 C 17,7 km/h (3 Bft) 100,00 %
17.03.2016 07:03 0,8 C 94 % 1026,1 hPa 0,0 l/m 16,1 km/h (3 Bft) O-NO 65 0 min 0,000 mm 0,0 UV-I 63 W/m -0,1 C -6,6 C 20,9 km/h (4 Bft) 100,00 %
17.03.2016 07:04 0,8 C 94 % 1026,1 hPa 0,0 l/m 11,0 km/h (2 Bft) O-NO 72 0 min 0,000 mm 0,0 UV-I 61 W/m -0,1 C -3,3 C 16,1 km/h (3 Bft) 100,00 %
17.03.2016 07:05 0,9 C 95 % 1026,1 hPa 0,0 l/m 13,2 km/h (3 Bft) O-NO 73 0 min 0,000 mm 0,0 UV-I 50 W/m 0,2 C -4,8 C 17,7 km/h (3 Bft) 100,00 %
17.03.2016 07:06 0,9 C 95 % 1026,1 hPa 0,0 l/m 14,2 km/h (3 Bft) O-NO 66 0 min 0,000 mm 0,0 UV-I 52 W/m 0,2 C -5,4 C 16,1 km/h (3 Bft) 100,00 %
17.03.2016 07:07 0,8 C 95 % 1026,1 hPa 0,0 l/m 11,4 km/h (2 Bft) O-NO 64 0 min 0,000 mm 0,0 UV-I 53 W/m 0,1 C -3,6 C 16,1 km/h (3 Bft) 100,00 %
17.03.2016 07:08 0,9 C 95 % 1026,1 hPa 0,0 l/m 10,0 km/h (2 Bft) O-NO 65 0 min 0,000 mm 0,0 UV-I 51 W/m 0,2 C -2,5 C 16,1 km/h (3 Bft) 100,00 %
17.03.2016 07:09 0,9 C 95 % 1026,1 hPa 0,0 l/m 12,9 km/h (3 Bft) O-NO 77 0 min 0,000 mm 0,0 UV-I 49 W/m 0,2 C -4,6 C 16,1 km/h (3 Bft) 100,00 %
17.03.2016 07:10 0,9 C 95 % 1026,1 hPa 0,0 l/m 13,3 km/h (3 Bft) O 82 0 min 0,000 mm 0,0 UV-I 59 W/m 0,2 C -4,8 C 16,1 km/h (3 Bft) 100,00 %
17.03.2016 07:11 0,9 C 95 % 1026,1 hPa 0,0 l/m 9,1 km/h (2 Bft) O-NO 76 0 min 0,000 mm 0,0 UV-I 57 W/m 0,2 C -1,7 C 12,9 km/h (3 Bft) 96,15 %
17.03.2016 07:12 0,9 C 95 % 1026,1 hPa 0,0 l/m 7,4 km/h (2 Bft) O-NO 76 0 min 0,000 mm 0,0 UV-I 53 W/m 0,2 C -0,1 C 11,3 km/h (2 Bft) 100,00 %
17.03.2016 07:13 0,9 C 95 % 1026,1 hPa 0,0 l/m 9,3 km/h (2 Bft) O-NO 76 0 min 0,000 mm 0,0 UV-I 56 W/m 0,2 C -1,9 C 14,5 km/h (3 Bft) 100,00 %
17.03.2016 07:14 0,9 C 95 % 1026,2 hPa 0,0 l/m 9,9 km/h (2 Bft) O-NO 77 0 min 0,000 mm 0,0 UV-I 61 W/m 0,2 C -2,4 C 17,7 km/h (3 Bft) 100,00 %
17.03.2016 07:15 0,9 C 95 % 1026,2 hPa 0,0 l/m 10,9 km/h (2 Bft) NO 44 0 min 0,000 mm 0,0 UV-I 62 W/m 0,2 C -3,2 C 16,1 km/h (3 Bft) 100,00 %
17.03.2016 07:16 0,9 C 95 % 1026,1 hPa 0,0 l/m 10,9 km/h (2 Bft) NO 53 0 min 0,000 mm 0,0 UV-I 63 W/m 0,2 C -3,2 C 14,5 km/h (3 Bft) 100,00 %
17.03.2016 07:17 0,9 C 95 % 1026,2 hPa 0,0 l/m 11,0 km/h (2 Bft) O-NO 59 0 min 0,000 mm 0,0 UV-I 66 W/m 0,2 C -3,2 C 14,5 km/h (3 Bft) 100,00 %
17.03.2016 07:18 0,9 C 95 % 1026,1 hPa 0,0 l/m 11,7 km/h (2 Bft) O-NO 68 0 min 0,000 mm 0,0 UV-I 64 W/m 0,2 C -3,8 C 17,7 km/h (3 Bft) 100,00 %
17.03.2016 07:19 0,9 C 95 % 1026,1 hPa 0,0 l/m 12,5 km/h (3 Bft) O-NO 74 0 min 0,000 mm 0,0 UV-I 63 W/m 0,2 C -4,3 C 16,1 km/h (3 Bft) 100,00 %
17.03.2016 07:20 0,9 C 95 % 1026,1 hPa 0,0 l/m 9,6 km/h (2 Bft) O-NO 58 0 min 0,000 mm 0,0 UV-I 63 W/m 0,2 C -2,1 C 16,1 km/h (3 Bft) 100,00 %
17.03.2016 07:21 0,8 C 95 % 1026,1 hPa 0,0 l/m 11,1 km/h (2 Bft) O-NO 66 0 min 0,000 mm 0,0 UV-I 64 W/m 0,1 C -3,4 C 14,5 km/h (3 Bft) 100,00 %
17.03.2016 07:22 0,9 C 95 % 1026,2 hPa 0,0 l/m 8,4 km/h (2 Bft) O-NO 60 0 min 0,000 mm 0,0 UV-I 62 W/m 0,2 C -1,1 C 9,7 km/h (2 Bft) 96,55 %
17.03.2016 07:23 0,9 C 94 % 1026,2 hPa 0,0 l/m 8,9 km/h (2 Bft) NO 47 0 min 0,000 mm 0,0 UV-I 58 W/m 0,0 C -1,5 C 14,5 km/h (3 Bft) 93,33 %
17.03.2016 07:24 0,9 C 94 % 1026,2 hPa 0,0 l/m 8,3 km/h (2 Bft) NO 53 0 min 0,000 mm 0,0 UV-I 63 W/m 0,0 C -1,0 C 12,9 km/h (3 Bft) 100,00 %
17.03.2016 07:25 0,9 C 94 % 1026,3 hPa 0,0 l/m 9,1 km/h (2 Bft) O-NO 59 0 min 0,000 mm 0,0 UV-I 61 W/m 0,0 C -1,7 C 11,3 km/h (2 Bft) 100,00 %
17.03.2016 07:26 0,9 C 94 % 1026,2 hPa 0,0 l/m 7,2 km/h (2 Bft) O 80 0 min 0,000 mm 0,0 UV-I 61 W/m 0,0 C 0,1 C 9,7 km/h (2 Bft) 100,00 %
17.03.2016 07:27 0,9 C 94 % 1026,2 hPa 0,0 l/m 8,7 km/h (2 Bft) O-NO 69 0 min 0,000 mm 0,0 UV-I 60 W/m 0,0 C -1,3 C 11,3 km/h (2 Bft) 100,00 %
17.03.2016 07:28 0,8 C 95 % 1026,2 hPa 0,0 l/m 8,1 km/h (2 Bft) O 84 0 min 0,000 mm 0,0 UV-I 63 W/m 0,1 C -0,9 C 9,7 km/h (2 Bft) 100,00 %
17.03.2016 07:29 0,9 C 95 % 1026,2 hPa 0,0 l/m 7,2 km/h (2 Bft) O 80 0 min 0,000 mm 0,0 UV-I 62 W/m 0,2 C 0,1 C 8,0 km/h (2 Bft) 100,00 %
17.03.2016 07:30 0,9 C 95 % 1026,2 hPa 0,0 l/m 9,9 km/h (2 Bft) NO 54 0 min 0,000 mm 0,0 UV-I 64 W/m 0,2 C -2,4 C 16,1 km/h (3 Bft) 100,00 %
17.03.2016 07:31 0,9 C 95 % 1026,2 hPa 0,0 l/m 8,9 km/h (2 Bft) NO 40 0 min 0,000 mm 0,0 UV-I 64 W/m 0,2 C -1,5 C 12,9 km/h (3 Bft) 100,00 %
17.03.2016 07:32 0,9 C 95 % 1026,2 hPa 0,0 l/m 6,1 km/h (2 Bft) NO 45 0 min 0,000 mm 0,0 UV-I 71 W/m 0,2 C 0,9 C 8,0 km/h (2 Bft) 100,00 %
17.03.2016 07:33 0,9 C 95 % 1026,2 hPa 0,0 l/m 6,1 km/h (2 Bft) O-NO 67 0 min 0,000 mm 0,0 UV-I 75 W/m 0,2 C 0,9 C 8,0 km/h (2 Bft) 100,00 %
17.03.2016 07:34 0,9 C 95 % 1026,2 hPa 0,0 l/m 6,1 km/h (2 Bft) NO 55 0 min 0,000 mm 0,0 UV-I 74 W/m 0,2 C 0,9 C 8,0 km/h (2 Bft) 100,00 %
17.03.2016 07:35 0,9 C 95 % 1026,1 hPa 0,0 l/m 6,2 km/h (2 Bft) O-NO 60 0 min 0,000 mm 0,0 UV-I 72 W/m 0,2 C 0,9 C 8,0 km/h (2 Bft) 97,37 %
17.03.2016 07:36 0,9 C 95 % 1026,1 hPa 0,0 l/m 7,8 km/h (2 Bft) NO 50 0 min 0,000 mm 0,0 UV-I 76 W/m 0,2 C -0,5 C 12,9 km/h (3 Bft) 100,00 %
17.03.2016 07:37 0,9 C 95 % 1026,2 hPa 0,0 l/m 8,3 km/h (2 Bft) NO 52 0 min 0,000 mm 0,0 UV-I 78 W/m 0,2 C -1,0 C 11,3 km/h (2 Bft) 98,49 %
17.03.2016 07:38 0,9 C 95 % 1026,1 hPa 0,0 l/m 11,4 km/h (2 Bft) O-NO 64 0 min 0,000 mm 0,0 UV-I 76 W/m 0,2 C -3,5 C 14,5 km/h (3 Bft) 100,00 %
17.03.2016 07:39 0,9 C 95 % 1026,2 hPa 0,0 l/m 12,0 km/h (2 Bft) NO 55 0 min 0,000 mm 0,0 UV-I 74 W/m 0,2 C -4,0 C 14,5 km/h (3 Bft) 96,55 %
17.03.2016 07:40 0,9 C 95 % 1026,2 hPa 0,0 l/m 8,7 km/h (2 Bft) NO 55 0 min 0,000 mm 0,0 UV-I 85 W/m 0,2 C -1,3 C 12,9 km/h (3 Bft) 100,00 %
17.03.2016 07:41 0,9 C 95 % 1026,2 hPa 0,0 l/m 7,7 km/h (2 Bft) O-NO 57 0 min 0,000 mm 0,0 UV-I 84 W/m 0,2 C -0,4 C 9,7 km/h (2 Bft) 100,00 %
17.03.2016 07:42 0,9 C 95 % 1026,2 hPa 0,0 l/m 7,2 km/h (2 Bft) O-NO 65 0 min 0,000 mm 0,0 UV-I 83 W/m 0,2 C 0,1 C 12,9 km/h (3 Bft) 100,00 %
17.03.2016 07:43 0,9 C 95 % 1026,2 hPa 0,0 l/m 10,8 km/h (2 Bft) O-NO 73 0 min 0,000 mm 0,0 UV-I 76 W/m 0,2 C -3,1 C 14,5 km/h (3 Bft) 100,00 %
17.03.2016 07:44 0,9 C 95 % 1026,2 hPa 0,0 l/m 6,7 km/h (2 Bft) O-NO 58 0 min 0,000 mm 0,0 UV-I 71 W/m 0,2 C 0,6 C 9,7 km/h (2 Bft) 100,00 %
17.03.2016 07:45 0,9 C 95 % 1026,2 hPa 0,0 l/m 9,4 km/h (2 Bft) N-NO 32 0 min 0,000 mm 0,0 UV-I 72 W/m 0,2 C -2,0 C 12,9 km/h (3 Bft) 100,00 %
17.03.2016 07:46 0,9 C 95 % 1026,3 hPa 0,0 l/m 7,2 km/h (2 Bft) NO 43 0 min 0,000 mm 0,0 UV-I 73 W/m 0,2 C 0,1 C 9,7 km/h (2 Bft) 100,00 %
17.03.2016 07:47 0,9 C 95 % 1026,3 hPa 0,0 l/m 6,9 km/h (2 Bft) NO 46 0 min 0,000 mm 0,0 UV-I 72 W/m 0,2 C 0,4 C 11,3 km/h (2 Bft) 100,00 %
17.03.2016 07:48 1,0 C 95 % 1026,3 hPa 0,0 l/m 9,0 km/h (2 Bft) O-NO 63 0 min 0,000 mm 0,0 UV-I 78 W/m 0,3 C -1,5 C 11,3 km/h (2 Bft) 100,00 %
17.03.2016 07:49 1,0 C 95 % 1026,3 hPa 0,0 l/m 11,3 km/h (2 Bft) NO 55 0 min 0,000 mm 0,0 UV-I 73 W/m 0,3 C -3,3 C 14,5 km/h (3 Bft) 100,00 %
17.03.2016 07:50 1,0 C 95 % 1026,3 hPa 0,0 l/m 12,9 km/h (3 Bft) N-NO 32 0 min 0,000 mm 0,0 UV-I 75 W/m 0,3 C -4,5 C 16,1 km/h (3 Bft) 100,00 %
17.03.2016 07:51 1,0 C 95 % 1026,3 hPa 0,0 l/m 12,6 km/h (3 Bft) NO 55 0 min 0,000 mm 0,0 UV-I 79 W/m 0,3 C -4,3 C 16,1 km/h (3 Bft) 100,00 %
17.03.2016 07:52 1,0 C 95 % 1026,3 hPa 0,0 l/m 14,1 km/h (3 Bft) NO 55 0 min 0,000 mm 0,0 UV-I 79 W/m 0,3 C -5,2 C 16,1 km/h (3 Bft) 100,00 %
17.03.2016 07:55 1,0 C 95 % 1026,3 hPa 0,0 l/m 13,7 km/h (3 Bft) O-NO 63 0 min 0,000 mm 0,0 UV-I 88 W/m 0,3 C -5,0 C 17,7 km/h (3 Bft) 100,00 %
17.03.2016 07:56 1,0 C 95 % 1026,3 hPa 0,0 l/m 13,9 km/h (3 Bft) NO 42 0 min 0,000 mm 0,0 UV-I 92 W/m 0,3 C -5,1 C 17,7 km/h (3 Bft) 100,00 %
17.03.2016 07:57 1,0 C 95 % 1026,3 hPa 0,0 l/m 13,7 km/h (3 Bft) NO 55 0 min 0,000 mm 0,0 UV-I 87 W/m 0,3 C -5,0 C 17,7 km/h (3 Bft) 100,00 %
17.03.2016 07:58 1,0 C 95 % 1026,3 hPa 0,0 l/m 13,3 km/h (3 Bft) NO 48 0 min 0,000 mm 0,0 UV-I 87 W/m 0,3 C -4,7 C 17,7 km/h (3 Bft) 100,00 %
17.03.2016 07:59 1,0 C 95 % 1026,3 hPa 0,0 l/m 14,5 km/h (3 Bft) O-NO 63 0 min 0,000 mm 0,0 UV-I 90 W/m 0,3 C -5,5 C 17,7 km/h (3 Bft) 100,00 %
17.03.2016 08:00 1,0 C 95 % 1026,3 hPa 0,0 l/m 12,6 km/h (3 Bft) O-NO 65 0 min 0,000 mm 0,0 UV-I 94 W/m 0,3 C -4,3 C 16,1 km/h (3 Bft) 100,00 %
17.03.2016 08:01 1,0 C 95 % 1026,3 hPa 0,0 l/m 15,8 km/h (3 Bft) O-NO 61 0 min 0,025 mm 0,0 UV-I 102 W/m 0,3 C -6,2 C 22,5 km/h (4 Bft) 100,00 %
17.03.2016 08:02 1,1 C 95 % 1026,3 hPa 0,0 l/m 17,9 km/h (3 Bft) NO 51 0 min 0,000 mm 0,0 UV-I 106 W/m 0,4 C -7,2 C 22,5 km/h (4 Bft) 100,00 %
17.03.2016 08:03 1,1 C 95 % 1026,3 hPa 0,0 l/m 16,7 km/h (3 Bft) NO 53 0 min 0,000 mm 0,0 UV-I 99 W/m 0,4 C -6,6 C 22,5 km/h (4 Bft) 100,00 %
17.03.2016 08:04 1,1 C 95 % 1026,4 hPa 0,0 l/m 16,9 km/h (3 Bft) O-NO 70 0 min 0,000 mm 0,0 UV-I 100 W/m 0,4 C -6,7 C 20,9 km/h (4 Bft) 100,00 %
17.03.2016 08:05 1,1 C 95 % 1026,4 hPa 0,0 l/m 16,9 km/h (3 Bft) O-NO 67 0 min 0,000 mm 0,0 UV-I 96 W/m 0,4 C -6,7 C 20,9 km/h (4 Bft) 100,00 %
17.03.2016 08:06 1,1 C 94 % 1026,3 hPa 0,0 l/m 14,9 km/h (3 Bft) NO 50 0 min 0,000 mm 0,0 UV-I 95 W/m 0,2 C -5,6 C 19,3 km/h (3 Bft) 100,00 %
17.03.2016 08:07 1,1 C 94 % 1026,3 hPa 0,0 l/m 14,8 km/h (3 Bft) O-NO 77 0 min 0,000 mm 0,0 UV-I 100 W/m 0,2 C -5,5 C 19,3 km/h (3 Bft) 100,00 %
17.03.2016 08:08 1,1 C 94 % 1026,4 hPa 0,0 l/m 11,3 km/h (2 Bft) O 86 0 min 0,000 mm 0,0 UV-I 100 W/m 0,2 C -3,2 C 16,1 km/h (3 Bft) 95,65 %
17.03.2016 08:09 1,1 C 94 % 1026,4 hPa 0,0 l/m 13,0 km/h (3 Bft) O 91 0 min 0,000 mm 0,0 UV-I 97 W/m 0,2 C -4,4 C 17,7 km/h (3 Bft) 100,00 %
17.03.2016 08:10 1,1 C 95 % 1026,4 hPa 0,0 l/m 13,2 km/h (3 Bft) O-NO 73 0 min 0,000 mm 0,0 UV-I 98 W/m 0,4 C -4,5 C 17,7 km/h (3 Bft) 96,88 %
17.03.2016 08:11 1,1 C 94 % 1026,4 hPa 0,0 l/m 14,6 km/h (3 Bft) O-NO 58 0 min 0,000 mm 0,0 UV-I 103 W/m 0,2 C -5,4 C 17,7 km/h (3 Bft) 96,30 %
17.03.2016 08:12 1,1 C 94 % 1026,4 hPa 0,0 l/m 14,2 km/h (3 Bft) O-NO 57 0 min 0,000 mm 0,0 UV-I 106 W/m 0,2 C -5,2 C 19,3 km/h (3 Bft) 94,44 %
17.03.2016 08:13 1,2 C 94 % 1026,4 hPa 0,0 l/m 10,5 km/h (2 Bft) O-NO 73 0 min 0,000 mm 0,0 UV-I 110 W/m 0,3 C -2,5 C 16,1 km/h (3 Bft) 100,00 %
17.03.2016 08:14 1,2 C 94 % 1026,4 hPa 0,0 l/m 14,1 km/h (3 Bft) O-NO 76 0 min 0,000 mm 0,0 UV-I 124 W/m 0,3 C -5,0 C 20,9 km/h (4 Bft) 95,83 %
17.03.2016 08:15 1,2 C 94 % 1026,4 hPa 0,0 l/m 13,0 km/h (3 Bft) O-NO 62 0 min 0,000 mm 0,0 UV-I 112 W/m 0,3 C -4,3 C 16,1 km/h (3 Bft) 96,15 %
17.03.2016 08:16 1,2 C 94 % 1026,4 hPa 0,0 l/m 16,5 km/h (3 Bft) O 80 0 min 0,000 mm 0,0 UV-I 115 W/m 0,3 C -6,4 C 20,9 km/h (4 Bft) 100,00 %
17.03.2016 08:17 1,2 C 94 % 1026,4 hPa 0,0 l/m 16,1 km/h (3 Bft) O-NO 71 0 min 0,000 mm 0,0 UV-I 148 W/m 0,3 C -6,1 C 19,3 km/h (3 Bft) 96,55 %
17.03.2016 08:18 1,2 C 94 % 1026,4 hPa 0,0 l/m 17,9 km/h (3 Bft) O 92 0 min 0,000 mm 0,0 UV-I 142 W/m 0,3 C -7,1 C 20,9 km/h (4 Bft) 100,00 %
17.03.2016 08:19 1,2 C 94 % 1026,4 hPa 0,0 l/m 15,3 km/h (3 Bft) O-SO 107 0 min 0,000 mm 0,0 UV-I 141 W/m 0,3 C -5,7 C 20,9 km/h (4 Bft) 95,65 %
17.03.2016 08:20 1,2 C 94 % 1026,4 hPa 0,0 l/m 17,7 km/h (3 Bft) O-NO 67 0 min 0,000 mm 0,0 UV-I 154 W/m 0,3 C -7,0 C 22,5 km/h (4 Bft) 96,30 %
17.03.2016 08:21 1,3 C 94 % 1026,4 hPa 0,0 l/m 17,4 km/h (3 Bft) O 86 0 min 0,000 mm 0,0 UV-I 152 W/m 0,4 C -6,7 C 19,3 km/h (3 Bft) 95,65 %
17.03.2016 08:22 1,3 C 94 % 1026,4 hPa 0,0 l/m 18,4 km/h (3 Bft) O-NO 70 0 min 0,000 mm 0,0 UV-I 154 W/m 0,4 C -7,2 C 22,5 km/h (4 Bft) 95,83 %
17.03.2016 08:23 1,3 C 94 % 1026,4 hPa 0,0 l/m 16,0 km/h (3 Bft) NO 53 0 min 0,000 mm 0,0 UV-I 145 W/m 0,4 C -6,0 C 20,9 km/h (4 Bft) 92,86 %
17.03.2016 08:24 1,3 C 94 % 1026,4 hPa 0,0 l/m 13,8 km/h (3 Bft) O 96 0 min 0,000 mm 0,0 UV-I 140 W/m 0,4 C -4,7 C 20,9 km/h (4 Bft) 92,86 %
17.03.2016 08:25 1,3 C 94 % 1026,4 hPa 0,0 l/m 20,1 km/h (4 Bft) O-NO 78 0 min 0,000 mm 0,0 UV-I 131 W/m 0,4 C -8,0 C 24,1 km/h (4 Bft) 100,00 %
17.03.2016 08:26 1,3 C 94 % 1026,4 hPa 0,0 l/m 17,1 km/h (3 Bft) O-NO 74 0 min 0,000 mm 0,0 UV-I 139 W/m 0,4 C -6,6 C 22,5 km/h (4 Bft) 93,33 %
17.03.2016 08:27 1,3 C 94 % 1026,3 hPa 0,0 l/m 14,2 km/h (3 Bft) O 82 0 min 0,000 mm 0,0 UV-I 127 W/m 0,4 C -4,9 C 25,7 km/h (4 Bft) 96,15 %
17.03.2016 08:28 1,3 C 94 % 1026,4 hPa 0,0 l/m 14,6 km/h (3 Bft) O 101 0 min 0,000 mm 0,0 UV-I 129 W/m 0,4 C -5,2 C 20,9 km/h (4 Bft) 96,30 %
17.03.2016 08:29 1,4 C 94 % 1026,4 hPa 0,0 l/m 13,3 km/h (3 Bft) O-NO 66 0 min 0,000 mm 0,0 UV-I 139 W/m 0,5 C -4,3 C 17,7 km/h (3 Bft) 100,00 %
17.03.2016 08:30 1,4 C 94 % 1026,3 hPa 0,0 l/m 15,8 km/h (3 Bft) O-NO 77 0 min 0,000 mm 0,0 UV-I 143 W/m 0,5 C -5,7 C 20,9 km/h (4 Bft) 96,55 %
17.03.2016 08:31 1,4 C 94 % 1026,4 hPa 0,0 l/m 16,6 km/h (3 Bft) O-NO 65 0 min 0,000 mm 0,0 UV-I 152 W/m 0,5 C -6,2 C 20,9 km/h (4 Bft) 100,00 %
17.03.2016 08:32 1,4 C 94 % 1026,4 hPa 0,0 l/m 15,0 km/h (3 Bft) O-NO 69 0 min 0,000 mm 0,0 UV-I 154 W/m 0,5 C -5,3 C 19,3 km/h (3 Bft) 95,65 %
17.03.2016 08:33 1,4 C 94 % 1026,4 hPa 0,0 l/m 16,7 km/h (3 Bft) O 81 0 min 0,000 mm 0,0 UV-I 158 W/m 0,5 C -6,2 C 25,7 km/h (4 Bft) 96,55 %
17.03.2016 08:34 1,5 C 94 % 1026,4 hPa 0,0 l/m 16,3 km/h (3 Bft) O 91 0 min 0,000 mm 0,4 UV-I 175 W/m 0,6 C -5,9 C 22,5 km/h (4 Bft) 100,00 %
17.03.2016 08:35 1,5 C 94 % 1026,4 hPa 0,0 l/m 11,9 km/h (2 Bft) O-NO 71 0 min 0,000 mm 0,5 UV-I 163 W/m 0,6 C -3,2 C 19,3 km/h (3 Bft) 91,67 %
17.03.2016 08:36 1,6 C 94 % 1026,4 hPa 0,0 l/m 15,7 km/h (3 Bft) O-NO 71 0 min 0,000 mm 0,5 UV-I 150 W/m 0,7 C -5,4 C 17,7 km/h (3 Bft) 100,00 %
17.03.2016 08:37 1,6 C 94 % 1026,4 hPa 0,0 l/m 17,0 km/h (3 Bft) O-NO 66 0 min 0,000 mm 0,5 UV-I 155 W/m 0,7 C -6,1 C 22,5 km/h (4 Bft) 91,67 %
17.03.2016 08:38 1,6 C 94 % 1026,4 hPa 0,0 l/m 16,7 km/h (3 Bft) O 101 0 min 0,000 mm 0,5 UV-I 187 W/m 0,7 C -6,0 C 19,3 km/h (3 Bft) 100,00 %
17.03.2016 08:39 1,6 C 94 % 1026,4 hPa 0,0 l/m 12,6 km/h (3 Bft) O-NO 67 0 min 0,000 mm 0,5 UV-I 161 W/m 0,7 C -3,6 C 16,1 km/h (3 Bft) 92,59 %
17.03.2016 08:40 1,6 C 94 % 1026,4 hPa 0,0 l/m 13,2 km/h (3 Bft) O 91 0 min 0,000 mm 0,5 UV-I 189 W/m 0,7 C -4,0 C 17,7 km/h (3 Bft) 96,15 %
17.03.2016 08:41 1,7 C 94 % 1026,4 hPa 0,0 l/m 12,0 km/h (2 Bft) O-NO 76 0 min 0,000 mm 0,5 UV-I 179 W/m 0,8 C -3,0 C 14,5 km/h (3 Bft) 100,00 %
17.03.2016 08:42 1,7 C 94 % 1026,4 hPa 0,0 l/m 14,2 km/h (3 Bft) O 82 0 min 0,000 mm 0,5 UV-I 189 W/m 0,8 C -4,5 C 17,7 km/h (3 Bft) 100,00 %
17.03.2016 08:43 1,7 C 94 % 1026,4 hPa 0,0 l/m 17,6 km/h (3 Bft) O-SO 116 0 min 0,000 mm 0,6 UV-I 178 W/m 0,8 C -6,3 C 20,9 km/h (4 Bft) 100,00 %
17.03.2016 08:44 1,7 C 94 % 1026,4 hPa 0,0 l/m 15,4 km/h (3 Bft) O 86 0 min 0,000 mm 0,6 UV-I 200 W/m 0,8 C -5,1 C 19,3 km/h (3 Bft) 95,65 %
17.03.2016 08:45 1,8 C 93 % 1026,4 hPa 0,0 l/m 15,2 km/h (3 Bft) O-SO 103 0 min 0,000 mm 0,6 UV-I 208 W/m 0,8 C -4,9 C 19,3 km/h (3 Bft) 100,00 %
17.03.2016 08:46 1,8 C 93 % 1026,4 hPa 0,0 l/m 9,5 km/h (2 Bft) O 84 0 min 0,000 mm 0,6 UV-I 190 W/m 0,8 C -1,1 C 16,1 km/h (3 Bft) 100,00 %
17.03.2016 08:47 1,8 C 93 % 1026,4 hPa 0,0 l/m 10,3 km/h (2 Bft) O-NO 63 0 min 0,000 mm 0,7 UV-I 217 W/m 0,8 C -1,7 C 14,5 km/h (3 Bft) 95,83 %
17.03.2016 08:48 1,9 C 94 % 1026,4 hPa 0,0 l/m 12,9 km/h (3 Bft) O-NO 68 1 min 0,000 mm 0,7 UV-I 246 W/m 1,0 C -3,4 C 16,1 km/h (3 Bft) 100,00 %
17.03.2016 08:49 1,9 C 94 % 1026,4 hPa 0,0 l/m 12,3 km/h (3 Bft) O-NO 76 1 min 0,000 mm 0,7 UV-I 244 W/m 1,0 C -3,0 C 19,3 km/h (3 Bft) 100,00 %
17.03.2016 08:50 1,9 C 93 % 1026,4 hPa 0,0 l/m 15,6 km/h (3 Bft) O-NO 67 1 min 0,000 mm 0,7 UV-I 244 W/m 0,9 C -5,0 C 19,3 km/h (3 Bft) 100,00 %
17.03.2016 08:51 2,0 C 93 % 1026,4 hPa 0,0 l/m 15,2 km/h (3 Bft) NO 50 1 min 0,000 mm 0,7 UV-I 244 W/m 1,0 C -4,7 C 20,9 km/h (4 Bft) 100,00 %
17.03.2016 08:52 2,1 C 93 % 1026,4 hPa 0,0 l/m 14,3 km/h (3 Bft) NO 55 1 min 0,000 mm 0,7 UV-I 255 W/m 1,1 C -4,0 C 17,7 km/h (3 Bft) 100,00 %
17.03.2016 08:53 2,1 C 93 % 1026,3 hPa 0,0 l/m 16,3 km/h (3 Bft) O-NO 78 1 min 0,000 mm 0,7 UV-I 331 W/m 1,1 C -5,1 C 19,3 km/h (3 Bft) 100,00 %
17.03.2016 08:54 2,1 C 92 % 1026,3 hPa 0,0 l/m 17,2 km/h (3 Bft) O 94 1 min 0,000 mm 0,7 UV-I 330 W/m 0,9 C -5,6 C 20,9 km/h (4 Bft) 96,15 %
17.03.2016 08:55 2,1 C 92 % 1026,3 hPa 0,0 l/m 16,6 km/h (3 Bft) O-NO 65 1 min 0,000 mm 0,8 UV-I 345 W/m 0,9 C -5,3 C 20,9 km/h (4 Bft) 100,00 %
17.03.2016 08:56 2,2 C 92 % 1026,3 hPa 0,0 l/m 19,7 km/h (3 Bft) O 79 1 min 0,000 mm 0,8 UV-I 293 W/m 1,0 C -6,7 C 22,5 km/h (4 Bft) 100,00 %
17.03.2016 08:57 2,2 C 92 % 1026,3 hPa 0,0 l/m 17,8 km/h (3 Bft) O-NO 68 1 min 0,000 mm 0,8 UV-I 338 W/m 1,0 C -5,8 C 20,9 km/h (4 Bft) 100,00 %
17.03.2016 08:58 2,2 C 92 % 1026,3 hPa 0,0 l/m 16,6 km/h (3 Bft) O 91 1 min 0,000 mm 0,8 UV-I 371 W/m 1,0 C -5,2 C 22,5 km/h (4 Bft) 100,00 %
17.03.2016 08:59 2,2 C 92 % 1026,3 hPa 0,0 l/m 17,2 km/h (3 Bft) O-NO 73 1 min 0,000 mm 0,8 UV-I 297 W/m 1,0 C -5,5 C 20,9 km/h (4 Bft) 100,00 %
17.03.2016 09:00 2,3 C 92 % 1026,3 hPa 0,0 l/m 12,5 km/h (3 Bft) O-NO 61 0 min 0,076 mm 0,8 UV-I 223 W/m 1,1 C -2,7 C 17,7 km/h (3 Bft) 100,00 %
17.03.2016 09:01 2,3 C 92 % 1026,3 hPa 0,0 l/m 14,0 km/h (3 Bft) O 79 0 min 0,000 mm 0,8 UV-I 223 W/m 1,1 C -3,6 C 17,7 km/h (3 Bft) 100,00 %
17.03.2016 09:02 2,3 C 92 % 1026,3 hPa 0,0 l/m 13,4 km/h (3 Bft) O-NO 78 0 min 0,000 mm 0,8 UV-I 195 W/m 1,1 C -3,3 C 16,1 km/h (3 Bft) 100,00 %
17.03.2016 09:03 2,3 C 92 % 1026,3 hPa 0,0 l/m 12,9 km/h (3 Bft) NO 49 0 min 0,000 mm 0,9 UV-I 192 W/m 1,1 C -2,9 C 17,7 km/h (3 Bft) 95,65 %
17.03.2016 09:04 2,4 C 92 % 1026,3 hPa 0,0 l/m 11,9 km/h (2 Bft) O-NO 71 1 min 0,000 mm 0,8 UV-I 271 W/m 1,2 C -2,2 C 16,1 km/h (3 Bft) 100,00 %
17.03.2016 09:05 2,4 C 92 % 1026,3 hPa 0,0 l/m 12,9 km/h (3 Bft) O-SO 115 1 min 0,000 mm 0,9 UV-I 364 W/m 1,2 C -2,8 C 16,1 km/h (3 Bft) 100,00 %
17.03.2016 09:06 2,5 C 92 % 1026,3 hPa 0,0 l/m 9,5 km/h (2 Bft) O-NO 68 1 min 0,000 mm 0,9 UV-I 306 W/m 1,3 C -0,3 C 14,5 km/h (3 Bft) 100,00 %
17.03.2016 09:07 2,6 C 92 % 1026,3 hPa 0,0 l/m 10,0 km/h (2 Bft) O-NO 73 1 min 0,000 mm 0,9 UV-I 306 W/m 1,4 C -0,6 C 16,1 km/h (3 Bft) 100,00 %
17.03.2016 09:08 2,6 C 91 % 1026,3 hPa 0,0 l/m 12,8 km/h (3 Bft) O-NO 69 1 min 0,000 mm 0,9 UV-I 396 W/m 1,3 C -2,5 C 16,1 km/h (3 Bft) 100,00 %
17.03.2016 09:09 2,6 C 91 % 1026,3 hPa 0,0 l/m 13,9 km/h (3 Bft) NO 50 1 min 0,000 mm 0,9 UV-I 383 W/m 1,3 C -3,2 C 17,7 km/h (3 Bft) 100,00 %
17.03.2016 09:10 2,7 C 91 % 1026,3 hPa 0,0 l/m 15,8 km/h (3 Bft) NO 50 1 min 0,000 mm 0,9 UV-I 326 W/m 1,4 C -4,1 C 19,3 km/h (3 Bft) 100,00 %
17.03.2016 09:11 2,7 C 91 % 1026,4 hPa 0,0 l/m 13,3 km/h (3 Bft) O-NO 69 1 min 0,000 mm 0,9 UV-I 318 W/m 1,4 C -2,7 C 17,7 km/h (3 Bft) 100,00 %
17.03.2016 09:12 2,7 C 91 % 1026,3 hPa 0,0 l/m 10,3 km/h (2 Bft) O-NO 63 1 min 0,000 mm 1,0 UV-I 318 W/m 1,4 C -0,7 C 12,9 km/h (3 Bft) 100,00 %
17.03.2016 09:13 2,8 C 91 % 1026,3 hPa 0,0 l/m 14,4 km/h (3 Bft) NO 55 1 min 0,000 mm 0,9 UV-I 386 W/m 1,5 C -3,3 C 20,9 km/h (4 Bft) 100,00 %
17.03.2016 09:14 2,8 C 91 % 1026,3 hPa 0,0 l/m 14,2 km/h (3 Bft) O-NO 58 1 min 0,000 mm 0,9 UV-I 399 W/m 1,5 C -3,1 C 19,3 km/h (3 Bft) 100,00 %
17.03.2016 09:15 2,8 C 90 % 1026,3 hPa 0,0 l/m 11,9 km/h (2 Bft) O-NO 59 1 min 0,000 mm 1,0 UV-I 399 W/m 1,3 C -1,7 C 14,5 km/h (3 Bft) 100,00 %
17.03.2016 09:16 2,8 C 90 % 1026,3 hPa 0,0 l/m 9,9 km/h (2 Bft) NO 55 1 min 0,000 mm 0,9 UV-I 399 W/m 1,3 C -0,3 C 16,1 km/h (3 Bft) 100,00 %
17.03.2016 09:17 2,9 C 90 % 1026,3 hPa 0,0 l/m 12,1 km/h (2 Bft) O-NO 66 1 min 0,000 mm 1,0 UV-I 408 W/m 1,4 C -1,7 C 16,1 km/h (3 Bft) 100,00 %
17.03.2016 09:18 2,9 C 90 % 1026,4 hPa 0,0 l/m 13,8 km/h (3 Bft) NO 53 1 min 0,000 mm 1,0 UV-I 354 W/m 1,4 C -2,8 C 17,7 km/h (3 Bft) 100,00 %
17.03.2016 09:19 3,1 C 90 % 1026,3 hPa 0,0 l/m 14,7 km/h (3 Bft) NO 42 1 min 0,000 mm 1,1 UV-I 325 W/m 1,6 C -3,1 C 19,3 km/h (3 Bft) 100,00 %
17.03.2016 09:20 3,1 C 89 % 1026,3 hPa 0,0 l/m 14,6 km/h (3 Bft) NO 55 1 min 0,000 mm 1,1 UV-I 450 W/m 1,5 C -3,0 C 19,3 km/h (3 Bft) 100,00 %
17.03.2016 09:21 3,1 C 89 % 1026,3 hPa 0,0 l/m 13,0 km/h (3 Bft) NO 53 1 min 0,000 mm 1,1 UV-I 438 W/m 1,5 C -2,1 C 17,7 km/h (3 Bft) 100,00 %
17.03.2016 09:22 3,2 C 89 % 1026,3 hPa 0,0 l/m 13,9 km/h (3 Bft) NO 36 1 min 0,000 mm 1,1 UV-I 388 W/m 1,6 C -2,5 C 17,7 km/h (3 Bft) 100,00 %
17.03.2016 09:23 3,2 C 89 % 1026,3 hPa 0,0 l/m 16,5 km/h (3 Bft) NO 54 1 min 0,000 mm 1,1 UV-I 431 W/m 1,6 C -3,9 C 20,9 km/h (4 Bft) 96,30 %
17.03.2016 09:24 3,3 C 89 % 1026,3 hPa 0,0 l/m 16,2 km/h (3 Bft) N-NO 32 1 min 0,000 mm 1,1 UV-I 466 W/m 1,7 C -3,6 C 20,9 km/h (4 Bft) 100,00 %
17.03.2016 09:25 3,3 C 89 % 1026,4 hPa 0,0 l/m 14,6 km/h (3 Bft) NO 46 1 min 0,000 mm 1,1 UV-I 469 W/m 1,7 C -2,8 C 22,5 km/h (4 Bft) 100,00 %
17.03.2016 09:26 3,4 C 89 % 1026,3 hPa 0,0 l/m 12,0 km/h (2 Bft) NO 36 1 min 0,000 mm 1,1 UV-I 462 W/m 1,8 C -1,1 C 17,7 km/h (3 Bft) 100,00 %
17.03.2016 09:27 3,5 C 89 % 1026,3 hPa 0,0 l/m 14,2 km/h (3 Bft) O-NO 58 1 min 0,000 mm 1,2 UV-I 456 W/m 1,9 C -2,3 C 19,3 km/h (3 Bft) 100,00 %
17.03.2016 09:28 3,6 C 89 % 1026,3 hPa 0,0 l/m 14,1 km/h (3 Bft) NO 56 1 min 0,000 mm 1,1 UV-I 438 W/m 2,0 C -2,1 C 17,7 km/h (3 Bft) 100,00 %
17.03.2016 09:29 3,6 C 88 % 1026,3 hPa 0,0 l/m 11,3 km/h (2 Bft) O-NO 67 1 min 0,000 mm 1,2 UV-I 476 W/m 1,8 C -0,4 C 16,1 km/h (3 Bft) 100,00 %
17.03.2016 09:30 3,7 C 89 % 1026,3 hPa 0,0 l/m 9,6 km/h (2 Bft) O 86 1 min 0,000 mm 1,1 UV-I 492 W/m 2,1 C 0,9 C 16,1 km/h (3 Bft) 95,65 %
17.03.2016 09:31 3,8 C 88 % 1026,3 hPa 0,0 l/m 13,0 km/h (3 Bft) O-NO 65 1 min 0,000 mm 1,1 UV-I 486 W/m 2,0 C -1,2 C 20,9 km/h (4 Bft) 95,83 %
17.03.2016 09:32 3,8 C 87 % 1026,3 hPa 0,0 l/m 8,9 km/h (2 Bft) O-NO 66 1 min 0,000 mm 1,1 UV-I 360 W/m 1,8 C 1,6 C 19,3 km/h (3 Bft) 100,00 %
17.03.2016 09:33 3,8 C 87 % 1026,3 hPa 0,0 l/m 17,3 km/h (3 Bft) NO 49 1 min 0,000 mm 1,2 UV-I 360 W/m 1,8 C -3,5 C 20,9 km/h (4 Bft) 100,00 %
17.03.2016 09:34 3,8 C 87 % 1026,3 hPa 0,0 l/m 15,4 km/h (3 Bft) O-NO 78 1 min 0,000 mm 1,2 UV-I 464 W/m 1,8 C -2,6 C 19,3 km/h (3 Bft) 96,67 %
17.03.2016 09:35 3,8 C 86 % 1026,3 hPa 0,0 l/m 11,1 km/h (2 Bft) O-NO 73 1 min 0,000 mm 1,2 UV-I 410 W/m 1,7 C -0,0 C 16,1 km/h (3 Bft) 100,00 %
17.03.2016 09:36 3,8 C 87 % 1026,3 hPa 0,0 l/m 12,5 km/h (3 Bft) O-NO 59 1 min 0,000 mm 1,2 UV-I 376 W/m 1,8 C -0,9 C 16,1 km/h (3 Bft) 96,15 %
17.03.2016 09:37 3,8 C 87 % 1026,3 hPa 0,0 l/m 12,2 km/h (2 Bft) O-NO 58 1 min 0,000 mm 1,1 UV-I 337 W/m 1,8 C -0,8 C 16,1 km/h (3 Bft) 100,00 %
17.03.2016 09:38 3,9 C 87 % 1026,3 hPa 0,0 l/m 10,1 km/h (2 Bft) NO 48 1 min 0,000 mm 1,2 UV-I 366 W/m 1,9 C 0,8 C 16,1 km/h (3 Bft) 100,00 %
17.03.2016 09:39 3,9 C 86 % 1026,3 hPa 0,0 l/m 13,8 km/h (3 Bft) O-NO 71 1 min 0,000 mm 1,3 UV-I 501 W/m 1,8 C -1,6 C 17,7 km/h (3 Bft) 100,00 %
17.03.2016 09:40 4,1 C 87 % 1026,3 hPa 0,0 l/m 16,4 km/h (3 Bft) O-NO 73 1 min 0,000 mm 1,3 UV-I 488 W/m 2,1 C -2,7 C 20,9 km/h (4 Bft) 96,67 %
17.03.2016 09:41 4,1 C 85 % 1026,3 hPa 0,0 l/m 14,6 km/h (3 Bft) O-NO 62 1 min 0,000 mm 1,3 UV-I 477 W/m 1,8 C -1,8 C 17,7 km/h (3 Bft) 100,00 %
17.03.2016 09:42 4,1 C 86 % 1026,3 hPa 0,0 l/m 11,8 km/h (2 Bft) NO 42 1 min 0,000 mm 1,3 UV-I 473 W/m 2,0 C -0,2 C 16,1 km/h (3 Bft) 100,00 %
17.03.2016 09:43 4,1 C 86 % 1026,2 hPa 0,0 l/m 12,0 km/h (2 Bft) NO 51 1 min 0,000 mm 1,3 UV-I 488 W/m 2,0 C -0,3 C 16,1 km/h (3 Bft) 100,00 %
17.03.2016 09:44 4,2 C 86 % 1026,3 hPa 0,0 l/m 11,4 km/h (2 Bft) O-NO 72 1 min 0,000 mm 1,3 UV-I 481 W/m 2,1 C 0,2 C 16,1 km/h (3 Bft) 100,00 %
17.03.2016 09:45 4,2 C 86 % 1026,3 hPa 0,0 l/m 8,6 km/h (2 Bft) O-NO 74 1 min 0,000 mm 1,3 UV-I 481 W/m 2,1 C 2,3 C 14,5 km/h (3 Bft) 100,00 %
17.03.2016 09:46 4,3 C 87 % 1026,3 hPa 0,0 l/m 9,0 km/h (2 Bft) NO 42 1 min 0,000 mm 1,3 UV-I 488 W/m 2,3 C 2,1 C 11,3 km/h (2 Bft) 100,00 %
17.03.2016 09:47 4,4 C 85 % 1026,3 hPa 0,0 l/m 9,9 km/h (2 Bft) O-NO 70 1 min 0,000 mm 1,4 UV-I 497 W/m 2,1 C 1,5 C 14,5 km/h (3 Bft) 100,00 %
17.03.2016 09:48 4,5 C 84 % 1026,3 hPa 0,0 l/m 9,3 km/h (2 Bft) O 84 1 min 0,000 mm 1,4 UV-I 499 W/m 2,0 C 2,0 C 14,5 km/h (3 Bft) 100,00 %
17.03.2016 09:49 4,5 C 84 % 1026,3 hPa 0,0 l/m 10,6 km/h (2 Bft) NO 56 1 min 0,000 mm 1,4 UV-I 488 W/m 2,0 C 1,1 C 12,9 km/h (3 Bft) 100,00 %
17.03.2016 09:50 4,6 C 85 % 1026,3 hPa 0,0 l/m 9,9 km/h (2 Bft) NO 41 1 min 0,000 mm 1,4 UV-I 491 W/m 2,3 C 1,7 C 14,5 km/h (3 Bft) 100,00 %
17.03.2016 09:51 4,6 C 84 % 1026,3 hPa 0,0 l/m 8,1 km/h (2 Bft) N-NO 25 1 min 0,000 mm 1,4 UV-I 498 W/m 2,1 C 3,1 C 12,9 km/h (3 Bft) 96,15 %
17.03.2016 09:52 4,7 C 85 % 1026,3 hPa 0,0 l/m 9,8 km/h (2 Bft) O 80 1 min 0,000 mm 1,4 UV-I 504 W/m 2,4 C 1,9 C 14,5 km/h (3 Bft) 96,30 %
17.03.2016 09:53 4,7 C 84 % 1026,3 hPa 0,0 l/m 11,7 km/h (2 Bft) O-NO 57 1 min 0,000 mm 1,4 UV-I 504 W/m 2,2 C 0,6 C 16,1 km/h (3 Bft) 100,00 %
17.03.2016 09:54 4,7 C 85 % 1026,3 hPa 0,0 l/m 11,2 km/h (2 Bft) NO 46 1 min 0,000 mm 1,4 UV-I 506 W/m 2,4 C 0,9 C 16,1 km/h (3 Bft) 96,15 %
17.03.2016 09:55 4,7 C 84 % 1026,2 hPa 0,0 l/m 8,0 km/h (2 Bft) O-NO 75 1 min 0,000 mm 1,4 UV-I 504 W/m 2,2 C 3,3 C 12,9 km/h (3 Bft) 100,00 %
17.03.2016 09:56 4,8 C 84 % 1026,3 hPa 0,0 l/m 9,1 km/h (2 Bft) NO 38 1 min 0,000 mm 1,4 UV-I 510 W/m 2,3 C 2,5 C 11,3 km/h (2 Bft) 96,15 %
17.03.2016 09:57 4,9 C 85 % 1026,2 hPa 0,0 l/m 7,1 km/h (2 Bft) NO 46 1 min 0,000 mm 1,5 UV-I 523 W/m 2,6 C 4,3 C 9,7 km/h (2 Bft) 100,00 %
17.03.2016 09:58 5,0 C 86 % 1026,2 hPa 0,0 l/m 8,4 km/h (2 Bft) NO 43 1 min 0,000 mm 1,5 UV-I 536 W/m 2,9 C 3,3 C 14,5 km/h (3 Bft) 95,65 %
17.03.2016 09:59 5,1 C 84 % 1026,2 hPa 0,0 l/m 9,1 km/h (2 Bft) O-NO 59 1 min 0,000 mm 1,5 UV-I 539 W/m 2,6 C 2,8 C 16,1 km/h (3 Bft) 95,83 %
17.03.2016 10:00 5,1 C 83 % 1026,2 hPa 0,0 l/m 9,3 km/h (2 Bft) NO 46 1 min 0,178 mm 1,5 UV-I 527 W/m 2,5 C 2,7 C 14,5 km/h (3 Bft) 100,00 %
17.03.2016 10:01 5,1 C 83 % 1026,2 hPa 0,0 l/m 11,4 km/h (2 Bft) NO 55 1 min 0,000 mm 1,5 UV-I 526 W/m 2,5 C 1,2 C 16,1 km/h (3 Bft) 97,44 %
17.03.2016 10:02 5,2 C 84 % 1026,2 hPa 0,0 l/m 10,3 km/h (2 Bft) O-NO 62 1 min 0,000 mm 1,5 UV-I 522 W/m 2,7 C 2,1 C 14,5 km/h (3 Bft) 100,00 %
17.03.2016 10:03 5,2 C 83 % 1026,2 hPa 0,0 l/m 10,9 km/h (2 Bft) NO 45 1 min 0,000 mm 1,5 UV-I 523 W/m 2,6 C 1,7 C 14,5 km/h (3 Bft) 96,30 %
17.03.2016 10:04 5,2 C 83 % 1026,2 hPa 0,0 l/m 11,4 km/h (2 Bft) NO 44 1 min 0,000 mm 1,6 UV-I 534 W/m 2,6 C 1,4 C 19,3 km/h (3 Bft) 96,55 %
17.03.2016 10:05 5,3 C 84 % 1026,1 hPa 0,0 l/m 11,9 km/h (2 Bft) NO 40 1 min 0,000 mm 1,6 UV-I 524 W/m 2,8 C 1,2 C 16,1 km/h (3 Bft) 96,30 %
17.03.2016 10:06 5,3 C 83 % 1026,2 hPa 0,0 l/m 12,5 km/h (3 Bft) NO 38 1 min 0,000 mm 1,6 UV-I 524 W/m 2,7 C 0,8 C 17,7 km/h (3 Bft) 90,91 %
17.03.2016 10:07 5,3 C 83 % 1026,1 hPa 0,0 l/m 15,3 km/h (3 Bft) NO 45 1 min 0,000 mm 1,6 UV-I 512 W/m 2,7 C -0,7 C 20,9 km/h (4 Bft) 96,97 %
17.03.2016 10:08 5,3 C 82 % 1026,1 hPa 0,0 l/m 12,8 km/h (3 Bft) O-NO 57 1 min 0,000 mm 1,6 UV-I 495 W/m 2,5 C 0,6 C 16,1 km/h (3 Bft) 95,65 %
17.03.2016 10:09 5,3 C 82 % 1026,2 hPa 0,0 l/m 9,3 km/h (2 Bft) O-NO 71 1 min 0,000 mm 1,6 UV-I 514 W/m 2,5 C 2,9 C 12,9 km/h (3 Bft) 100,00 %
17.03.2016 10:10 5,3 C 80 % 1026,2 hPa 0,0 l/m 16,2 km/h (3 Bft) O-NO 72 1 min 0,000 mm 1,6 UV-I 533 W/m 2,1 C -1,1 C 19,3 km/h (3 Bft) 97,14 %
17.03.2016 10:11 5,3 C 81 % 1026,1 hPa 0,0 l/m 12,6 km/h (3 Bft) O 84 1 min 0,000 mm 1,6 UV-I 529 W/m 2,3 C 0,7 C 19,3 km/h (3 Bft) 100,00 %
17.03.2016 10:12 5,2 C 81 % 1026,1 hPa 0,0 l/m 12,5 km/h (3 Bft) NO 40 1 min 0,000 mm 1,6 UV-I 527 W/m 2,2 C 0,7 C 16,1 km/h (3 Bft) 75,00 %
17.03.2016 10:13 5,2 C 81 % 1026,1 hPa 0,0 l/m 14,8 km/h (3 Bft) NO 46 1 min 0,000 mm 1,6 UV-I 538 W/m 2,2 C -0,6 C 17,7 km/h (3 Bft) 100,00 %
17.03.2016 10:14 5,2 C 80 % 1026,1 hPa 0,0 l/m 11,4 km/h (2 Bft) O-NO 65 1 min 0,000 mm 1,6 UV-I 533 W/m 2,0 C 1,4 C 16,1 km/h (3 Bft) 100,00 %
17.03.2016 10:15 5,3 C 80 % 1026,1 hPa 0,0 l/m 17,3 km/h (3 Bft) N-NO 32 1 min 0,000 mm 1,6 UV-I 535 W/m 2,1 C -1,7 C 22,5 km/h (4 Bft) 96,15 %
17.03.2016 10:16 5,4 C 82 % 1026,1 hPa 0,0 l/m 14,7 km/h (3 Bft) O-NO 59 1 min 0,000 mm 1,7 UV-I 542 W/m 2,6 C -0,3 C 17,7 km/h (3 Bft) 100,00 %
17.03.2016 10:17 5,4 C 80 % 1026,1 hPa 0,0 l/m 13,3 km/h (3 Bft) NO 42 1 min 0,000 mm 1,7 UV-I 549 W/m 2,2 C 0,5 C 16,1 km/h (3 Bft) 95,00 %
17.03.2016 10:18 5,5 C 81 % 1026,1 hPa 0,0 l/m 14,6 km/h (3 Bft) O-NO 61 1 min 0,000 mm 1,7 UV-I 535 W/m 2,5 C -0,1 C 19,3 km/h (3 Bft) 100,00 %
17.03.2016 10:19 5,6 C 81 % 1026,1 hPa 0,0 l/m 18,6 km/h (3 Bft) O 79 1 min 0,000 mm 1,7 UV-I 523 W/m 2,6 C -1,8 C 20,9 km/h (4 Bft) 100,00 %
17.03.2016 10:20 5,6 C 80 % 1026,1 hPa 0,0 l/m 15,1 km/h (3 Bft) NO 51 1 min 0,000 mm 1,7 UV-I 527 W/m 2,4 C -0,2 C 19,3 km/h (3 Bft) 100,00 %
17.03.2016 10:21 5,5 C 79 % 1026,1 hPa 0,0 l/m 17,4 km/h (3 Bft) O-NO 72 1 min 0,000 mm 1,7 UV-I 543 W/m 2,2 C -1,4 C 22,5 km/h (4 Bft) 95,65 %
17.03.2016 10:22 5,4 C 80 % 1026,1 hPa 0,0 l/m 15,3 km/h (3 Bft) NO 39 1 min 0,000 mm 1,7 UV-I 545 W/m 2,2 C -0,6 C 19,3 km/h (3 Bft) 100,00 %
17.03.2016 10:23 5,4 C 80 % 1026,1 hPa 0,0 l/m 16,1 km/h (3 Bft) NO 40 1 min 0,000 mm 1,7 UV-I 549 W/m 2,2 C -1,0 C 19,3 km/h (3 Bft) 100,00 %
17.03.2016 10:24 5,4 C 79 % 1026,1 hPa 0,0 l/m 12,6 km/h (3 Bft) NO 56 1 min 0,000 mm 1,7 UV-I 537 W/m 2,1 C 0,9 C 16,1 km/h (3 Bft) 100,00 %
17.03.2016 10:25 5,4 C 79 % 1026,1 hPa 0,0 l/m 6,5 km/h (2 Bft) O-NO 63 1 min 0,000 mm 1,8 UV-I 548 W/m 2,1 C 5,3 C 9,7 km/h (2 Bft) 96,15 %
17.03.2016 10:26 5,5 C 80 % 1026,0 hPa 0,0 l/m 15,6 km/h (3 Bft) O-NO 71 1 min 0,000 mm 1,8 UV-I 553 W/m 2,3 C -0,6 C 19,3 km/h (3 Bft) 100,00 %
17.03.2016 10:27 5,6 C 81 % 1026,1 hPa 0,0 l/m 11,6 km/h (2 Bft) O-NO 59 1 min 0,000 mm 1,8 UV-I 550 W/m 2,6 C 1,7 C 16,1 km/h (3 Bft) 100,00 %
17.03.2016 10:28 5,7 C 82 % 1026,1 hPa 0,0 l/m 14,5 km/h (3 Bft) O 79 1 min 0,000 mm 1,8 UV-I 551 W/m 2,9 C 0,2 C 19,3 km/h (3 Bft) 100,00 %
17.03.2016 10:29 5,7 C 80 % 1026,0 hPa 0,0 l/m 10,7 km/h (2 Bft) O-NO 59 1 min 0,000 mm 1,8 UV-I 560 W/m 2,5 C 2,4 C 14,5 km/h (3 Bft) 100,00 %
17.03.2016 10:30 5,8 C 80 % 1026,0 hPa 0,0 l/m 9,1 km/h (2 Bft) NO 52 1 min 0,000 mm 1,8 UV-I 563 W/m 2,6 C 3,6 C 12,9 km/h (3 Bft) 96,55 %
17.03.2016 10:31 5,8 C 80 % 1026,0 hPa 0,0 l/m 11,1 km/h (2 Bft) O-NO 74 1 min 0,000 mm 1,8 UV-I 564 W/m 2,6 C 2,2 C 14,5 km/h (3 Bft) 100,00 %
17.03.2016 10:32 5,7 C 80 % 1026,0 hPa 0,0 l/m 6,4 km/h (2 Bft) NO 51 1 min 0,000 mm 1,8 UV-I 566 W/m 2,5 C 5,7 C 11,3 km/h (2 Bft) 100,00 %
17.03.2016 10:33 5,8 C 81 % 1026,0 hPa 0,0 l/m 8,4 km/h (2 Bft) NO 49 1 min 0,000 mm 1,9 UV-I 567 W/m 2,8 C 4,1 C 14,5 km/h (3 Bft) 95,65 %
17.03.2016 10:34 5,9 C 79 % 1026,0 hPa 0,0 l/m 15,6 km/h (3 Bft) NO 44 1 min 0,000 mm 1,9 UV-I 572 W/m 2,5 C -0,1 C 19,3 km/h (3 Bft) 100,00 %
17.03.2016 10:35 5,9 C 78 % 1026,0 hPa 0,0 l/m 16,7 km/h (3 Bft) O-NO 60 1 min 0,000 mm 1,9 UV-I 575 W/m 2,4 C -0,6 C 19,3 km/h (3 Bft) 100,00 %
17.03.2016 10:36 5,9 C 78 % 1026,0 hPa 0,0 l/m 13,6 km/h (3 Bft) O-NO 58 1 min 0,000 mm 1,9 UV-I 575 W/m 2,4 C 0,9 C 19,3 km/h (3 Bft) 100,00 %
17.03.2016 10:37 5,9 C 78 % 1026,0 hPa 0,0 l/m 11,8 km/h (2 Bft) NO 46 1 min 0,000 mm 1,9 UV-I 576 W/m 2,4 C 1,9 C 14,5 km/h (3 Bft) 100,00 %
17.03.2016 10:38 5,9 C 78 % 1026,0 hPa 0,0 l/m 8,6 km/h (2 Bft) O-NO 63 1 min 0,000 mm 1,9 UV-I 573 W/m 2,4 C 4,1 C 14,5 km/h (3 Bft) 96,55 %
17.03.2016 10:39 6,0 C 79 % 1026,0 hPa 0,0 l/m 11,3 km/h (2 Bft) O 88 1 min 0,000 mm 1,9 UV-I 575 W/m 2,6 C 2,3 C 17,7 km/h (3 Bft) 100,00 %
17.03.2016 10:40 6,1 C 79 % 1026,0 hPa 0,0 l/m 13,2 km/h (3 Bft) O-NO 71 1 min 0,000 mm 1,9 UV-I 585 W/m 2,7 C 1,3 C 16,1 km/h (3 Bft) 98,54 %
17.03.2016 10:41 6,1 C 78 % 1026,0 hPa 0,0 l/m 8,1 km/h (2 Bft) O-NO 72 1 min 0,000 mm 1,9 UV-I 584 W/m 2,6 C 4,7 C 14,5 km/h (3 Bft) 100,00 %
17.03.2016 10:42 6,1 C 78 % 1026,0 hPa 0,0 l/m 8,6 km/h (2 Bft) O-NO 66 1 min 0,000 mm 1,9 UV-I 586 W/m 2,6 C 4,3 C 14,5 km/h (3 Bft) 100,00 %
17.03.2016 10:43 6,2 C 79 % 1025,9 hPa 0,0 l/m 8,4 km/h (2 Bft) O-NO 63 1 min 0,000 mm 1,9 UV-I 587 W/m 2,8 C 4,6 C 12,9 km/h (3 Bft) 100,00 %
17.03.2016 10:44 6,2 C 78 % 1025,9 hPa 0,0 l/m 12,1 km/h (2 Bft) O-NO 61 1 min 0,000 mm 1,9 UV-I 586 W/m 2,7 C 2,1 C 17,7 km/h (3 Bft) 100,00 %
17.03.2016 10:45 6,3 C 78 % 1025,9 hPa 0,0 l/m 14,3 km/h (3 Bft) O 81 1 min 0,000 mm 2,0 UV-I 592 W/m 2,8 C 1,0 C 17,7 km/h (3 Bft) 100,00 %
17.03.2016 10:46 6,3 C 79 % 1025,9 hPa 0,0 l/m 8,1 km/h (2 Bft) NO 49 1 min 0,000 mm 2,0 UV-I 590 W/m 2,9 C 4,9 C 14,5 km/h (3 Bft) 96,15 %
17.03.2016 10:47 6,4 C 77 % 1025,9 hPa 0,0 l/m 8,2 km/h (2 Bft) O 87 1 min 0,000 mm 2,0 UV-I 589 W/m 2,7 C 4,9 C 14,5 km/h (3 Bft) 100,00 %
17.03.2016 10:48 6,3 C 76 % 1025,9 hPa 0,0 l/m 8,8 km/h (2 Bft) NO 53 1 min 0,000 mm 2,0 UV-I 591 W/m 2,4 C 4,4 C 12,9 km/h (3 Bft) 100,00 %
17.03.2016 10:49 6,3 C 78 % 1025,9 hPa 0,0 l/m 9,3 km/h (2 Bft) O 86 1 min 0,000 mm 2,0 UV-I 592 W/m 2,8 C 4,0 C 14,5 km/h (3 Bft) 100,00 %
17.03.2016 10:50 6,3 C 78 % 1025,9 hPa 0,0 l/m 7,8 km/h (2 Bft) NO 42 1 min 0,000 mm 2,0 UV-I 594 W/m 2,8 C 5,1 C 9,7 km/h (2 Bft) 100,00 %
17.03.2016 10:51 6,5 C 81 % 1025,9 hPa 0,0 l/m 8,9 km/h (2 Bft) NO 36 1 min 0,000 mm 2,0 UV-I 597 W/m 3,5 C 4,5 C 14,5 km/h (3 Bft) 96,30 %
17.03.2016 10:52 6,6 C 80 % 1025,9 hPa 0,0 l/m 10,5 km/h (2 Bft) O-NO 65 1 min 0,000 mm 2,0 UV-I 597 W/m 3,4 C 3,5 C 12,9 km/h (3 Bft) 100,00 %
17.03.2016 10:53 6,7 C 79 % 1025,9 hPa 0,0 l/m 10,9 km/h (2 Bft) O-SO 110 1 min 0,000 mm 2,0 UV-I 604 W/m 3,3 C 3,4 C 16,1 km/h (3 Bft) 100,00 %
17.03.2016 10:54 6,7 C 78 % 1025,9 hPa 0,0 l/m 11,2 km/h (2 Bft) O 101 1 min 0,000 mm 2,1 UV-I 606 W/m 3,1 C 3,2 C 14,5 km/h (3 Bft) 100,00 %
17.03.2016 10:55 6,7 C 77 % 1025,9 hPa 0,0 l/m 7,9 km/h (2 Bft) O 88 1 min 0,000 mm 2,1 UV-I 604 W/m 3,0 C 5,5 C 11,3 km/h (2 Bft) 100,00 %
17.03.2016 10:56 6,7 C 77 % 1025,9 hPa 0,0 l/m 10,6 km/h (2 Bft) O-SO 109 1 min 0,000 mm 2,1 UV-I 604 W/m 3,0 C 3,6 C 14,5 km/h (3 Bft) 100,00 %
17.03.2016 10:57 6,6 C 76 % 1025,9 hPa 0,0 l/m 5,0 km/h (1 Bft) S-SO 151 1 min 0,000 mm 2,1 UV-I 605 W/m 2,7 C 6,6 C 11,3 km/h (2 Bft) 100,00 %
17.03.2016 10:58 6,6 C 77 % 1025,9 hPa 0,0 l/m 10,0 km/h (2 Bft) O-NO 71 1 min 0,000 mm 2,1 UV-I 594 W/m 2,9 C 3,8 C 19,3 km/h (3 Bft) 100,00 %
17.03.2016 10:59 6,7 C 77 % 1025,9 hPa 0,0 l/m 11,9 km/h (2 Bft) O-NO 71 1 min 0,000 mm 2,1 UV-I 603 W/m 3,0 C 2,8 C 16,1 km/h (3 Bft) 100,00 %
17.03.2016 11:00 6,7 C 76 % 1025,9 hPa 0,0 l/m 8,9 km/h (2 Bft) O-NO 73 1 min 0,000 mm 2,1 UV-I 595 W/m 2,8 C 4,7 C 12,9 km/h (3 Bft) 100,00 %
17.03.2016 11:02 6,6 C 78 % 1025,9 hPa 0,0 l/m 5,8 km/h (2 Bft) O 101 2 min 0,254 mm 2,1 UV-I 593 W/m 3,0 C 6,6 C 11,3 km/h (2 Bft) 100,00 %
17.03.2016 11:03 6,6 C 76 % 1025,9 hPa 0,0 l/m 3,2 km/h (1 Bft) O 97 1 min 0,000 mm 2,1 UV-I 602 W/m 2,7 C 6,6 C 4,8 km/h (1 Bft) 100,00 %
17.03.2016 11:04 6,6 C 79 % 1025,9 hPa 0,0 l/m 7,9 km/h (2 Bft) NO 38 1 min 0,000 mm 2,1 UV-I 612 W/m 3,2 C 5,4 C 17,7 km/h (3 Bft) 100,00 %
17.03.2016 11:05 6,8 C 79 % 1025,9 hPa 0,0 l/m 10,7 km/h (2 Bft) N-NO 30 1 min 0,000 mm 2,1 UV-I 611 W/m 3,4 C 3,6 C 16,1 km/h (3 Bft) 100,00 %
17.03.2016 11:06 6,9 C 80 % 1025,9 hPa 0,0 l/m 13,2 km/h (3 Bft) N-NO 26 1 min 0,000 mm 2,1 UV-I 615 W/m 3,7 C 2,3 C 19,3 km/h (3 Bft) 100,00 %
17.03.2016 11:07 6,9 C 79 % 1025,9 hPa 0,0 l/m 11,3 km/h (2 Bft) N-NO 30 1 min 0,000 mm 2,1 UV-I 616 W/m 3,5 C 3,4 C 17,7 km/h (3 Bft) 93,33 %
17.03.2016 11:08 7,0 C 78 % 1025,9 hPa 0,0 l/m 11,1 km/h (2 Bft) NO 44 1 min 0,000 mm 2,2 UV-I 619 W/m 3,4 C 3,6 C 14,5 km/h (3 Bft) 100,00 %
17.03.2016 11:09 7,0 C 77 % 1025,8 hPa 0,0 l/m 10,3 km/h (2 Bft) NO 40 1 min 0,000 mm 2,2 UV-I 616 W/m 3,2 C 4,1 C 14,5 km/h (3 Bft) 100,00 %
17.03.2016 11:10 7,0 C 76 % 1025,8 hPa 0,0 l/m 4,7 km/h (1 Bft) NO 47 1 min 0,000 mm 2,2 UV-I 615 W/m 3,1 C 7,0 C 9,7 km/h (2 Bft) 100,00 %
17.03.2016 11:11 7,0 C 76 % 1025,8 hPa 0,0 l/m 8,4 km/h (2 Bft) NO 48 1 min 0,000 mm 2,2 UV-I 616 W/m 3,1 C 5,4 C 9,7 km/h (2 Bft) 100,00 %
17.03.2016 11:12 7,1 C 77 % 1025,8 hPa 0,0 l/m 6,4 km/h (2 Bft) O-NO 69 1 min 0,000 mm 2,2 UV-I 612 W/m 3,3 C 7,1 C 9,7 km/h (2 Bft) 93,33 %
17.03.2016 11:13 7,2 C 77 % 1025,8 hPa 0,0 l/m 8,6 km/h (2 Bft) NO 34 1 min 0,000 mm 2,2 UV-I 614 W/m 3,4 C 5,5 C 11,3 km/h (2 Bft) 100,00 %
17.03.2016 11:14 7,3 C 74 % 1025,8 hPa 0,0 l/m 7,5 km/h (2 Bft) NO 46 1 min 0,000 mm 2,2 UV-I 619 W/m 3,0 C 6,4 C 14,5 km/h (3 Bft) 96,55 %
17.03.2016 11:15 7,3 C 74 % 1025,8 hPa 0,0 l/m 9,1 km/h (2 Bft) NO 42 1 min 0,000 mm 2,2 UV-I 623 W/m 3,0 C 5,2 C 12,9 km/h (3 Bft) 95,83 %
17.03.2016 11:16 7,3 C 73 % 1025,8 hPa 0,0 l/m 9,4 km/h (2 Bft) O-NO 59 1 min 0,000 mm 2,2 UV-I 626 W/m 2,8 C 5,0 C 14,5 km/h (3 Bft) 96,15 %
17.03.2016 11:17 7,2 C 72 % 1025,8 hPa 0,0 l/m 7,8 km/h (2 Bft) O-NO 62 1 min 0,000 mm 2,2 UV-I 617 W/m 2,5 C 6,1 C 12,9 km/h (3 Bft) 93,33 %
17.03.2016 11:18 7,1 C 73 % 1025,8 hPa 0,0 l/m 5,6 km/h (1 Bft) NO 37 1 min 0,000 mm 2,2 UV-I 606 W/m 2,6 C 7,1 C 8,0 km/h (2 Bft) 96,15 %
17.03.2016 11:19 7,2 C 76 % 1025,8 hPa 0,0 l/m 9,1 km/h (2 Bft) N-NO 30 1 min 0,000 mm 2,2 UV-I 616 W/m 3,3 C 5,1 C 14,5 km/h (3 Bft) 100,00 %
17.03.2016 11:20 7,3 C 77 % 1025,8 hPa 0,0 l/m 10,8 km/h (2 Bft) N-NO 30 1 min 0,000 mm 2,2 UV-I 616 W/m 3,5 C 4,1 C 14,5 km/h (3 Bft) 95,65 %
17.03.2016 11:21 7,4 C 77 % 1025,8 hPa 0,0 l/m 10,2 km/h (2 Bft) NO 41 1 min 0,000 mm 2,2 UV-I 626 W/m 3,6 C 4,6 C 16,1 km/h (3 Bft) 100,00 %
17.03.2016 11:22 7,6 C 77 % 1025,8 hPa 0,0 l/m 9,7 km/h (2 Bft) N 5 1 min 0,000 mm 2,2 UV-I 632 W/m 3,8 C 5,1 C 12,9 km/h (3 Bft) 91,30 %
17.03.2016 11:23 7,5 C 73 % 1025,8 hPa 0,0 l/m 6,6 km/h (2 Bft) O-NO 58 1 min 0,000 mm 2,3 UV-I 635 W/m 3,0 C 7,4 C 9,7 km/h (2 Bft) 100,00 %
17.03.2016 11:24 7,5 C 75 % 1025,8 hPa 0,0 l/m 5,6 km/h (1 Bft) O 80 1 min 0,000 mm 2,3 UV-I 634 W/m 3,4 C 7,5 C 6,4 km/h (2 Bft) 96,55 %
17.03.2016 11:25 7,6 C 77 % 1025,8 hPa 0,0 l/m 8,2 km/h (2 Bft) O-NO 61 1 min 0,000 mm 2,3 UV-I 632 W/m 3,8 C 6,2 C 9,7 km/h (2 Bft) 100,00 %
17.03.2016 11:26 7,6 C 76 % 1025,8 hPa 0,0 l/m 5,1 km/h (1 Bft) O-NO 68 1 min 0,000 mm 2,3 UV-I 630 W/m 3,6 C 7,6 C 8,0 km/h (2 Bft) 96,55 %
17.03.2016 11:27 7,6 C 75 % 1025,8 hPa 0,0 l/m 7,4 km/h (2 Bft) O 94 1 min 0,000 mm 2,3 UV-I 633 W/m 3,5 C 6,8 C 11,3 km/h (2 Bft) 91,67 %
17.03.2016 11:28 7,7 C 73 % 1025,7 hPa 0,0 l/m 5,9 km/h (2 Bft) NO 42 1 min 0,000 mm 2,3 UV-I 635 W/m 3,2 C 7,7 C 9,7 km/h (2 Bft) 100,00 %
17.03.2016 11:29 7,7 C 73 % 1025,7 hPa 0,0 l/m 12,1 km/h (2 Bft) O-NO 71 1 min 0,000 mm 2,3 UV-I 637 W/m 3,2 C 3,8 C 16,1 km/h (3 Bft) 96,30 %
17.03.2016 11:30 7,8 C 74 % 1025,7 hPa 0,0 l/m 11,5 km/h (2 Bft) O-NO 65 1 min 0,000 mm 2,3 UV-I 638 W/m 3,5 C 4,3 C 17,7 km/h (3 Bft) 100,00 %
17.03.2016 11:31 7,8 C 73 % 1025,7 hPa 0,0 l/m 13,9 km/h (3 Bft) O-NO 76 1 min 0,000 mm 2,3 UV-I 627 W/m 3,3 C 3,0 C 17,7 km/h (3 Bft) 91,67 %
17.03.2016 11:32 7,7 C 70 % 1025,7 hPa 0,0 l/m 12,1 km/h (2 Bft) NO 54 1 min 0,000 mm 2,3 UV-I 616 W/m 2,6 C 3,8 C 14,5 km/h (3 Bft) 96,77 %
17.03.2016 11:33 7,7 C 71 % 1025,8 hPa 0,0 l/m 13,3 km/h (3 Bft) NO 54 1 min 0,000 mm 2,2 UV-I 624 W/m 2,8 C 3,2 C 19,3 km/h (3 Bft) 92,86 %
17.03.2016 11:34 7,7 C 72 % 1025,7 hPa 0,0 l/m 9,9 km/h (2 Bft) NO 54 1 min 0,000 mm 2,3 UV-I 637 W/m 3,0 C 5,1 C 16,1 km/h (3 Bft) 100,00 %
17.03.2016 11:35 7,6 C 72 % 1025,7 hPa 0,0 l/m 10,5 km/h (2 Bft) NO 51 1 min 0,000 mm 2,3 UV-I 639 W/m 2,9 C 4,6 C 14,5 km/h (3 Bft) 96,55 %
17.03.2016 11:36 7,6 C 73 % 1025,7 hPa 0,0 l/m 9,3 km/h (2 Bft) NO 34 1 min 0,000 mm 2,3 UV-I 636 W/m 3,1 C 5,4 C 12,9 km/h (3 Bft) 93,33 %
17.03.2016 11:37 7,6 C 73 % 1025,7 hPa 0,0 l/m 9,3 km/h (2 Bft) NO 42 1 min 0,000 mm 2,3 UV-I 633 W/m 3,1 C 5,4 C 11,3 km/h (2 Bft) 100,00 %
17.03.2016 11:38 7,6 C 75 % 1025,7 hPa 0,0 l/m 8,4 km/h (2 Bft) NO 43 1 min 0,000 mm 2,3 UV-I 634 W/m 3,5 C 6,0 C 16,1 km/h (3 Bft) 92,59 %
17.03.2016 11:39 7,6 C 75 % 1025,7 hPa 0,0 l/m 9,3 km/h (2 Bft) NO 43 1 min 0,000 mm 2,3 UV-I 641 W/m 3,5 C 5,4 C 14,5 km/h (3 Bft) 100,00 %
17.03.2016 11:40 7,6 C 74 % 1025,7 hPa 0,0 l/m 4,8 km/h (1 Bft) NO 40 1 min 0,000 mm 2,3 UV-I 640 W/m 3,3 C 7,6 C 8,0 km/h (2 Bft) 100,00 %
17.03.2016 11:41 7,6 C 75 % 1025,7 hPa 0,0 l/m 1,5 km/h (1 Bft) NO 55 1 min 0,000 mm 2,3 UV-I 633 W/m 3,5 C 7,6 C 3,2 km/h (1 Bft) 95,83 %
17.03.2016 11:42 7,6 C 75 % 1025,7 hPa 0,0 l/m 4,8 km/h (1 Bft) O-NO 57 1 min 0,000 mm 2,3 UV-I 639 W/m 3,5 C 7,6 C 6,4 km/h (2 Bft) 100,00 %
17.03.2016 11:43 7,6 C 72 % 1025,7 hPa 0,0 l/m 3,3 km/h (1 Bft) NO 53 1 min 0,000 mm 2,4 UV-I 646 W/m 2,9 C 7,6 C 8,0 km/h (2 Bft) 100,00 %
17.03.2016 11:44 7,6 C 72 % 1025,7 hPa 0,0 l/m 13,2 km/h (3 Bft) O-NO 71 1 min 0,000 mm 2,4 UV-I 642 W/m 2,9 C 3,1 C 17,7 km/h (3 Bft) 100,00 %
17.03.2016 11:45 7,7 C 73 % 1025,7 hPa 0,0 l/m 8,6 km/h (2 Bft) O-NO 63 1 min 0,000 mm 2,4 UV-I 646 W/m 3,2 C 6,0 C 11,3 km/h (2 Bft) 95,65 %
17.03.2016 11:46 7,8 C 73 % 1025,7 hPa 0,0 l/m 7,6 km/h (2 Bft) O-NO 63 1 min 0,000 mm 2,4 UV-I 647 W/m 3,3 C 6,8 C 9,7 km/h (2 Bft) 96,30 %
17.03.2016 11:47 7,8 C 72 % 1025,7 hPa 0,0 l/m 3,1 km/h (1 Bft) O-NO 66 1 min 0,000 mm 2,4 UV-I 649 W/m 3,1 C 7,8 C 8,0 km/h (2 Bft) 96,15 %
17.03.2016 11:48 7,8 C 73 % 1025,7 hPa 0,0 l/m 4,7 km/h (1 Bft) N-NO 24 1 min 0,000 mm 2,4 UV-I 648 W/m 3,3 C 7,8 C 8,0 km/h (2 Bft) 100,00 %
17.03.2016 11:49 8,1 C 77 % 1025,7 hPa 0,0 l/m 5,7 km/h (1 Bft) NO 48 1 min 0,000 mm 2,4 UV-I 644 W/m 4,3 C 8,1 C 8,0 km/h (2 Bft) 100,00 %
17.03.2016 11:50 8,3 C 73 % 1025,7 hPa 0,0 l/m 12,9 km/h (3 Bft) O-NO 61 1 min 0,000 mm 2,4 UV-I 644 W/m 3,8 C 4,1 C 17,7 km/h (3 Bft) 97,73 %
17.03.2016 11:51 8,3 C 71 % 1025,6 hPa 0,0 l/m 14,8 km/h (3 Bft) O 80 1 min 0,000 mm 2,4 UV-I 645 W/m 3,4 C 3,2 C 20,9 km/h (4 Bft) 100,00 %
17.03.2016 11:52 8,3 C 69 % 1025,6 hPa 0,0 l/m 13,9 km/h (3 Bft) O-NO 64 1 min 0,000 mm 2,4 UV-I 652 W/m 3,0 C 3,6 C 17,7 km/h (3 Bft) 100,00 %
17.03.2016 11:53 8,2 C 70 % 1025,7 hPa 0,0 l/m 10,5 km/h (2 Bft) NO 40 1 min 0,000 mm 2,4 UV-I 648 W/m 3,1 C 5,3 C 14,5 km/h (3 Bft) 100,00 %
17.03.2016 11:54 8,2 C 72 % 1025,6 hPa 0,0 l/m 8,3 km/h (2 Bft) NO 34 1 min 0,000 mm 2,4 UV-I 646 W/m 3,5 C 6,7 C 14,5 km/h (3 Bft) 100,00 %
17.03.2016 11:55 8,2 C 71 % 1025,6 hPa 0,0 l/m 4,7 km/h (1 Bft) N-NO 29 1 min 0,000 mm 2,4 UV-I 652 W/m 3,3 C 8,2 C 9,7 km/h (2 Bft) 100,00 %
17.03.2016 11:56 8,1 C 71 % 1025,6 hPa 0,0 l/m 3,0 km/h (1 Bft) N-NO 29 1 min 0,000 mm 2,4 UV-I 656 W/m 3,2 C 8,1 C 4,8 km/h (1 Bft) 96,15 %
17.03.2016 11:57 8,2 C 71 % 1025,6 hPa 0,0 l/m 6,1 km/h (2 Bft) O-NO 61 1 min 0,000 mm 2,4 UV-I 651 W/m 3,3 C 8,2 C 12,9 km/h (3 Bft) 100,00 %
17.03.2016 11:58 8,3 C 70 % 1025,6 hPa 0,0 l/m 7,6 km/h (2 Bft) O-NO 65 1 min 0,000 mm 2,4 UV-I 649 W/m 3,2 C 7,4 C 11,3 km/h (2 Bft) 96,15 %
17.03.2016 11:59 8,3 C 71 % 1025,6 hPa 0,0 l/m 7,8 km/h (2 Bft) NO 40 1 min 0,000 mm 2,4 UV-I 648 W/m 3,4 C 7,2 C 9,7 km/h (2 Bft) 100,00 %
17.03.2016 12:00 8,4 C 69 % 1025,6 hPa 0,0 l/m 8,8 km/h (2 Bft) NO 44 1 min 0,000 mm 2,4 UV-I 645 W/m 3,0 C 6,6 C 11,3 km/h (2 Bft) 100,00 %
17.03.2016 12:01 8,4 C 72 % 1025,6 hPa 0,0 l/m 8,2 km/h (2 Bft) N 9 1 min 0,280 mm 2,4 UV-I 650 W/m 3,7 C 7,0 C 11,3 km/h (2 Bft) 100,00 %
17.03.2016 12:02 8,6 C 72 % 1025,6 hPa 0,0 l/m 8,3 km/h (2 Bft) N-NO 19 1 min 0,000 mm 2,4 UV-I 654 W/m 3,8 C 7,2 C 16,1 km/h (3 Bft) 100,00 %
17.03.2016 12:03 8,6 C 72 % 1025,6 hPa 0,0 l/m 12,6 km/h (3 Bft) N-NO 19 1 min 0,000 mm 2,4 UV-I 654 W/m 3,8 C 4,6 C 17,7 km/h (3 Bft) 100,00 %
17.03.2016 12:04 8,5 C 70 % 1025,6 hPa 0,0 l/m 9,3 km/h (2 Bft) NO 37 1 min 0,000 mm 2,4 UV-I 651 W/m 3,3 C 6,4 C 19,3 km/h (3 Bft) 100,00 %
17.03.2016 12:05 8,5 C 72 % 1025,6 hPa 0,0 l/m 8,9 km/h (2 Bft) N-NO 28 1 min 0,000 mm 2,4 UV-I 637 W/m 3,7 C 6,6 C 16,1 km/h (3 Bft) 100,00 %
17.03.2016 12:06 8,5 C 68 % 1025,6 hPa 0,0 l/m 3,6 km/h (1 Bft) NO 40 1 min 0,000 mm 2,4 UV-I 646 W/m 2,9 C 8,5 C 6,4 km/h (2 Bft) 100,00 %
17.03.2016 12:07 8,6 C 70 % 1025,5 hPa 0,0 l/m 11,5 km/h (2 Bft) O 81 1 min 0,000 mm 2,4 UV-I 642 W/m 3,4 C 5,2 C 14,5 km/h (3 Bft) 96,55 %
17.03.2016 12:08 8,6 C 68 % 1025,6 hPa 0,0 l/m 12,0 km/h (2 Bft) O-NO 63 1 min 0,000 mm 2,4 UV-I 624 W/m 3,0 C 4,9 C 16,1 km/h (3 Bft) 100,00 %
17.03.2016 12:09 8,5 C 67 % 1025,6 hPa 0,0 l/m 9,6 km/h (2 Bft) O-NO 63 1 min 0,000 mm 2,4 UV-I 639 W/m 2,7 C 6,2 C 14,5 km/h (3 Bft) 91,67 %
17.03.2016 12:10 8,4 C 69 % 1025,5 hPa 0,0 l/m 10,3 km/h (2 Bft) N-NO 19 1 min 0,000 mm 2,3 UV-I 629 W/m 3,0 C 5,6 C 16,1 km/h (3 Bft) 100,00 %
17.03.2016 12:11 8,4 C 69 % 1025,5 hPa 0,0 l/m 13,3 km/h (3 Bft) N-NO 30 1 min 0,000 mm 2,3 UV-I 624 W/m 3,0 C 4,0 C 17,7 km/h (3 Bft) 100,00 %
17.03.2016 12:12 8,5 C 69 % 1025,5 hPa 0,0 l/m 13,9 km/h (3 Bft) NO 42 1 min 0,000 mm 2,4 UV-I 641 W/m 3,1 C 3,8 C 17,7 km/h (3 Bft) 100,00 %
17.03.2016 12:13 8,6 C 69 % 1025,5 hPa 0,0 l/m 11,8 km/h (2 Bft) NO 42 1 min 0,000 mm 2,4 UV-I 646 W/m 3,2 C 5,0 C 16,1 km/h (3 Bft) 100,00 %
17.03.2016 12:14 8,6 C 68 % 1025,5 hPa 0,0 l/m 11,1 km/h (2 Bft) NO 42 1 min 0,000 mm 2,4 UV-I 647 W/m 3,0 C 5,4 C 14,5 km/h (3 Bft) 91,67 %
17.03.2016 12:15 8,6 C 70 % 1025,5 hPa 0,0 l/m 9,9 km/h (2 Bft) NO 35 1 min 0,000 mm 2,4 UV-I 639 W/m 3,4 C 6,1 C 12,9 km/h (3 Bft) 100,00 %
17.03.2016 12:16 8,6 C 68 % 1025,4 hPa 0,0 l/m 10,2 km/h (2 Bft) N-NO 20 1 min 0,000 mm 2,4 UV-I 638 W/m 3,0 C 5,9 C 16,1 km/h (3 Bft) 100,00 %
17.03.2016 12:17 8,6 C 70 % 1025,4 hPa 0,0 l/m 7,9 km/h (2 Bft) O-NO 59 1 min 0,000 mm 2,4 UV-I 632 W/m 3,4 C 7,5 C 9,7 km/h (2 Bft) 98,52 %
17.03.2016 12:18 8,7 C 70 % 1025,5 hPa 0,0 l/m 12,6 km/h (3 Bft) NO 40 1 min 0,000 mm 2,4 UV-I 631 W/m 3,5 C 4,7 C 20,9 km/h (4 Bft) 97,56 %
17.03.2016 12:19 8,7 C 66 % 1025,4 hPa 0,0 l/m 15,6 km/h (3 Bft) NO 49 1 min 0,000 mm 2,4 UV-I 641 W/m 2,7 C 3,3 C 19,3 km/h (3 Bft) 100,00 %
17.03.2016 12:20 8,7 C 65 % 1025,5 hPa 0,0 l/m 15,0 km/h (3 Bft) O-NO 67 1 min 0,000 mm 2,4 UV-I 651 W/m 2,5 C 3,6 C 19,3 km/h (3 Bft) 100,00 %
17.03.2016 12:21 8,7 C 65 % 1025,4 hPa 0,0 l/m 12,9 km/h (3 Bft) O-NO 58 1 min 0,000 mm 2,4 UV-I 649 W/m 2,5 C 4,6 C 16,1 km/h (3 Bft) 100,00 %
17.03.2016 12:22 8,7 C 66 % 1025,4 hPa 0,0 l/m 12,8 km/h (3 Bft) O-NO 67 1 min 0,000 mm 2,4 UV-I 646 W/m 2,7 C 4,6 C 17,7 km/h (3 Bft) 100,00 %
17.03.2016 12:23 8,7 C 66 % 1025,4 hPa 0,0 l/m 12,2 km/h (2 Bft) O-NO 62 1 min 0,000 mm 2,4 UV-I 650 W/m 2,7 C 4,9 C 17,7 km/h (3 Bft) 100,00 %
17.03.2016 12:24 8,7 C 66 % 1025,4 hPa 0,0 l/m 14,1 km/h (3 Bft) NO 53 1 min 0,000 mm 2,4 UV-I 653 W/m 2,7 C 4,0 C 19,3 km/h (3 Bft) 100,00 %
17.03.2016 12:25 8,8 C 66 % 1025,3 hPa 0,0 l/m 14,2 km/h (3 Bft) O-NO 64 1 min 0,000 mm 2,4 UV-I 650 W/m 2,8 C 4,0 C 19,3 km/h (3 Bft) 96,15 %
17.03.2016 12:26 8,8 C 65 % 1025,4 hPa 0,0 l/m 8,2 km/h (2 Bft) N-NO 26 1 min 0,000 mm 2,4 UV-I 650 W/m 2,6 C 7,5 C 11,3 km/h (2 Bft) 95,83 %
17.03.2016 12:27 8,8 C 64 % 1025,3 hPa 0,0 l/m 9,7 km/h (2 Bft) O-NO 71 1 min 0,000 mm 2,4 UV-I 652 W/m 2,4 C 6,5 C 14,5 km/h (3 Bft) 100,00 %
17.03.2016 12:28 8,8 C 63 % 1025,3 hPa 0,0 l/m 8,6 km/h (2 Bft) O-NO 59 1 min 0,000 mm 2,4 UV-I 646 W/m 2,2 C 7,2 C 12,9 km/h (3 Bft) 100,00 %
17.03.2016 12:29 8,8 C 66 % 1025,3 hPa 0,0 l/m 8,9 km/h (2 Bft) O-NO 66 1 min 0,000 mm 2,4 UV-I 649 W/m 2,8 C 7,0 C 17,7 km/h (3 Bft) 100,00 %
17.03.2016 12:30 8,8 C 67 % 1025,3 hPa 0,0 l/m 12,6 km/h (3 Bft) O-NO 66 1 min 0,000 mm 2,4 UV-I 651 W/m 3,0 C 4,8 C 17,7 km/h (3 Bft) 92,59 %
17.03.2016 12:31 8,9 C 66 % 1025,3 hPa 0,0 l/m 8,9 km/h (2 Bft) O-NO 71 1 min 0,000 mm 2,4 UV-I 655 W/m 2,9 C 7,1 C 17,7 km/h (3 Bft) 100,00 %
17.03.2016 12:32 9,0 C 67 % 1025,3 hPa 0,0 l/m 14,2 km/h (3 Bft) O-NO 69 1 min 0,000 mm 2,4 UV-I 653 W/m 3,2 C 4,3 C 17,7 km/h (3 Bft) 100,00 %
17.03.2016 12:33 9,0 C 66 % 1025,2 hPa 0,0 l/m 17,6 km/h (3 Bft) NO 49 1 min 0,000 mm 2,4 UV-I 652 W/m 3,0 C 2,9 C 22,5 km/h (4 Bft) 100,00 %
17.03.2016 12:34 9,1 C 66 % 1025,2 hPa 0,0 l/m 15,0 km/h (3 Bft) N-NO 14 1 min 0,000 mm 2,4 UV-I 652 W/m 3,1 C 4,0 C 20,9 km/h (4 Bft) 100,00 %
17.03.2016 12:35 9,1 C 67 % 1025,3 hPa 0,0 l/m 13,8 km/h (3 Bft) O-NO 68 1 min 0,000 mm 2,4 UV-I 650 W/m 3,3 C 4,6 C 17,7 km/h (3 Bft) 100,00 %
17.03.2016 12:36 9,2 C 65 % 1025,2 hPa 0,0 l/m 13,2 km/h (3 Bft) NO 48 1 min 0,000 mm 2,4 UV-I 647 W/m 3,0 C 5,0 C 19,3 km/h (3 Bft) 100,00 %
17.03.2016 12:37 9,1 C 65 % 1025,2 hPa 0,0 l/m 9,9 km/h (2 Bft) NO 51 1 min 0,000 mm 2,4 UV-I 644 W/m 2,9 C 6,7 C 20,9 km/h (4 Bft) 100,00 %
17.03.2016 12:38 9,0 C 65 % 1025,2 hPa 0,0 l/m 17,5 km/h (3 Bft) O-NO 57 1 min 0,000 mm 2,4 UV-I 647 W/m 2,8 C 2,9 C 20,9 km/h (4 Bft) 100,00 %
17.03.2016 12:39 8,9 C 64 % 1025,2 hPa 0,0 l/m 17,3 km/h (3 Bft) NO 52 1 min 0,000 mm 2,4 UV-I 647 W/m 2,5 C 2,8 C 22,5 km/h (4 Bft) 100,00 %
17.03.2016 12:40 8,9 C 65 % 1025,2 hPa 0,0 l/m 15,1 km/h (3 Bft) NO 36 1 min 0,000 mm 2,4 UV-I 650 W/m 2,7 C 3,8 C 19,3 km/h (3 Bft) 100,00 %
17.03.2016 12:41 8,9 C 64 % 1025,2 hPa 0,0 l/m 9,7 km/h (2 Bft) NO 54 1 min 0,000 mm 2,4 UV-I 656 W/m 2,5 C 6,6 C 12,9 km/h (3 Bft) 100,00 %
17.03.2016 12:42 8,9 C 65 % 1025,2 hPa 0,0 l/m 12,7 km/h (3 Bft) NO 41 1 min 0,000 mm 2,4 UV-I 647 W/m 2,7 C 4,9 C 16,1 km/h (3 Bft) 95,65 %
17.03.2016 12:43 9,0 C 65 % 1025,2 hPa 0,0 l/m 14,3 km/h (3 Bft) NO 44 1 min 0,000 mm 2,4 UV-I 644 W/m 2,8 C 4,2 C 19,3 km/h (3 Bft) 100,00 %
17.03.2016 12:44 9,0 C 64 % 1025,2 hPa 0,0 l/m 9,5 km/h (2 Bft) NO 48 1 min 0,000 mm 2,4 UV-I 647 W/m 2,6 C 6,8 C 16,1 km/h (3 Bft) 95,65 %
17.03.2016 12:45 9,1 C 65 % 1025,2 hPa 0,0 l/m 15,8 km/h (3 Bft) O-NO 62 1 min 0,000 mm 2,4 UV-I 641 W/m 2,9 C 3,7 C 20,9 km/h (4 Bft) 100,00 %
17.03.2016 12:46 9,1 C 61 % 1025,2 hPa 0,0 l/m 15,3 km/h (3 Bft) O-NO 77 1 min 0,000 mm 2,4 UV-I 646 W/m 2,0 C 3,9 C 17,7 km/h (3 Bft) 98,54 %
17.03.2016 12:47 9,1 C 60 % 1025,1 hPa 0,0 l/m 14,9 km/h (3 Bft) N-NO 26 1 min 0,000 mm 2,4 UV-I 645 W/m 1,8 C 4,1 C 17,7 km/h (3 Bft) 95,12 %
17.03.2016 12:48 9,0 C 62 % 1025,2 hPa 0,0 l/m 8,4 km/h (2 Bft) NO 55 1 min 0,000 mm 2,4 UV-I 645 W/m 2,1 C 7,5 C 14,5 km/h (3 Bft) 96,15 %
17.03.2016 12:49 8,9 C 62 % 1025,2 hPa 0,0 l/m 7,3 km/h (2 Bft) NO 46 1 min 0,000 mm 2,4 UV-I 644 W/m 2,0 C 8,2 C 9,7 km/h (2 Bft) 100,00 %
17.03.2016 12:50 9,0 C 68 % 1025,1 hPa 0,0 l/m 8,7 km/h (2 Bft) N-NO 17 1 min 0,000 mm 2,3 UV-I 642 W/m 3,4 C 7,3 C 12,9 km/h (3 Bft) 96,15 %
17.03.2016 12:51 9,2 C 70 % 1025,1 hPa 0,0 l/m 9,9 km/h (2 Bft) O-NO 65 1 min 0,000 mm 2,4 UV-I 647 W/m 4,0 C 6,8 C 16,1 km/h (3 Bft) 100,00 %
17.03.2016 12:52 9,4 C 68 % 1025,1 hPa 0,0 l/m 13,7 km/h (3 Bft) N-NO 15 1 min 0,000 mm 2,4 UV-I 645 W/m 3,8 C 5,0 C 19,3 km/h (3 Bft) 96,30 %
17.03.2016 12:53 9,4 C 65 % 1025,1 hPa 0,0 l/m 12,5 km/h (3 Bft) NO 44 1 min 0,000 mm 2,3 UV-I 638 W/m 3,2 C 5,6 C 16,1 km/h (3 Bft) 100,00 %
17.03.2016 12:54 9,4 C 66 % 1025,1 hPa 0,0 l/m 9,1 km/h (2 Bft) O-NO 69 1 min 0,000 mm 2,3 UV-I 630 W/m 3,4 C 7,5 C 14,5 km/h (3 Bft) 96,30 %
17.03.2016 12:55 9,4 C 62 % 1025,1 hPa 0,0 l/m 16,8 km/h (3 Bft) O-NO 76 1 min 0,000 mm 2,3 UV-I 623 W/m 2,5 C 3,7 C 19,3 km/h (3 Bft) 96,15 %
17.03.2016 12:56 9,3 C 62 % 1025,1 hPa 0,0 l/m 14,0 km/h (3 Bft) O-NO 71 1 min 0,000 mm 2,3 UV-I 622 W/m 2,4 C 4,7 C 17,7 km/h (3 Bft) 91,67 %
17.03.2016 12:57 9,2 C 61 % 1025,1 hPa 0,0 l/m 10,7 km/h (2 Bft) O-NO 59 1 min 0,000 mm 2,3 UV-I 629 W/m 2,1 C 6,3 C 16,1 km/h (3 Bft) 95,65 %
17.03.2016 12:58 9,2 C 61 % 1025,1 hPa 0,0 l/m 12,2 km/h (2 Bft) O-NO 59 1 min 0,000 mm 2,3 UV-I 634 W/m 2,1 C 5,5 C 16,1 km/h (3 Bft) 100,00 %
17.03.2016 12:59 9,2 C 62 % 1025,0 hPa 0,0 l/m 9,7 km/h (2 Bft) O-NO 57 1 min 0,000 mm 2,3 UV-I 644 W/m 2,3 C 6,9 C 14,5 km/h (3 Bft) 96,15 %
17.03.2016 13:00 9,3 C 63 % 1025,0 hPa 0,0 l/m 11,1 km/h (2 Bft) O-NO 57 1 min 0,330 mm 2,3 UV-I 641 W/m 2,6 C 6,2 C 16,1 km/h (3 Bft) 92,59 %
17.03.2016 13:02 9,3 C 61 % 1025,0 hPa 0,0 l/m 11,9 km/h (2 Bft) O-NO 65 2 min 0,000 mm 2,3 UV-I 641 W/m 2,2 C 5,8 C 16,1 km/h (3 Bft) 97,73 %
17.03.2016 13:03 9,3 C 61 % 1025,0 hPa 0,0 l/m 8,4 km/h (2 Bft) O-NO 64 1 min 0,000 mm 2,3 UV-I 635 W/m 2,2 C 7,8 C 16,1 km/h (3 Bft) 100,00 %
17.03.2016 13:04 9,3 C 62 % 1024,9 hPa 0,0 l/m 10,2 km/h (2 Bft) O-NO 69 1 min 0,000 mm 2,3 UV-I 635 W/m 2,4 C 6,7 C 14,5 km/h (3 Bft) 93,33 %
17.03.2016 13:05 9,4 C 62 % 1024,9 hPa 0,0 l/m 9,1 km/h (2 Bft) NO 34 1 min 0,000 mm 2,3 UV-I 634 W/m 2,5 C 7,5 C 14,5 km/h (3 Bft) 100,00 %
17.03.2016 13:06 9,5 C 67 % 1024,9 hPa 0,0 l/m 14,4 km/h (3 Bft) NO 46 1 min 0,000 mm 2,3 UV-I 627 W/m 3,7 C 4,8 C 27,4 km/h (4 Bft) 93,33 %
17.03.2016 13:07 9,6 C 65 % 1024,9 hPa 0,0 l/m 15,8 km/h (3 Bft) O 84 1 min 0,000 mm 2,3 UV-I 630 W/m 3,4 C 4,3 C 24,1 km/h (4 Bft) 100,00 %
17.03.2016 13:08 9,6 C 63 % 1024,9 hPa 0,0 l/m 10,3 km/h (2 Bft) NO 38 1 min 0,000 mm 2,3 UV-I 633 W/m 2,9 C 7,0 C 16,1 km/h (3 Bft) 96,15 %
17.03.2016 13:09 9,7 C 63 % 1024,9 hPa 0,0 l/m 7,2 km/h (2 Bft) NO 56 1 min 0,000 mm 2,3 UV-I 639 W/m 3,0 C 9,1 C 11,3 km/h (2 Bft) 100,00 %
17.03.2016 13:10 9,7 C 65 % 1024,8 hPa 0,0 l/m 11,4 km/h (2 Bft) NO 46 1 min 0,000 mm 2,3 UV-I 634 W/m 3,4 C 6,5 C 17,7 km/h (3 Bft) 100,00 %
17.03.2016 13:11 9,7 C 63 % 1024,8 hPa 0,0 l/m 15,8 km/h (3 Bft) NO 55 1 min 0,000 mm 2,3 UV-I 636 W/m 3,0 C 4,4 C 19,3 km/h (3 Bft) 100,00 %
17.03.2016 13:12 9,7 C 64 % 1024,8 hPa 0,0 l/m 16,3 km/h (3 Bft) NO 38 1 min 0,000 mm 2,3 UV-I 636 W/m 3,2 C 4,2 C 19,3 km/h (3 Bft) 96,15 %
17.03.2016 13:13 9,7 C 67 % 1024,8 hPa 0,0 l/m 10,7 km/h (2 Bft) NO 42 1 min 0,000 mm 2,2 UV-I 631 W/m 3,9 C 6,9 C 16,1 km/h (3 Bft) 100,00 %
17.03.2016 13:14 9,8 C 68 % 1024,8 hPa 0,0 l/m 9,3 km/h (2 Bft) NO 44 1 min 0,000 mm 2,2 UV-I 622 W/m 4,2 C 7,8 C 14,5 km/h (3 Bft) 96,97 %
17.03.2016 13:15 9,7 C 65 % 1024,7 hPa 0,0 l/m 7,9 km/h (2 Bft) NO 44 1 min 0,000 mm 2,2 UV-I 627 W/m 3,4 C 8,6 C 11,3 km/h (2 Bft) 100,00 %
17.03.2016 13:16 9,7 C 65 % 1024,7 hPa 0,0 l/m 13,2 km/h (3 Bft) O-NO 68 1 min 0,000 mm 2,2 UV-I 629 W/m 3,4 C 5,6 C 19,3 km/h (3 Bft) 100,00 %
17.03.2016 13:17 9,7 C 63 % 1024,7 hPa 0,0 l/m 13,0 km/h (3 Bft) NO 56 1 min 0,000 mm 2,2 UV-I 624 W/m 3,0 C 5,7 C 17,7 km/h (3 Bft) 96,67 %
17.03.2016 13:18 9,7 C 63 % 1024,7 hPa 0,0 l/m 16,3 km/h (3 Bft) O-NO 60 1 min 0,000 mm 2,2 UV-I 620 W/m 3,0 C 4,2 C 20,9 km/h (4 Bft) 100,00 %
17.03.2016 13:19 9,7 C 62 % 1024,7 hPa 0,0 l/m 13,0 km/h (3 Bft) O-NO 75 1 min 0,000 mm 2,2 UV-I 625 W/m 2,8 C 5,7 C 17,7 km/h (3 Bft) 100,00 %
17.03.2016 13:20 9,7 C 62 % 1024,6 hPa 0,0 l/m 16,9 km/h (3 Bft) O-NO 65 1 min 0,000 mm 2,2 UV-I 624 W/m 2,8 C 4,0 C 20,9 km/h (4 Bft) 100,00 %
17.03.2016 13:21 9,6 C 60 % 1024,7 hPa 0,0 l/m 18,6 km/h (3 Bft) O-NO 67 1 min 0,000 mm 2,2 UV-I 622 W/m 2,2 C 3,2 C 22,5 km/h (4 Bft) 100,00 %
17.03.2016 13:22 9,6 C 61 % 1024,6 hPa 0,0 l/m 13,6 km/h (3 Bft) O-NO 67 1 min 0,000 mm 2,2 UV-I 621 W/m 2,5 C 5,3 C 16,1 km/h (3 Bft) 100,00 %
17.03.2016 13:23 9,5 C 63 % 1024,6 hPa 0,0 l/m 16,0 km/h (3 Bft) O-NO 74 1 min 0,000 mm 2,2 UV-I 626 W/m 2,8 C 4,1 C 20,9 km/h (4 Bft) 100,00 %
17.03.2016 13:24 9,4 C 63 % 1024,6 hPa 0,0 l/m 14,1 km/h (3 Bft) O-NO 75 1 min 0,000 mm 2,2 UV-I 624 W/m 2,7 C 4,8 C 16,1 km/h (3 Bft) 100,00 %
17.03.2016 13:25 9,4 C 63 % 1024,6 hPa 0,0 l/m 15,1 km/h (3 Bft) O-NO 69 1 min 0,000 mm 2,2 UV-I 619 W/m 2,7 C 4,4 C 19,3 km/h (3 Bft) 92,59 %
17.03.2016 13:26 9,5 C 64 % 1024,5 hPa 0,0 l/m 16,7 km/h (3 Bft) O 89 1 min 0,000 mm 2,1 UV-I 617 W/m 3,0 C 3,8 C 22,5 km/h (4 Bft) 100,00 %
17.03.2016 13:27 9,6 C 62 % 1024,6 hPa 0,0 l/m 15,8 km/h (3 Bft) O-NO 65 1 min 0,000 mm 2,2 UV-I 618 W/m 2,7 C 4,3 C 20,9 km/h (4 Bft) 100,00 %
17.03.2016 13:28 9,6 C 64 % 1024,6 hPa 0,0 l/m 14,0 km/h (3 Bft) O-NO 63 1 min 0,000 mm 2,1 UV-I 613 W/m 3,1 C 5,1 C 17,7 km/h (3 Bft) 100,00 %
17.03.2016 13:29 9,6 C 63 % 1024,5 hPa 0,0 l/m 11,0 km/h (2 Bft) NO 46 1 min 0,000 mm 2,1 UV-I 610 W/m 2,9 C 6,6 C 19,3 km/h (3 Bft) 100,00 %
17.03.2016 13:30 9,7 C 62 % 1024,5 hPa 0,0 l/m 15,3 km/h (3 Bft) O-NO 57 1 min 0,000 mm 2,1 UV-I 607 W/m 2,8 C 4,6 C 17,7 km/h (3 Bft) 100,00 %
17.03.2016 13:31 9,7 C 61 % 1024,5 hPa 0,0 l/m 13,8 km/h (3 Bft) N-NO 33 1 min 0,000 mm 2,1 UV-I 606 W/m 2,5 C 5,3 C 16,1 km/h (3 Bft) 100,00 %
17.03.2016 13:32 9,7 C 61 % 1024,5 hPa 0,0 l/m 9,8 km/h (2 Bft) O-NO 65 1 min 0,000 mm 2,1 UV-I 612 W/m 2,5 C 7,4 C 14,5 km/h (3 Bft) 100,00 %
17.03.2016 13:33 9,7 C 62 % 1024,5 hPa 0,0 l/m 14,5 km/h (3 Bft) O-NO 68 1 min 0,000 mm 2,1 UV-I 607 W/m 2,8 C 5,0 C 19,3 km/h (3 Bft) 100,00 %
17.03.2016 13:34 9,8 C 60 % 1024,5 hPa 0,0 l/m 14,7 km/h (3 Bft) NO 53 1 min 0,000 mm 2,1 UV-I 615 W/m 2,4 C 5,0 C 17,7 km/h (3 Bft) 100,00 %
17.03.2016 13:35 9,8 C 62 % 1024,4 hPa 0,0 l/m 13,7 km/h (3 Bft) O-NO 71 1 min 0,000 mm 2,1 UV-I 616 W/m 2,9 C 5,5 C 19,3 km/h (3 Bft) 100,00 %
17.03.2016 13:36 9,9 C 62 % 1024,5 hPa 0,0 l/m 14,6 km/h (3 Bft) NO 43 1 min 0,000 mm 2,1 UV-I 610 W/m 3,0 C 5,2 C 16,1 km/h (3 Bft) 100,00 %
17.03.2016 13:37 9,9 C 62 % 1024,4 hPa 0,0 l/m 14,1 km/h (3 Bft) O-NO 73 1 min 0,000 mm 2,1 UV-I 606 W/m 3,0 C 5,4 C 17,7 km/h (3 Bft) 100,00 %
17.03.2016 13:38 9,9 C 61 % 1024,4 hPa 0,0 l/m 11,0 km/h (2 Bft) O-NO 69 1 min 0,000 mm 2,0 UV-I 602 W/m 2,7 C 6,9 C 14,5 km/h (3 Bft) 100,00 %
17.03.2016 13:39 10,0 C 62 % 1024,4 hPa 0,0 l/m 15,8 km/h (3 Bft) O-NO 58 1 min 0,000 mm 2,0 UV-I 596 W/m 3,1 C 4,8 C 20,9 km/h (4 Bft) 100,00 %
17.03.2016 13:40 10,1 C 62 % 1024,3 hPa 0,0 l/m 18,0 km/h (3 Bft) O-NO 77 1 min 0,000 mm 2,0 UV-I 595 W/m 3,2 C 4,1 C 22,5 km/h (4 Bft) 100,00 %
17.03.2016 13:41 10,0 C 61 % 1024,4 hPa 0,0 l/m 15,8 km/h (3 Bft) O-NO 62 1 min 0,000 mm 2,0 UV-I 593 W/m 2,8 C 4,8 C 19,3 km/h (3 Bft) 98,52 %
17.03.2016 13:42 9,9 C 62 % 1024,3 hPa 0,0 l/m 13,3 km/h (3 Bft) O 86 1 min 0,000 mm 2,0 UV-I 595 W/m 3,0 C 5,8 C 16,1 km/h (3 Bft) 100,00 %
17.03.2016 13:43 9,9 C 63 % 1024,3 hPa 0,0 l/m 8,6 km/h (2 Bft) O-NO 75 1 min 0,000 mm 2,0 UV-I 598 W/m 3,2 C 8,3 C 12,9 km/h (3 Bft) 100,00 %
17.03.2016 13:44 10,0 C 64 % 1024,3 hPa 0,0 l/m 11,3 km/h (2 Bft) O 88 1 min 0,000 mm 2,0 UV-I 600 W/m 3,5 C 6,9 C 19,3 km/h (3 Bft) 100,00 %
17.03.2016 13:45 10,1 C 63 % 1024,3 hPa 0,0 l/m 10,5 km/h (2 Bft) O-NO 78 1 min 0,000 mm 2,0 UV-I 596 W/m 3,4 C 7,4 C 14,5 km/h (3 Bft) 100,00 %
17.03.2016 13:46 10,1 C 63 % 1024,2 hPa 0,0 l/m 7,9 km/h (2 Bft) O-NO 69 1 min 0,000 mm 2,0 UV-I 593 W/m 3,4 C 9,0 C 16,1 km/h (3 Bft) 91,67 %
17.03.2016 13:47 10,2 C 65 % 1024,3 hPa 0,0 l/m 10,6 km/h (2 Bft) O-NO 65 1 min 0,000 mm 2,0 UV-I 591 W/m 3,9 C 7,5 C 19,3 km/h (3 Bft) 100,00 %
17.03.2016 13:48 10,2 C 62 % 1024,3 hPa 0,0 l/m 15,3 km/h (3 Bft) O-NO 78 1 min 0,000 mm 2,0 UV-I 588 W/m 3,3 C 5,3 C 20,9 km/h (4 Bft) 97,73 %
17.03.2016 13:49 10,3 C 60 % 1024,3 hPa 0,0 l/m 16,8 km/h (3 Bft) O 100 1 min 0,000 mm 1,9 UV-I 589 W/m 2,9 C 4,8 C 24,1 km/h (4 Bft) 100,00 %
17.03.2016 13:50 10,2 C 58 % 1024,2 hPa 0,0 l/m 13,4 km/h (3 Bft) O-NO 71 1 min 0,000 mm 1,9 UV-I 585 W/m 2,3 C 6,1 C 19,3 km/h (3 Bft) 100,00 %
17.03.2016 13:51 10,1 C 58 % 1024,2 hPa 0,0 l/m 10,0 km/h (2 Bft) O 79 1 min 0,000 mm 1,9 UV-I 577 W/m 2,2 C 7,7 C 20,9 km/h (4 Bft) 100,00 %
17.03.2016 13:52 10,1 C 60 % 1024,2 hPa 0,0 l/m 18,5 km/h (3 Bft) NO 54 1 min 0,000 mm 1,9 UV-I 585 W/m 2,7 C 3,9 C 22,5 km/h (4 Bft) 100,00 %
17.03.2016 13:53 10,1 C 58 % 1024,2 hPa 0,0 l/m 17,7 km/h (3 Bft) O-NO 72 1 min 0,000 mm 1,9 UV-I 594 W/m 2,2 C 4,2 C 22,5 km/h (4 Bft) 100,00 %
17.03.2016 13:54 10,1 C 59 % 1024,2 hPa 0,0 l/m 17,4 km/h (3 Bft) NO 41 1 min 0,000 mm 1,9 UV-I 594 W/m 2,5 C 4,3 C 25,7 km/h (4 Bft) 100,00 %
17.03.2016 13:55 10,1 C 61 % 1024,1 hPa 0,0 l/m 16,8 km/h (3 Bft) O-NO 60 1 min 0,000 mm 1,9 UV-I 589 W/m 2,9 C 4,5 C 22,5 km/h (4 Bft) 100,00 %
17.03.2016 13:56 10,0 C 61 % 1024,1 hPa 0,0 l/m 17,9 km/h (3 Bft) O-NO 68 1 min 0,000 mm 1,9 UV-I 587 W/m 2,8 C 4,0 C 22,5 km/h (4 Bft) 100,00 %
17.03.2016 13:57 9,9 C 59 % 1024,2 hPa 0,0 l/m 16,6 km/h (3 Bft) NO 49 1 min 0,000 mm 1,9 UV-I 579 W/m 2,3 C 4,4 C 22,5 km/h (4 Bft) 100,00 %
17.03.2016 13:58 9,9 C 59 % 1024,2 hPa 0,0 l/m 14,2 km/h (3 Bft) O-NO 64 1 min 0,000 mm 1,9 UV-I 578 W/m 2,3 C 5,4 C 19,3 km/h (3 Bft) 100,00 %
17.03.2016 13:59 9,9 C 61 % 1024,2 hPa 0,0 l/m 7,7 km/h (2 Bft) NO 56 1 min 0,000 mm 1,8 UV-I 570 W/m 2,7 C 9,0 C 12,9 km/h (3 Bft) 100,00 %
17.03.2016 14:00 9,9 C 62 % 1024,2 hPa 0,0 l/m 14,1 km/h (3 Bft) NO 42 1 min 0,000 mm 1,8 UV-I 563 W/m 3,0 C 5,4 C 20,9 km/h (4 Bft) 100,00 %
17.03.2016 14:01 10,1 C 60 % 1024,1 hPa 0,0 l/m 12,4 km/h (3 Bft) O-NO 59 1 min 0,330 mm 1,8 UV-I 551 W/m 2,7 C 6,4 C 19,3 km/h (3 Bft) 100,00 %
17.03.2016 14:02 10,1 C 59 % 1024,1 hPa 0,0 l/m 15,8 km/h (3 Bft) O 83 1 min 0,000 mm 1,8 UV-I 555 W/m 2,5 C 4,9 C 24,1 km/h (4 Bft) 100,00 %
17.03.2016 14:03 10,1 C 59 % 1024,1 hPa 0,0 l/m 15,7 km/h (3 Bft) O 80 1 min 0,000 mm 1,8 UV-I 551 W/m 2,5 C 5,0 C 19,3 km/h (3 Bft) 100,00 %
17.03.2016 14:04 10,1 C 60 % 1024,1 hPa 0,0 l/m 17,9 km/h (3 Bft) NO 42 1 min 0,000 mm 1,7 UV-I 539 W/m 2,7 C 4,1 C 22,5 km/h (4 Bft) 100,00 %
17.03.2016 14:05 10,1 C 59 % 1024,1 hPa 0,0 l/m 17,3 km/h (3 Bft) O 90 1 min 0,000 mm 1,7 UV-I 541 W/m 2,5 C 4,4 C 22,5 km/h (4 Bft) 100,00 %
17.03.2016 14:06 10,1 C 60 % 1024,1 hPa 0,0 l/m 19,3 km/h (3 Bft) O 83 1 min 0,000 mm 1,7 UV-I 555 W/m 2,7 C 3,6 C 22,5 km/h (4 Bft) 100,00 %
17.03.2016 14:07 10,1 C 60 % 1024,1 hPa 0,0 l/m 15,3 km/h (3 Bft) O-NO 66 1 min 0,000 mm 1,7 UV-I 551 W/m 2,7 C 5,1 C 19,3 km/h (3 Bft) 100,00 %
17.03.2016 14:08 10,1 C 59 % 1024,1 hPa 0,0 l/m 17,3 km/h (3 Bft) O-NO 73 1 min 0,000 mm 1,8 UV-I 559 W/m 2,5 C 4,4 C 19,3 km/h (3 Bft) 91,67 %
17.03.2016 14:09 10,1 C 60 % 1024,1 hPa 0,0 l/m 13,6 km/h (3 Bft) O-NO 67 1 min 0,000 mm 1,8 UV-I 568 W/m 2,7 C 5,9 C 19,3 km/h (3 Bft) 100,00 %
17.03.2016 14:10 10,1 C 63 % 1024,1 hPa 0,0 l/m 13,7 km/h (3 Bft) O-NO 71 1 min 0,000 mm 1,8 UV-I 564 W/m 3,4 C 5,8 C 17,7 km/h (3 Bft) 100,00 %
17.03.2016 14:11 10,2 C 62 % 1024,1 hPa 0,0 l/m 13,5 km/h (3 Bft) O-SO 103 1 min 0,000 mm 1,7 UV-I 565 W/m 3,3 C 6,0 C 16,1 km/h (3 Bft) 100,00 %
17.03.2016 14:12 10,3 C 60 % 1024,0 hPa 0,0 l/m 15,0 km/h (3 Bft) NO 46 1 min 0,000 mm 1,7 UV-I 563 W/m 2,9 C 5,5 C 19,3 km/h (3 Bft) 100,00 %
17.03.2016 14:13 10,3 C 60 % 1024,1 hPa 0,0 l/m 15,4 km/h (3 Bft) O-NO 60 1 min 0,000 mm 1,7 UV-I 563 W/m 2,9 C 5,3 C 24,1 km/h (4 Bft) 100,00 %
17.03.2016 14:14 10,3 C 60 % 1024,0 hPa 0,0 l/m 14,7 km/h (3 Bft) O-NO 57 1 min 0,000 mm 1,7 UV-I 561 W/m 2,9 C 5,6 C 22,5 km/h (4 Bft) 97,56 %
17.03.2016 14:15 10,2 C 59 % 1024,0 hPa 0,0 l/m 14,7 km/h (3 Bft) O-NO 69 1 min 0,000 mm 1,7 UV-I 561 W/m 2,6 C 5,5 C 19,3 km/h (3 Bft) 100,00 %
17.03.2016 14:16 10,2 C 63 % 1024,0 hPa 0,0 l/m 9,2 km/h (2 Bft) NO 44 1 min 0,000 mm 1,7 UV-I 558 W/m 3,5 C 8,3 C 16,1 km/h (3 Bft) 96,97 %
17.03.2016 14:17 10,2 C 60 % 1024,1 hPa 0,0 l/m 12,3 km/h (3 Bft) O-NO 74 1 min 0,000 mm 1,7 UV-I 555 W/m 2,8 C 6,6 C 16,1 km/h (3 Bft) 100,00 %
17.03.2016 14:18 10,2 C 60 % 1024,0 hPa 0,0 l/m 8,1 km/h (2 Bft) N-NO 26 1 min 0,000 mm 1,7 UV-I 554 W/m 2,8 C 9,0 C 9,7 km/h (2 Bft) 96,30 %
17.03.2016 14:19 10,3 C 63 % 1023,9 hPa 0,0 l/m 14,3 km/h (3 Bft) NO 41 1 min 0,000 mm 1,6 UV-I 546 W/m 3,6 C 5,8 C 20,9 km/h (4 Bft) 95,65 %
17.03.2016 14:20 10,4 C 62 % 1023,9 hPa 0,0 l/m 14,6 km/h (3 Bft) NO 54 1 min 0,000 mm 1,6 UV-I 541 W/m 3,4 C 5,8 C 19,3 km/h (3 Bft) 96,30 %
17.03.2016 14:21 10,4 C 63 % 1023,9 hPa 0,0 l/m 11,5 km/h (2 Bft) NO 53 1 min 0,000 mm 1,6 UV-I 538 W/m 3,7 C 7,2 C 16,1 km/h (3 Bft) 91,30 %
17.03.2016 14:22 10,4 C 65 % 1023,9 hPa 0,0 l/m 17,8 km/h (3 Bft) NO 54 1 min 0,000 mm 1,6 UV-I 534 W/m 4,1 C 4,5 C 24,1 km/h (4 Bft) 96,30 %
17.03.2016 14:23 10,5 C 63 % 1023,9 hPa 0,0 l/m 17,8 km/h (3 Bft) NO 50 1 min 0,000 mm 1,6 UV-I 522 W/m 3,8 C 4,7 C 20,9 km/h (4 Bft) 95,65 %
17.03.2016 14:24 10,4 C 62 % 1023,8 hPa 0,0 l/m 12,8 km/h (3 Bft) O-NO 67 1 min 0,000 mm 1,6 UV-I 520 W/m 3,4 C 6,6 C 20,9 km/h (4 Bft) 95,83 %
17.03.2016 14:25 10,4 C 60 % 1023,9 hPa 0,0 l/m 14,2 km/h (3 Bft) NO 48 1 min 0,000 mm 1,6 UV-I 527 W/m 3,0 C 6,0 C 20,9 km/h (4 Bft) 91,30 %
17.03.2016 14:26 10,3 C 59 % 1023,8 hPa 0,0 l/m 11,3 km/h (2 Bft) O-NO 76 1 min 0,000 mm 1,6 UV-I 528 W/m 2,6 C 7,2 C 16,1 km/h (3 Bft) 96,30 %
17.03.2016 14:27 10,3 C 61 % 1023,8 hPa 0,0 l/m 15,6 km/h (3 Bft) O-NO 62 1 min 0,000 mm 1,5 UV-I 526 W/m 3,1 C 5,3 C 17,7 km/h (3 Bft) 100,00 %
17.03.2016 14:28 10,3 C 61 % 1023,8 hPa 0,0 l/m 12,5 km/h (3 Bft) O-NO 75 1 min 0,000 mm 1,5 UV-I 518 W/m 3,1 C 6,6 C 14,5 km/h (3 Bft) 96,55 %
17.03.2016 14:29 10,3 C 63 % 1023,7 hPa 0,0 l/m 11,0 km/h (2 Bft) O-NO 59 1 min 0,000 mm 1,5 UV-I 515 W/m 3,6 C 7,4 C 16,1 km/h (3 Bft) 100,00 %
17.03.2016 14:30 10,3 C 64 % 1023,8 hPa 0,0 l/m 16,2 km/h (3 Bft) O-NO 60 1 min 0,000 mm 1,5 UV-I 513 W/m 3,8 C 5,0 C 22,5 km/h (4 Bft) 96,30 %
17.03.2016 14:31 10,3 C 62 % 1023,7 hPa 0,0 l/m 9,9 km/h (2 Bft) O-NO 64 1 min 0,000 mm 1,5 UV-I 520 W/m 3,3 C 8,0 C 12,9 km/h (3 Bft) 100,00 %
17.03.2016 14:32 10,3 C 63 % 1023,7 hPa 0,0 l/m 9,8 km/h (2 Bft) NO 53 1 min 0,000 mm 1,5 UV-I 521 W/m 3,6 C 8,0 C 14,5 km/h (3 Bft) 95,65 %
17.03.2016 14:33 10,4 C 63 % 1023,7 hPa 0,0 l/m 14,6 km/h (3 Bft) NO 52 1 min 0,000 mm 1,5 UV-I 522 W/m 3,7 C 5,8 C 20,9 km/h (4 Bft) 100,00 %
17.03.2016 14:34 10,4 C 64 % 1023,7 hPa 0,0 l/m 15,6 km/h (3 Bft) O-NO 61 1 min 0,000 mm 1,5 UV-I 517 W/m 3,9 C 5,4 C 22,5 km/h (4 Bft) 92,31 %
17.03.2016 14:35 10,4 C 63 % 1023,7 hPa 0,0 l/m 14,3 km/h (3 Bft) NO 49 1 min 0,000 mm 1,5 UV-I 513 W/m 3,7 C 5,9 C 20,9 km/h (4 Bft) 96,30 %
17.03.2016 14:36 10,4 C 65 % 1023,6 hPa 0,0 l/m 9,7 km/h (2 Bft) O-NO 63 1 min 0,000 mm 1,5 UV-I 517 W/m 4,1 C 8,2 C 16,1 km/h (3 Bft) 100,00 %
17.03.2016 14:37 10,5 C 65 % 1023,6 hPa 0,0 l/m 8,9 km/h (2 Bft) O 81 1 min 0,000 mm 1,4 UV-I 511 W/m 4,2 C 8,8 C 12,9 km/h (3 Bft) 96,30 %
17.03.2016 14:38 10,6 C 65 % 1023,6 hPa 0,0 l/m 9,5 km/h (2 Bft) O-NO 67 1 min 0,000 mm 1,4 UV-I 510 W/m 4,3 C 8,5 C 14,5 km/h (3 Bft) 100,00 %
17.03.2016 14:39 10,6 C 63 % 1023,6 hPa 0,0 l/m 13,1 km/h (3 Bft) O-NO 72 1 min 0,000 mm 1,4 UV-I 505 W/m 3,9 C 6,7 C 17,7 km/h (3 Bft) 91,67 %
17.03.2016 14:40 10,6 C 63 % 1023,6 hPa 0,0 l/m 13,7 km/h (3 Bft) O 96 1 min 0,000 mm 1,4 UV-I 500 W/m 3,9 C 6,4 C 16,1 km/h (3 Bft) 96,15 %
17.03.2016 14:41 10,5 C 64 % 1023,5 hPa 0,0 l/m 14,0 km/h (3 Bft) O-NO 68 1 min 0,000 mm 1,4 UV-I 499 W/m 4,0 C 6,2 C 20,9 km/h (4 Bft) 96,30 %
17.03.2016 14:42 10,6 C 64 % 1023,5 hPa 0,0 l/m 10,4 km/h (2 Bft) O-NO 58 1 min 0,000 mm 1,4 UV-I 497 W/m 4,1 C 8,0 C 17,7 km/h (3 Bft) 100,00 %
17.03.2016 14:43 10,6 C 64 % 1023,6 hPa 0,0 l/m 8,7 km/h (2 Bft) O-NO 65 1 min 0,000 mm 1,4 UV-I 497 W/m 4,1 C 9,0 C 14,5 km/h (3 Bft) 96,15 %
17.03.2016 14:44 10,6 C 64 % 1023,5 hPa 0,0 l/m 13,7 km/h (3 Bft) O-NO 73 1 min 0,000 mm 1,4 UV-I 499 W/m 4,1 C 6,4 C 16,1 km/h (3 Bft) 100,00 %
17.03.2016 14:45 10,6 C 62 % 1023,5 hPa 0,0 l/m 12,0 km/h (2 Bft) NO 52 1 min 0,000 mm 1,4 UV-I 497 W/m 3,6 C 7,2 C 16,1 km/h (3 Bft) 100,00 %
17.03.2016 14:46 10,6 C 62 % 1023,5 hPa 0,0 l/m 11,4 km/h (2 Bft) O-NO 78 1 min 0,000 mm 1,3 UV-I 495 W/m 3,6 C 7,5 C 16,1 km/h (3 Bft) 100,00 %
17.03.2016 14:47 10,6 C 63 % 1023,5 hPa 0,0 l/m 9,8 km/h (2 Bft) O 80 1 min 0,000 mm 1,3 UV-I 491 W/m 3,9 C 8,4 C 17,7 km/h (3 Bft) 96,55 %
17.03.2016 14:48 10,6 C 63 % 1023,5 hPa 0,0 l/m 12,0 km/h (2 Bft) O-NO 73 1 min 0,000 mm 1,3 UV-I 489 W/m 3,9 C 7,2 C 14,5 km/h (3 Bft) 100,00 %
17.03.2016 14:49 10,7 C 61 % 1023,5 hPa 0,0 l/m 10,6 km/h (2 Bft) O-SO 122 1 min 0,000 mm 1,3 UV-I 486 W/m 3,5 C 8,0 C 14,5 km/h (3 Bft) 100,00 %
17.03.2016 14:50 10,6 C 61 % 1023,5 hPa 0,0 l/m 9,7 km/h (2 Bft) O-NO 67 1 min 0,000 mm 1,3 UV-I 484 W/m 3,4 C 8,4 C 17,7 km/h (3 Bft) 100,00 %
17.03.2016 14:51 10,6 C 61 % 1023,5 hPa 0,0 l/m 14,8 km/h (3 Bft) O 80 1 min 0,000 mm 1,3 UV-I 480 W/m 3,4 C 5,9 C 19,3 km/h (3 Bft) 100,00 %
17.03.2016 14:52 10,6 C 60 % 1023,5 hPa 0,0 l/m 13,3 km/h (3 Bft) O-NO 61 1 min 0,000 mm 1,3 UV-I 476 W/m 3,2 C 6,6 C 17,7 km/h (3 Bft) 100,00 %
17.03.2016 14:53 10,6 C 60 % 1023,5 hPa 0,0 l/m 14,1 km/h (3 Bft) NO 51 1 min 0,000 mm 1,3 UV-I 475 W/m 3,2 C 6,2 C 17,7 km/h (3 Bft) 95,65 %
17.03.2016 14:54 10,6 C 61 % 1023,5 hPa 0,0 l/m 14,6 km/h (3 Bft) O-NO 64 1 min 0,000 mm 1,3 UV-I 472 W/m 3,4 C 6,0 C 20,9 km/h (4 Bft) 100,00 %
17.03.2016 14:55 10,6 C 63 % 1023,4 hPa 0,0 l/m 13,7 km/h (3 Bft) O-NO 57 1 min 0,000 mm 1,3 UV-I 475 W/m 3,9 C 6,4 C 20,9 km/h (4 Bft) 100,00 %
17.03.2016 14:56 10,6 C 60 % 1023,4 hPa 0,0 l/m 11,7 km/h (2 Bft) NO 42 1 min 0,000 mm 1,2 UV-I 473 W/m 3,2 C 7,4 C 17,7 km/h (3 Bft) 100,00 %
17.03.2016 14:57 10,6 C 60 % 1023,4 hPa 0,0 l/m 16,4 km/h (3 Bft) NO 49 1 min 0,000 mm 1,2 UV-I 471 W/m 3,2 C 5,3 C 19,3 km/h (3 Bft) 95,65 %
17.03.2016 14:58 10,5 C 61 % 1023,5 hPa 0,0 l/m 15,2 km/h (3 Bft) O-NO 66 1 min 0,000 mm 1,2 UV-I 466 W/m 3,3 C 5,7 C 20,9 km/h (4 Bft) 100,00 %
17.03.2016 14:59 10,4 C 62 % 1023,4 hPa 0,0 l/m 11,1 km/h (2 Bft) NO 53 1 min 0,000 mm 1,2 UV-I 466 W/m 3,4 C 7,4 C 17,7 km/h (3 Bft) 100,00 %
17.03.2016 15:00 10,4 C 62 % 1023,4 hPa 0,0 l/m 12,2 km/h (2 Bft) O 92 1 min 0,000 mm 1,2 UV-I 463 W/m 3,4 C 6,9 C 16,1 km/h (3 Bft) 100,00 %
17.03.2016 15:02 10,5 C 63 % 1023,4 hPa 0,0 l/m 12,0 km/h (2 Bft) NO 56 2 min 0,305 mm 1,2 UV-I 457 W/m 3,8 C 7,1 C 19,3 km/h (3 Bft) 97,73 %
17.03.2016 15:03 10,6 C 62 % 1023,4 hPa 0,0 l/m 17,1 km/h (3 Bft) O-NO 68 1 min 0,000 mm 1,2 UV-I 455 W/m 3,6 C 5,0 C 25,7 km/h (4 Bft) 100,00 %
17.03.2016 15:04 10,5 C 61 % 1023,4 hPa 0,0 l/m 18,1 km/h (3 Bft) O-NO 73 1 min 0,000 mm 1,1 UV-I 454 W/m 3,3 C 4,6 C 24,1 km/h (4 Bft) 100,00 %
17.03.2016 15:05 10,5 C 60 % 1023,4 hPa 0,0 l/m 11,6 km/h (2 Bft) O-NO 59 1 min 0,000 mm 1,1 UV-I 454 W/m 3,1 C 7,3 C 16,1 km/h (3 Bft) 100,00 %
17.03.2016 15:06 10,6 C 61 % 1023,3 hPa 0,0 l/m 8,0 km/h (2 Bft) O 82 1 min 0,000 mm 1,1 UV-I 452 W/m 3,4 C 9,5 C 14,5 km/h (3 Bft) 100,00 %
17.03.2016 15:07 10,6 C 62 % 1023,4 hPa 0,0 l/m 9,9 km/h (2 Bft) O 90 1 min 0,000 mm 1,1 UV-I 449 W/m 3,6 C 8,3 C 14,5 km/h (3 Bft) 100,00 %
17.03.2016 15:08 10,6 C 61 % 1023,4 hPa 0,0 l/m 12,7 km/h (3 Bft) O-NO 77 1 min 0,000 mm 1,1 UV-I 445 W/m 3,4 C 6,9 C 19,3 km/h (3 Bft) 100,00 %
17.03.2016 15:09 10,6 C 60 % 1023,4 hPa 0,0 l/m 17,1 km/h (3 Bft) O-NO 65 1 min 0,000 mm 1,1 UV-I 440 W/m 3,2 C 5,0 C 20,9 km/h (4 Bft) 100,00 %
17.03.2016 15:10 10,6 C 61 % 1023,3 hPa 0,0 l/m 13,1 km/h (3 Bft) O-NO 68 1 min 0,000 mm 1,1 UV-I 438 W/m 3,4 C 6,7 C 17,7 km/h (3 Bft) 100,00 %
17.03.2016 15:11 10,6 C 61 % 1023,3 hPa 0,0 l/m 13,2 km/h (3 Bft) O 82 1 min 0,000 mm 1,1 UV-I 433 W/m 3,4 C 6,6 C 19,3 km/h (3 Bft) 100,00 %
17.03.2016 15:12 10,6 C 60 % 1023,3 hPa 0,0 l/m 16,6 km/h (3 Bft) O-NO 74 1 min 0,000 mm 1,1 UV-I 434 W/m 3,2 C 5,2 C 20,9 km/h (4 Bft) 100,00 %
17.03.2016 15:13 10,6 C 60 % 1023,3 hPa 0,0 l/m 16,1 km/h (3 Bft) O-NO 59 1 min 0,000 mm 1,1 UV-I 432 W/m 3,2 C 5,4 C 19,3 km/h (3 Bft) 100,00 %
17.03.2016 15:14 10,6 C 60 % 1023,3 hPa 0,0 l/m 15,6 km/h (3 Bft) O 89 1 min 0,000 mm 1,0 UV-I 427 W/m 3,2 C 5,6 C 19,3 km/h (3 Bft) 100,00 %
17.03.2016 15:15 10,6 C 60 % 1023,3 hPa 0,0 l/m 13,3 km/h (3 Bft) O-NO 76 1 min 0,000 mm 1,0 UV-I 428 W/m 3,2 C 6,6 C 17,7 km/h (3 Bft) 100,00 %
17.03.2016 15:16 10,5 C 58 % 1023,3 hPa 0,0 l/m 15,7 km/h (3 Bft) O 99 1 min 0,000 mm 1,0 UV-I 432 W/m 2,6 C 5,5 C 22,5 km/h (4 Bft) 92,86 %
17.03.2016 15:17 10,5 C 60 % 1023,3 hPa 0,0 l/m 17,6 km/h (3 Bft) O-NO 69 1 min 0,000 mm 1,0 UV-I 425 W/m 3,1 C 4,7 C 20,9 km/h (4 Bft) 100,00 %
17.03.2016 15:18 10,5 C 59 % 1023,3 hPa 0,0 l/m 12,6 km/h (3 Bft) O-NO 61 1 min 0,000 mm 1,0 UV-I 420 W/m 2,8 C 6,8 C 22,5 km/h (4 Bft) 96,15 %
17.03.2016 15:19 10,5 C 60 % 1023,2 hPa 0,0 l/m 14,8 km/h (3 Bft) NO 52 1 min 0,000 mm 1,0 UV-I 416 W/m 3,1 C 5,8 C 22,5 km/h (4 Bft) 100,00 %
17.03.2016 15:20 10,6 C 60 % 1023,3 hPa 0,0 l/m 16,2 km/h (3 Bft) O 87 1 min 0,000 mm 1,0 UV-I 412 W/m 3,2 C 5,4 C 20,9 km/h (4 Bft) 100,00 %
17.03.2016 15:21 10,6 C 61 % 1023,2 hPa 0,0 l/m 10,3 km/h (2 Bft) O 80 1 min 0,000 mm 0,9 UV-I 406 W/m 3,4 C 8,1 C 14,5 km/h (3 Bft) 100,00 %
17.03.2016 15:22 10,6 C 60 % 1023,2 hPa 0,0 l/m 11,3 km/h (2 Bft) O-NO 63 1 min 0,000 mm 0,9 UV-I 396 W/m 3,2 C 7,6 C 17,7 km/h (3 Bft) 100,00 %
17.03.2016 15:23 10,6 C 60 % 1023,2 hPa 0,0 l/m 15,3 km/h (3 Bft) O-NO 77 1 min 0,000 mm 0,9 UV-I 391 W/m 3,2 C 5,7 C 17,7 km/h (3 Bft) 100,00 %
17.03.2016 15:24 10,6 C 61 % 1023,2 hPa 0,0 l/m 13,3 km/h (3 Bft) O-NO 66 1 min 0,000 mm 0,9 UV-I 396 W/m 3,4 C 6,6 C 17,7 km/h (3 Bft) 95,65 %
17.03.2016 15:25 10,6 C 61 % 1023,2 hPa 0,0 l/m 12,1 km/h (2 Bft) O-NO 68 1 min 0,000 mm 0,9 UV-I 392 W/m 3,4 C 7,2 C 16,1 km/h (3 Bft) 100,00 %
17.03.2016 15:26 10,6 C 59 % 1023,2 hPa 0,0 l/m 16,3 km/h (3 Bft) O-NO 57 1 min 0,000 mm 0,9 UV-I 389 W/m 2,9 C 5,3 C 20,9 km/h (4 Bft) 100,00 %
17.03.2016 15:27 10,6 C 59 % 1023,2 hPa 0,0 l/m 18,0 km/h (3 Bft) O-NO 74 1 min 0,000 mm 0,9 UV-I 391 W/m 2,9 C 4,7 C 22,5 km/h (4 Bft) 100,00 %
17.03.2016 15:28 10,6 C 59 % 1023,2 hPa 0,0 l/m 18,7 km/h (3 Bft) O-NO 69 1 min 0,000 mm 0,9 UV-I 388 W/m 2,9 C 4,5 C 20,9 km/h (4 Bft) 100,00 %
17.03.2016 15:29 10,6 C 59 % 1023,2 hPa 0,0 l/m 14,2 km/h (3 Bft) NO 44 1 min 0,000 mm 0,9 UV-I 391 W/m 2,9 C 6,2 C 17,7 km/h (3 Bft) 100,00 %
17.03.2016 15:30 10,5 C 58 % 1023,2 hPa 0,0 l/m 16,9 km/h (3 Bft) O-NO 62 1 min 0,000 mm 0,9 UV-I 394 W/m 2,6 C 5,0 C 20,9 km/h (4 Bft) 100,00 %
17.03.2016 15:31 10,5 C 58 % 1023,2 hPa 0,0 l/m 14,8 km/h (3 Bft) O-NO 74 1 min 0,000 mm 0,9 UV-I 392 W/m 2,6 C 5,8 C 19,3 km/h (3 Bft) 100,00 %
17.03.2016 15:32 10,5 C 59 % 1023,2 hPa 0,0 l/m 16,1 km/h (3 Bft) O-NO 72 1 min 0,000 mm 0,8 UV-I 388 W/m 2,8 C 5,3 C 19,3 km/h (3 Bft) 96,30 %
17.03.2016 15:33 10,5 C 59 % 1023,2 hPa 0,0 l/m 9,9 km/h (2 Bft) O 90 1 min 0,000 mm 0,8 UV-I 388 W/m 2,8 C 8,2 C 14,5 km/h (3 Bft) 100,00 %
17.03.2016 15:34 10,6 C 60 % 1023,2 hPa 0,0 l/m 15,0 km/h (3 Bft) NO 40 1 min 0,000 mm 0,8 UV-I 383 W/m 3,2 C 5,9 C 17,7 km/h (3 Bft) 100,00 %
17.03.2016 15:35 10,6 C 60 % 1023,2 hPa 0,0 l/m 14,3 km/h (3 Bft) O 86 1 min 0,000 mm 0,8 UV-I 380 W/m 3,2 C 6,2 C 20,9 km/h (4 Bft) 100,00 %
17.03.2016 15:36 10,6 C 59 % 1023,2 hPa 0,0 l/m 16,5 km/h (3 Bft) O 86 1 min 0,000 mm 0,8 UV-I 377 W/m 2,9 C 5,3 C 20,9 km/h (4 Bft) 100,00 %
17.03.2016 15:37 10,6 C 59 % 1023,2 hPa 0,0 l/m 15,3 km/h (3 Bft) O-NO 70 1 min 0,000 mm 0,8 UV-I 371 W/m 2,9 C 5,7 C 19,3 km/h (3 Bft) 100,00 %
17.03.2016 15:38 10,6 C 59 % 1023,1 hPa 0,0 l/m 13,3 km/h (3 Bft) O 84 1 min 0,000 mm 0,8 UV-I 369 W/m 2,9 C 6,6 C 17,7 km/h (3 Bft) 100,00 %
17.03.2016 15:39 10,6 C 59 % 1023,2 hPa 0,0 l/m 12,7 km/h (3 Bft) O 81 1 min 0,000 mm 0,8 UV-I 367 W/m 2,9 C 6,9 C 19,3 km/h (3 Bft) 100,00 %
17.03.2016 15:40 10,6 C 60 % 1023,2 hPa 0,0 l/m 14,5 km/h (3 Bft) O-NO 63 1 min 0,000 mm 0,8 UV-I 362 W/m 3,2 C 6,1 C 19,3 km/h (3 Bft) 100,00 %
17.03.2016 15:41 10,6 C 59 % 1023,1 hPa 0,0 l/m 16,3 km/h (3 Bft) O 82 1 min 0,000 mm 0,7 UV-I 360 W/m 2,9 C 5,3 C 24,1 km/h (4 Bft) 100,00 %
17.03.2016 15:42 10,5 C 58 % 1023,1 hPa 0,0 l/m 13,5 km/h (3 Bft) O-NO 66 1 min 0,000 mm 0,7 UV-I 353 W/m 2,6 C 6,4 C 17,7 km/h (3 Bft) 100,00 %
17.03.2016 15:43 10,5 C 58 % 1023,1 hPa 0,0 l/m 14,3 km/h (3 Bft) NO 46 1 min 0,000 mm 0,7 UV-I 353 W/m 2,6 C 6,0 C 17,7 km/h (3 Bft) 100,00 %
17.03.2016 15:44 10,4 C 58 % 1023,1 hPa 0,0 l/m 14,0 km/h (3 Bft) O-NO 71 1 min 0,000 mm 0,7 UV-I 352 W/m 2,5 C 6,0 C 20,9 km/h (4 Bft) 96,30 %
17.03.2016 15:45 10,4 C 59 % 1023,1 hPa 0,0 l/m 16,8 km/h (3 Bft) O 81 1 min 0,000 mm 0,7 UV-I 350 W/m 2,7 C 4,9 C 19,3 km/h (3 Bft) 100,00 %
17.03.2016 15:46 10,4 C 59 % 1023,0 hPa 0,0 l/m 13,0 km/h (3 Bft) O 82 1 min 0,000 mm 0,7 UV-I 348 W/m 2,7 C 6,5 C 17,7 km/h (3 Bft) 100,00 %
17.03.2016 15:47 10,4 C 59 % 1023,0 hPa 0,0 l/m 15,4 km/h (3 Bft) O 81 1 min 0,000 mm 0,7 UV-I 345 W/m 2,7 C 5,5 C 20,9 km/h (4 Bft) 100,00 %
17.03.2016 15:48 10,4 C 59 % 1023,0 hPa 0,0 l/m 13,0 km/h (3 Bft) O-SO 115 1 min 0,000 mm 0,7 UV-I 342 W/m 2,7 C 6,5 C 16,1 km/h (3 Bft) 96,15 %
17.03.2016 15:49 10,4 C 60 % 1023,0 hPa 0,0 l/m 11,9 km/h (2 Bft) O-SO 103 1 min 0,000 mm 0,7 UV-I 340 W/m 3,0 C 7,0 C 14,5 km/h (3 Bft) 100,00 %
17.03.2016 15:50 10,4 C 59 % 1023,0 hPa 0,0 l/m 13,1 km/h (3 Bft) O-NO 57 1 min 0,000 mm 0,7 UV-I 337 W/m 2,7 C 6,4 C 17,7 km/h (3 Bft) 100,00 %
17.03.2016 15:51 10,4 C 60 % 1023,0 hPa 0,0 l/m 9,6 km/h (2 Bft) O 82 1 min 0,000 mm 0,7 UV-I 336 W/m 3,0 C 8,3 C 12,9 km/h (3 Bft) 100,00 %
17.03.2016 15:52 10,4 C 60 % 1023,0 hPa 0,0 l/m 10,2 km/h (2 Bft) O-NO 69 1 min 0,000 mm 0,6 UV-I 336 W/m 3,0 C 7,9 C 12,9 km/h (3 Bft) 100,00 %
17.03.2016 15:53 10,5 C 60 % 1023,0 hPa 0,0 l/m 7,6 km/h (2 Bft) O-NO 71 1 min 0,000 mm 0,6 UV-I 331 W/m 3,1 C 9,6 C 9,7 km/h (2 Bft) 100,00 %
17.03.2016 15:54 10,5 C 59 % 1023,0 hPa 0,0 l/m 11,1 km/h (2 Bft) O-NO 68 1 min 0,000 mm 0,6 UV-I 326 W/m 2,8 C 7,5 C 14,5 km/h (3 Bft) 100,00 %
17.03.2016 15:55 10,4 C 59 % 1023,0 hPa 0,0 l/m 8,5 km/h (2 Bft) O 79 1 min 0,000 mm 0,6 UV-I 324 W/m 2,7 C 8,9 C 14,5 km/h (3 Bft) 100,00 %
17.03.2016 15:56 10,4 C 60 % 1023,0 hPa 0,0 l/m 9,5 km/h (2 Bft) O-NO 71 1 min 0,000 mm 0,6 UV-I 323 W/m 3,0 C 8,3 C 14,5 km/h (3 Bft) 100,00 %
17.03.2016 15:57 10,5 C 59 % 1023,0 hPa 0,0 l/m 13,6 km/h (3 Bft) O 88 1 min 0,000 mm 0,6 UV-I 319 W/m 2,8 C 6,3 C 16,1 km/h (3 Bft) 100,00 %
17.03.2016 15:58 10,4 C 59 % 1023,0 hPa 0,0 l/m 15,2 km/h (3 Bft) O 82 1 min 0,000 mm 0,6 UV-I 315 W/m 2,7 C 5,5 C 19,3 km/h (3 Bft) 100,00 %
17.03.2016 15:59 10,4 C 60 % 1023,0 hPa 0,0 l/m 14,9 km/h (3 Bft) NO 44 1 min 0,000 mm 0,6 UV-I 313 W/m 3,0 C 5,7 C 22,5 km/h (4 Bft) 100,00 %
17.03.2016 16:00 10,5 C 60 % 1023,0 hPa 0,0 l/m 15,6 km/h (3 Bft) O-NO 71 1 min 0,000 mm 0,6 UV-I 311 W/m 3,1 C 5,5 C 20,9 km/h (4 Bft) 94,12 %
17.03.2016 16:02 10,4 C 60 % 1022,9 hPa 0,0 l/m 13,6 km/h (3 Bft) O 79 2 min 0,228 mm 0,6 UV-I 307 W/m 3,0 C 6,2 C 22,5 km/h (4 Bft) 98,11 %
17.03.2016 16:03 10,4 C 59 % 1022,9 hPa 0,0 l/m 11,1 km/h (2 Bft) O-NO 68 1 min 0,000 mm 0,5 UV-I 302 W/m 2,7 C 7,4 C 17,7 km/h (3 Bft) 100,00 %
17.03.2016 16:04 10,4 C 60 % 1022,9 hPa 0,0 l/m 13,8 km/h (3 Bft) O 93 1 min 0,000 mm 0,5 UV-I 301 W/m 3,0 C 6,1 C 19,3 km/h (3 Bft) 96,55 %
17.03.2016 16:05 10,4 C 61 % 1022,9 hPa 0,0 l/m 15,3 km/h (3 Bft) O-NO 59 1 min 0,000 mm 0,5 UV-I 296 W/m 3,2 C 5,5 C 22,5 km/h (4 Bft) 95,83 %
17.03.2016 16:06 10,4 C 60 % 1022,9 hPa 0,0 l/m 14,5 km/h (3 Bft) O 79 1 min 0,000 mm 0,5 UV-I 295 W/m 3,0 C 5,8 C 25,7 km/h (4 Bft) 100,00 %
17.03.2016 16:07 10,4 C 60 % 1022,9 hPa 0,0 l/m 17,7 km/h (3 Bft) O-NO 75 1 min 0,000 mm 0,5 UV-I 292 W/m 3,0 C 4,6 C 20,9 km/h (4 Bft) 96,55 %
17.03.2016 16:08 10,4 C 60 % 1022,9 hPa 0,0 l/m 14,6 km/h (3 Bft) O-NO 63 1 min 0,000 mm 0,5 UV-I 288 W/m 3,0 C 5,8 C 17,7 km/h (3 Bft) 100,00 %
17.03.2016 16:09 10,4 C 59 % 1022,9 hPa 0,0 l/m 14,1 km/h (3 Bft) O-NO 62 1 min 0,000 mm 0,5 UV-I 286 W/m 2,7 C 6,0 C 17,7 km/h (3 Bft) 95,65 %
17.03.2016 16:10 10,3 C 59 % 1022,9 hPa 0,0 l/m 10,2 km/h (2 Bft) O-SO 103 1 min 0,000 mm 0,5 UV-I 281 W/m 2,6 C 7,8 C 12,9 km/h (3 Bft) 100,00 %
17.03.2016 16:11 10,4 C 60 % 1022,9 hPa 0,0 l/m 11,8 km/h (2 Bft) O-NO 74 1 min 0,000 mm 0,5 UV-I 279 W/m 3,0 C 7,1 C 17,7 km/h (3 Bft) 96,15 %
17.03.2016 16:12 10,4 C 60 % 1022,9 hPa 0,0 l/m 11,7 km/h (2 Bft) O-NO 65 1 min 0,000 mm 0,5 UV-I 279 W/m 3,0 C 7,1 C 17,7 km/h (3 Bft) 96,30 %
17.03.2016 16:13 10,3 C 59 % 1022,9 hPa 0,0 l/m 12,8 km/h (3 Bft) O-NO 61 1 min 0,000 mm 0,5 UV-I 276 W/m 2,6 C 6,5 C 16,1 km/h (3 Bft) 100,00 %
17.03.2016 16:14 10,3 C 60 % 1022,8 hPa 0,0 l/m 13,1 km/h (3 Bft) O-SO 103 1 min 0,000 mm 0,5 UV-I 272 W/m 2,9 C 6,3 C 16,1 km/h (3 Bft) 96,97 %
17.03.2016 16:15 10,3 C 60 % 1022,8 hPa 0,0 l/m 15,1 km/h (3 Bft) O-NO 75 1 min 0,000 mm 0,2 UV-I 269 W/m 2,9 C 5,5 C 17,7 km/h (3 Bft) 100,00 %
17.03.2016 16:16 10,3 C 60 % 1022,8 hPa 0,0 l/m 11,0 km/h (2 Bft) O-NO 73 1 min 0,000 mm 0,0 UV-I 265 W/m 2,9 C 7,4 C 14,5 km/h (3 Bft) 96,30 %
17.03.2016 16:17 10,3 C 60 % 1022,7 hPa 0,0 l/m 10,3 km/h (2 Bft) O-NO 71 1 min 0,000 mm 0,0 UV-I 263 W/m 2,9 C 7,8 C 14,5 km/h (3 Bft) 100,00 %
17.03.2016 16:18 10,4 C 61 % 1022,8 hPa 0,0 l/m 8,1 km/h (2 Bft) NO 55 1 min 0,000 mm 0,0 UV-I 261 W/m 3,2 C 9,2 C 12,9 km/h (3 Bft) 97,56 %
17.03.2016 16:19 10,4 C 60 % 1022,8 hPa 0,0 l/m 11,0 km/h (2 Bft) O-NO 62 1 min 0,000 mm 0,0 UV-I 259 W/m 3,0 C 7,5 C 17,7 km/h (3 Bft) 98,55 %
17.03.2016 16:20 10,4 C 60 % 1022,9 hPa 0,0 l/m 12,0 km/h (2 Bft) O-NO 58 1 min 0,000 mm 0,0 UV-I 256 W/m 3,0 C 7,0 C 16,1 km/h (3 Bft) 97,56 %
17.03.2016 16:21 10,4 C 61 % 1022,8 hPa 0,0 l/m 14,1 km/h (3 Bft) O 79 1 min 0,000 mm 0,0 UV-I 253 W/m 3,2 C 6,0 C 17,7 km/h (3 Bft) 95,65 %
17.03.2016 16:22 10,4 C 60 % 1022,9 hPa 0,0 l/m 14,3 km/h (3 Bft) O 88 1 min 0,000 mm 0,0 UV-I 250 W/m 3,0 C 5,9 C 19,3 km/h (3 Bft) 100,00 %
17.03.2016 16:23 10,4 C 60 % 1022,9 hPa 0,0 l/m 12,6 km/h (3 Bft) O-NO 59 1 min 0,000 mm 0,0 UV-I 248 W/m 3,0 C 6,7 C 17,7 km/h (3 Bft) 92,31 %
17.03.2016 16:24 10,3 C 60 % 1022,8 hPa 0,0 l/m 9,7 km/h (2 Bft) NO 56 1 min 0,000 mm 0,0 UV-I 245 W/m 2,9 C 8,1 C 11,3 km/h (2 Bft) 98,54 %
17.03.2016 16:25 10,3 C 61 % 1022,8 hPa 0,0 l/m 11,7 km/h (2 Bft) NO 55 1 min 0,000 mm 0,0 UV-I 241 W/m 3,1 C 7,0 C 17,7 km/h (3 Bft) 97,62 %
17.03.2016 16:26 10,3 C 61 % 1022,8 hPa 0,0 l/m 14,8 km/h (3 Bft) O-NO 61 1 min 0,000 mm 0,0 UV-I 237 W/m 3,1 C 5,6 C 17,7 km/h (3 Bft) 96,55 %
17.03.2016 16:27 10,3 C 61 % 1022,7 hPa 0,0 l/m 12,0 km/h (2 Bft) NO 36 1 min 0,000 mm 0,0 UV-I 232 W/m 3,1 C 6,9 C 16,1 km/h (3 Bft) 100,00 %
17.03.2016 16:28 10,3 C 62 % 1022,7 hPa 0,0 l/m 15,8 km/h (3 Bft) O-NO 75 1 min 0,000 mm 0,0 UV-I 229 W/m 3,3 C 5,2 C 20,9 km/h (4 Bft) 100,00 %
17.03.2016 16:29 10,4 C 61 % 1022,7 hPa 0,0 l/m 15,2 km/h (3 Bft) O 94 1 min 0,000 mm 0,0 UV-I 228 W/m 3,2 C 5,5 C 20,9 km/h (4 Bft) 96,30 %
17.03.2016 16:30 10,3 C 61 % 1022,7 hPa 0,0 l/m 15,8 km/h (3 Bft) O-NO 69 1 min 0,000 mm 0,0 UV-I 227 W/m 3,1 C 5,2 C 17,7 km/h (3 Bft) 96,15 %
17.03.2016 16:31 10,3 C 60 % 1022,7 hPa 0,0 l/m 15,1 km/h (3 Bft) O 96 1 min 0,000 mm 0,0 UV-I 220 W/m 2,9 C 5,5 C 20,9 km/h (4 Bft) 100,00 %
17.03.2016 16:32 10,3 C 60 % 1022,7 hPa 0,0 l/m 10,5 km/h (2 Bft) NO 56 1 min 0,000 mm 0,0 UV-I 214 W/m 2,9 C 7,6 C 17,7 km/h (3 Bft) 100,00 %
17.03.2016 16:33 10,3 C 61 % 1022,7 hPa 0,0 l/m 11,2 km/h (2 Bft) O 80 1 min 0,000 mm 0,0 UV-I 209 W/m 3,1 C 7,3 C 14,5 km/h (3 Bft) 100,00 %
17.03.2016 16:34 10,3 C 60 % 1022,7 hPa 0,0 l/m 14,8 km/h (3 Bft) O-NO 69 1 min 0,000 mm 0,0 UV-I 206 W/m 2,9 C 5,6 C 19,3 km/h (3 Bft) 95,65 %
17.03.2016 16:35 10,2 C 60 % 1022,7 hPa 0,0 l/m 10,2 km/h (2 Bft) O-NO 69 1 min 0,000 mm 0,0 UV-I 203 W/m 2,8 C 7,7 C 14,5 km/h (3 Bft) 100,00 %
17.03.2016 16:36 10,3 C 61 % 1022,7 hPa 0,0 l/m 12,1 km/h (2 Bft) O-SO 106 1 min 0,000 mm 0,0 UV-I 201 W/m 3,1 C 6,8 C 17,7 km/h (3 Bft) 100,00 %
17.03.2016 16:37 10,3 C 61 % 1022,7 hPa 0,0 l/m 15,7 km/h (3 Bft) O-NO 76 1 min 0,000 mm 0,0 UV-I 199 W/m 3,1 C 5,2 C 22,5 km/h (4 Bft) 100,00 %
17.03.2016 16:38 10,2 C 61 % 1022,6 hPa 0,0 l/m 12,8 km/h (3 Bft) O-NO 76 1 min 0,000 mm 0,0 UV-I 196 W/m 3,0 C 6,4 C 16,1 km/h (3 Bft) 100,00 %
17.03.2016 16:39 10,2 C 61 % 1022,6 hPa 0,0 l/m 14,8 km/h (3 Bft) O-SO 103 1 min 0,000 mm 0,0 UV-I 193 W/m 3,0 C 5,5 C 22,5 km/h (4 Bft) 100,00 %
17.03.2016 16:40 10,2 C 61 % 1022,6 hPa 0,0 l/m 13,5 km/h (3 Bft) O 81 1 min 0,000 mm 0,0 UV-I 190 W/m 3,0 C 6,0 C 17,7 km/h (3 Bft) 100,00 %
17.03.2016 16:41 10,2 C 61 % 1022,6 hPa 0,0 l/m 15,1 km/h (3 Bft) O 83 1 min 0,000 mm 0,0 UV-I 187 W/m 3,0 C 5,3 C 20,9 km/h (4 Bft) 100,00 %
17.03.2016 16:42 10,2 C 60 % 1022,6 hPa 0,0 l/m 14,7 km/h (3 Bft) O-NO 78 1 min 0,000 mm 0,0 UV-I 184 W/m 2,8 C 5,5 C 17,7 km/h (3 Bft) 100,00 %
17.03.2016 16:43 10,1 C 60 % 1022,6 hPa 0,0 l/m 11,5 km/h (2 Bft) O 85 1 min 0,000 mm 0,0 UV-I 182 W/m 2,7 C 6,9 C 14,5 km/h (3 Bft) 93,33 %
17.03.2016 16:44 10,2 C 62 % 1022,6 hPa 0,0 l/m 7,5 km/h (2 Bft) O-NO 66 1 min 0,000 mm 0,0 UV-I 179 W/m 3,3 C 9,4 C 9,7 km/h (2 Bft) 100,00 %
17.03.2016 16:45 10,1 C 62 % 1022,6 hPa 0,0 l/m 14,1 km/h (3 Bft) O-NO 63 1 min 0,000 mm 0,0 UV-I 176 W/m 3,2 C 5,6 C 20,9 km/h (4 Bft) 100,00 %
17.03.2016 16:46 10,1 C 62 % 1022,6 hPa 0,0 l/m 13,3 km/h (3 Bft) O-NO 72 1 min 0,000 mm 0,0 UV-I 171 W/m 3,2 C 6,0 C 19,3 km/h (3 Bft) 100,00 %
17.03.2016 16:47 10,2 C 62 % 1022,6 hPa 0,0 l/m 11,5 km/h (2 Bft) O-NO 70 1 min 0,000 mm 0,0 UV-I 168 W/m 3,3 C 7,0 C 16,1 km/h (3 Bft) 100,00 %
17.03.2016 16:48 10,1 C 62 % 1022,6 hPa 0,0 l/m 13,2 km/h (3 Bft) O-NO 68 1 min 0,000 mm 0,0 UV-I 165 W/m 3,2 C 6,0 C 17,7 km/h (3 Bft) 100,00 %
17.03.2016 16:49 10,1 C 63 % 1022,6 hPa 0,0 l/m 10,8 km/h (2 Bft) O-NO 70 1 min 0,000 mm 0,0 UV-I 163 W/m 3,4 C 7,3 C 14,5 km/h (3 Bft) 100,00 %
17.03.2016 16:50 10,1 C 62 % 1022,6 hPa 0,0 l/m 14,8 km/h (3 Bft) O-NO 63 1 min 0,000 mm 0,0 UV-I 159 W/m 3,2 C 5,3 C 19,3 km/h (3 Bft) 100,00 %
17.03.2016 16:51 10,1 C 62 % 1022,6 hPa 0,0 l/m 16,7 km/h (3 Bft) O-NO 67 1 min 0,000 mm 0,0 UV-I 156 W/m 3,2 C 4,6 C 20,9 km/h (4 Bft) 96,15 %
17.03.2016 16:52 10,1 C 62 % 1022,5 hPa 0,0 l/m 15,8 km/h (3 Bft) O-NO 78 1 min 0,000 mm 0,0 UV-I 152 W/m 3,2 C 4,9 C 20,9 km/h (4 Bft) 95,83 %
17.03.2016 16:53 10,1 C 62 % 1022,6 hPa 0,0 l/m 14,2 km/h (3 Bft) O-NO 71 1 min 0,000 mm 0,0 UV-I 149 W/m 3,2 C 5,6 C 17,7 km/h (3 Bft) 100,00 %
17.03.2016 16:54 10,1 C 62 % 1022,5 hPa 0,0 l/m 13,7 km/h (3 Bft) NO 52 1 min 0,000 mm 0,0 UV-I 146 W/m 3,2 C 5,8 C 17,7 km/h (3 Bft) 100,00 %
17.03.2016 16:55 10,1 C 63 % 1022,5 hPa 0,0 l/m 13,9 km/h (3 Bft) O 86 1 min 0,000 mm 0,0 UV-I 142 W/m 3,4 C 5,7 C 17,7 km/h (3 Bft) 100,00 %
17.03.2016 16:56 10,0 C 63 % 1022,5 hPa 0,0 l/m 16,8 km/h (3 Bft) O-NO 68 1 min 0,000 mm 0,0 UV-I 139 W/m 3,3 C 4,4 C 20,9 km/h (4 Bft) 100,00 %
17.03.2016 16:57 10,0 C 63 % 1022,6 hPa 0,0 l/m 16,6 km/h (3 Bft) O-NO 76 1 min 0,000 mm 0,0 UV-I 136 W/m 3,3 C 4,5 C 19,3 km/h (3 Bft) 100,00 %
17.03.2016 16:58 10,0 C 63 % 1022,5 hPa 0,0 l/m 13,5 km/h (3 Bft) O-NO 67 1 min 0,000 mm 0,0 UV-I 133 W/m 3,3 C 5,8 C 17,7 km/h (3 Bft) 100,00 %
17.03.2016 16:59 10,0 C 63 % 1022,5 hPa 0,0 l/m 13,9 km/h (3 Bft) O 89 1 min 0,000 mm 0,0 UV-I 130 W/m 3,3 C 5,6 C 17,7 km/h (3 Bft) 100,00 %
17.03.2016 17:00 9,9 C 63 % 1022,6 hPa 0,0 l/m 13,0 km/h (3 Bft) O-NO 70 1 min 0,000 mm 0,0 UV-I 127 W/m 3,2 C 5,9 C 17,7 km/h (3 Bft) 100,00 %
17.03.2016 17:02 9,9 C 64 % 1022,6 hPa 0,0 l/m 11,1 km/h (2 Bft) O 89 2 min 0,153 mm 0,0 UV-I 123 W/m 3,4 C 6,9 C 16,1 km/h (3 Bft) 97,56 %
17.03.2016 17:03 9,9 C 63 % 1022,5 hPa 0,0 l/m 14,5 km/h (3 Bft) O-NO 67 1 min 0,000 mm 0,0 UV-I 118 W/m 3,2 C 5,2 C 16,1 km/h (3 Bft) 100,00 %
17.03.2016 17:04 9,9 C 64 % 1022,5 hPa 0,0 l/m 11,9 km/h (2 Bft) O-NO 75 1 min 0,000 mm 0,0 UV-I 115 W/m 3,4 C 6,4 C 16,1 km/h (3 Bft) 100,00 %
17.03.2016 17:05 9,9 C 64 % 1022,5 hPa 0,0 l/m 8,9 km/h (2 Bft) O 98 1 min 0,000 mm 0,0 UV-I 112 W/m 3,4 C 8,2 C 11,3 km/h (2 Bft) 100,00 %
17.03.2016 17:06 9,9 C 64 % 1022,5 hPa 0,0 l/m 9,9 km/h (2 Bft) O 79 1 min 0,000 mm 0,0 UV-I 109 W/m 3,4 C 7,5 C 12,9 km/h (3 Bft) 100,00 %
17.03.2016 17:07 9,9 C 64 % 1022,5 hPa 0,0 l/m 9,7 km/h (2 Bft) O-NO 58 1 min 0,000 mm 0,0 UV-I 106 W/m 3,4 C 7,7 C 12,9 km/h (3 Bft) 100,00 %
17.03.2016 17:08 9,9 C 64 % 1022,5 hPa 0,0 l/m 9,0 km/h (2 Bft) NO 55 1 min 0,000 mm 0,0 UV-I 102 W/m 3,4 C 8,1 C 12,9 km/h (3 Bft) 95,65 %
17.03.2016 17:09 9,9 C 65 % 1022,5 hPa 0,0 l/m 9,0 km/h (2 Bft) O-NO 61 1 min 0,000 mm 0,0 UV-I 98 W/m 3,6 C 8,1 C 12,9 km/h (3 Bft) 100,00 %
17.03.2016 17:10 9,9 C 65 % 1022,4 hPa 0,0 l/m 8,4 km/h (2 Bft) O 80 1 min 0,000 mm 0,0 UV-I 96 W/m 3,6 C 8,5 C 12,9 km/h (3 Bft) 100,00 %
17.03.2016 17:11 9,8 C 66 % 1022,5 hPa 0,0 l/m 9,2 km/h (2 Bft) O 80 1 min 0,000 mm 0,0 UV-I 93 W/m 3,8 C 7,9 C 12,9 km/h (3 Bft) 100,00 %
17.03.2016 17:12 9,8 C 65 % 1022,5 hPa 0,0 l/m 13,7 km/h (3 Bft) O-NO 71 1 min 0,000 mm 0,0 UV-I 90 W/m 3,5 C 5,5 C 17,7 km/h (3 Bft) 100,00 %
17.03.2016 17:13 9,8 C 64 % 1022,5 hPa 0,0 l/m 14,7 km/h (3 Bft) O-NO 59 1 min 0,000 mm 0,0 UV-I 88 W/m 3,3 C 5,0 C 17,7 km/h (3 Bft) 93,33 %
17.03.2016 17:14 9,8 C 63 % 1022,4 hPa 0,0 l/m 14,5 km/h (3 Bft) O-NO 59 1 min 0,000 mm 0,0 UV-I 86 W/m 3,1 C 5,1 C 19,3 km/h (3 Bft) 100,00 %
17.03.2016 17:15 9,8 C 63 % 1022,4 hPa 0,0 l/m 11,0 km/h (2 Bft) NO 44 0 min 0,000 mm 0,0 UV-I 83 W/m 3,1 C 6,8 C 16,1 km/h (3 Bft) 100,00 %
17.03.2016 17:16 9,8 C 63 % 1022,4 hPa 0,0 l/m 9,4 km/h (2 Bft) O-NO 67 0 min 0,000 mm 0,0 UV-I 81 W/m 3,1 C 7,7 C 12,9 km/h (3 Bft) 96,55 %
17.03.2016 17:17 9,8 C 63 % 1022,4 hPa 0,0 l/m 8,7 km/h (2 Bft) O-NO 66 0 min 0,000 mm 0,0 UV-I 78 W/m 3,1 C 8,2 C 12,9 km/h (3 Bft) 100,00 %
17.03.2016 17:18 9,8 C 64 % 1022,4 hPa 0,0 l/m 8,1 km/h (2 Bft) O 86 0 min 0,000 mm 0,0 UV-I 76 W/m 3,3 C 8,6 C 11,3 km/h (2 Bft) 100,00 %
17.03.2016 17:19 9,8 C 64 % 1022,4 hPa 0,0 l/m 7,6 km/h (2 Bft) O-NO 63 0 min 0,000 mm 0,0 UV-I 74 W/m 3,3 C 8,9 C 12,9 km/h (3 Bft) 97,56 %
17.03.2016 17:20 9,7 C 64 % 1022,4 hPa 0,0 l/m 11,2 km/h (2 Bft) O-SO 103 0 min 0,000 mm 0,0 UV-I 72 W/m 3,2 C 6,6 C 14,5 km/h (3 Bft) 96,15 %
17.03.2016 17:21 9,7 C 64 % 1022,4 hPa 0,0 l/m 10,3 km/h (2 Bft) O-NO 63 0 min 0,000 mm 0,0 UV-I 70 W/m 3,2 C 7,1 C 17,7 km/h (3 Bft) 100,00 %
17.03.2016 17:22 9,7 C 64 % 1022,4 hPa 0,0 l/m 12,5 km/h (3 Bft) NO 55 0 min 0,000 mm 0,0 UV-I 68 W/m 3,2 C 5,9 C 20,9 km/h (4 Bft) 100,00 %
17.03.2016 17:23 9,6 C 64 % 1022,5 hPa 0,0 l/m 8,9 km/h (2 Bft) O-NO 62 0 min 0,000 mm 0,0 UV-I 65 W/m 3,1 C 7,8 C 14,5 km/h (3 Bft) 100,00 %
17.03.2016 17:24 9,6 C 65 % 1022,4 hPa 0,0 l/m 11,9 km/h (2 Bft) O 88 0 min 0,000 mm 0,0 UV-I 62 W/m 3,4 C 6,1 C 14,5 km/h (3 Bft) 100,00 %
17.03.2016 17:25 9,6 C 64 % 1022,5 hPa 0,0 l/m 12,2 km/h (2 Bft) O-NO 67 0 min 0,000 mm 0,0 UV-I 60 W/m 3,1 C 6,0 C 16,1 km/h (3 Bft) 100,00 %
17.03.2016 17:26 9,6 C 64 % 1022,5 hPa 0,0 l/m 12,7 km/h (3 Bft) O 89 0 min 0,000 mm 0,0 UV-I 58 W/m 3,1 C 5,7 C 14,5 km/h (3 Bft) 91,67 %
17.03.2016 17:27 9,5 C 64 % 1022,5 hPa 0,0 l/m 11,7 km/h (2 Bft) O 85 0 min 0,000 mm 0,0 UV-I 55 W/m 3,0 C 6,1 C 16,1 km/h (3 Bft) 100,00 %
17.03.2016 17:28 9,5 C 64 % 1022,5 hPa 0,0 l/m 11,9 km/h (2 Bft) O-NO 73 0 min 0,000 mm 0,0 UV-I 54 W/m 3,0 C 6,0 C 14,5 km/h (3 Bft) 100,00 %
17.03.2016 17:29 9,4 C 64 % 1022,5 hPa 0,0 l/m 13,0 km/h (3 Bft) O-NO 73 0 min 0,000 mm 0,0 UV-I 52 W/m 2,9 C 5,3 C 17,7 km/h (3 Bft) 100,00 %
17.03.2016 17:30 9,4 C 64 % 1022,5 hPa 0,0 l/m 13,2 km/h (3 Bft) O-NO 75 0 min 0,000 mm 0,0 UV-I 50 W/m 2,9 C 5,2 C 17,7 km/h (3 Bft) 100,00 %
17.03.2016 17:31 9,4 C 64 % 1022,5 hPa 0,0 l/m 9,4 km/h (2 Bft) O-NO 65 0 min 0,000 mm 0,0 UV-I 47 W/m 2,9 C 7,3 C 14,5 km/h (3 Bft) 95,65 %
17.03.2016 17:32 9,4 C 64 % 1022,5 hPa 0,0 l/m 12,1 km/h (2 Bft) O-NO 77 0 min 0,000 mm 0,0 UV-I 45 W/m 2,9 C 5,8 C 14,5 km/h (3 Bft) 100,00 %
17.03.2016 17:33 9,4 C 64 % 1022,5 hPa 0,0 l/m 13,4 km/h (3 Bft) O-NO 78 0 min 0,000 mm 0,0 UV-I 38 W/m 2,9 C 5,1 C 16,1 km/h (3 Bft) 100,00 %
17.03.2016 17:34 9,4 C 64 % 1022,5 hPa 0,0 l/m 8,4 km/h (2 Bft) O 88 0 min 0,000 mm 0,0 UV-I 31 W/m 2,9 C 7,9 C 11,3 km/h (2 Bft) 100,00 %
17.03.2016 17:35 9,3 C 65 % 1022,5 hPa 0,0 l/m 6,3 km/h (2 Bft) O-SO 102 0 min 0,000 mm 0,0 UV-I 29 W/m 3,1 C 9,3 C 9,7 km/h (2 Bft) 100,00 %
17.03.2016 17:36 9,3 C 65 % 1022,5 hPa 0,0 l/m 5,9 km/h (2 Bft) O 83 0 min 0,000 mm 0,0 UV-I 28 W/m 3,1 C 9,3 C 9,7 km/h (2 Bft) 93,33 %
17.03.2016 17:37 9,2 C 65 % 1022,5 hPa 0,0 l/m 6,3 km/h (2 Bft) O 81 0 min 0,000 mm 0,0 UV-I 26 W/m 3,0 C 9,2 C 11,3 km/h (2 Bft) 96,55 %
17.03.2016 17:38 9,2 C 65 % 1022,5 hPa 0,0 l/m 9,0 km/h (2 Bft) O 84 0 min 0,000 mm 0,0 UV-I 26 W/m 3,0 C 7,3 C 12,9 km/h (3 Bft) 100,00 %
17.03.2016 17:39 9,2 C 65 % 1022,5 hPa 0,0 l/m 6,9 km/h (2 Bft) O-NO 64 0 min 0,000 mm 0,0 UV-I 26 W/m 3,0 C 8,8 C 9,7 km/h (2 Bft) 100,00 %
17.03.2016 17:40 9,1 C 65 % 1022,5 hPa 0,0 l/m 4,9 km/h (1 Bft) O 99 0 min 0,000 mm 0,0 UV-I 26 W/m 2,9 C 9,1 C 6,4 km/h (2 Bft) 100,00 %
17.03.2016 17:41 9,1 C 65 % 1022,5 hPa 0,0 l/m 6,0 km/h (2 Bft) O 84 0 min 0,000 mm 0,0 UV-I 25 W/m 2,9 C 9,1 C 9,7 km/h (2 Bft) 96,55 %
17.03.2016 17:42 9,1 C 66 % 1022,5 hPa 0,0 l/m 5,9 km/h (2 Bft) O 94 0 min 0,000 mm 0,0 UV-I 25 W/m 3,1 C 9,1 C 8,0 km/h (2 Bft) 100,00 %
17.03.2016 17:43 9,1 C 66 % 1022,5 hPa 0,0 l/m 7,5 km/h (2 Bft) O 87 0 min 0,000 mm 0,0 UV-I 23 W/m 3,1 C 8,3 C 12,9 km/h (3 Bft) 96,30 %
17.03.2016 17:44 9,0 C 66 % 1022,4 hPa 0,0 l/m 8,1 km/h (2 Bft) O-NO 76 0 min 0,000 mm 0,0 UV-I 23 W/m 3,0 C 7,7 C 11,3 km/h (2 Bft) 100,00 %
17.03.2016 17:45 8,9 C 66 % 1022,4 hPa 0,0 l/m 6,7 km/h (2 Bft) O 80 0 min 0,000 mm 0,0 UV-I 22 W/m 2,9 C 8,7 C 11,3 km/h (2 Bft) 100,00 %
17.03.2016 17:46 8,9 C 66 % 1022,4 hPa 0,0 l/m 4,6 km/h (1 Bft) O-SO 104 0 min 0,000 mm 0,0 UV-I 21 W/m 2,9 C 8,9 C 6,4 km/h (2 Bft) 100,00 %
17.03.2016 17:47 8,9 C 66 % 1022,4 hPa 0,0 l/m 5,1 km/h (1 Bft) O-SO 103 0 min 0,000 mm 0,0 UV-I 21 W/m 2,9 C 8,9 C 8,0 km/h (2 Bft) 100,00 %
17.03.2016 17:48 8,9 C 66 % 1022,4 hPa 0,0 l/m 5,5 km/h (1 Bft) O 91 0 min 0,000 mm 0,0 UV-I 21 W/m 2,9 C 8,9 C 8,0 km/h (2 Bft) 95,83 %
17.03.2016 17:49 8,8 C 67 % 1022,4 hPa 0,0 l/m 4,3 km/h (1 Bft) O 98 0 min 0,000 mm 0,0 UV-I 19 W/m 3,0 C 8,8 C 6,4 km/h (2 Bft) 100,00 %
17.03.2016 17:50 8,8 C 67 % 1022,4 hPa 0,0 l/m 2,7 km/h (1 Bft) O 87 0 min 0,000 mm 0,0 UV-I 19 W/m 3,0 C 8,8 C 3,2 km/h (1 Bft) 100,00 %
17.03.2016 17:51 8,7 C 68 % 1022,4 hPa 0,0 l/m 6,6 km/h (2 Bft) O 93 0 min 0,000 mm 0,0 UV-I 19 W/m 3,1 C 8,6 C 9,7 km/h (2 Bft) 100,00 %
17.03.2016 17:52 8,7 C 67 % 1022,4 hPa 0,0 l/m 7,2 km/h (2 Bft) O-NO 77 0 min 0,000 mm 0,0 UV-I 18 W/m 2,9 C 8,1 C 11,3 km/h (2 Bft) 100,00 %
17.03.2016 17:53 8,7 C 67 % 1022,4 hPa 0,0 l/m 6,9 km/h (2 Bft) O 94 0 min 0,000 mm 0,0 UV-I 18 W/m 2,9 C 8,3 C 9,7 km/h (2 Bft) 92,59 %
17.03.2016 17:54 8,6 C 68 % 1022,4 hPa 0,0 l/m 4,3 km/h (1 Bft) O 90 0 min 0,000 mm 0,0 UV-I 16 W/m 3,0 C 8,6 C 4,8 km/h (1 Bft) 100,00 %
17.03.2016 17:55 8,6 C 68 % 1022,4 hPa 0,0 l/m 3,9 km/h (1 Bft) O 91 0 min 0,000 mm 0,0 UV-I 16 W/m 3,0 C 8,6 C 4,8 km/h (1 Bft) 96,30 %
17.03.2016 17:56 8,6 C 68 % 1022,4 hPa 0,0 l/m 3,9 km/h (1 Bft) O 96 0 min 0,000 mm 0,0 UV-I 16 W/m 3,0 C 8,6 C 6,4 km/h (2 Bft) 95,65 %
17.03.2016 17:57 8,4 C 69 % 1022,4 hPa 0,0 l/m 4,0 km/h (1 Bft) O 96 0 min 0,000 mm 0,0 UV-I 14 W/m 3,0 C 8,4 C 4,8 km/h (1 Bft) 100,00 %
17.03.2016 17:58 8,4 C 69 % 1022,4 hPa 0,0 l/m 4,3 km/h (1 Bft) O-NO 78 0 min 0,000 mm 0,0 UV-I 14 W/m 3,0 C 8,4 C 6,4 km/h (2 Bft) 96,15 %
17.03.2016 17:59 8,3 C 69 % 1022,4 hPa 0,0 l/m 6,4 km/h (2 Bft) O 95 0 min 0,000 mm 0,0 UV-I 13 W/m 3,0 C 8,3 C 9,7 km/h (2 Bft) 100,00 %
17.03.2016 18:00 8,3 C 69 % 1022,4 hPa 0,0 l/m 6,4 km/h (2 Bft) O-NO 76 1 min 0,000 mm 0,0 UV-I 12 W/m 3,0 C 8,3 C 9,7 km/h (2 Bft) 92,31 %
17.03.2016 18:01 8,3 C 69 % 1022,3 hPa 0,0 l/m 5,0 km/h (1 Bft) O 92 1 min 0,051 mm 0,0 UV-I 12 W/m 3,0 C 8,3 C 6,4 km/h (2 Bft) 100,00 %
17.03.2016 18:02 8,3 C 69 % 1022,3 hPa 0,0 l/m 6,3 km/h (2 Bft) O 98 1 min 0,000 mm 0,0 UV-I 11 W/m 3,0 C 8,3 C 9,7 km/h (2 Bft) 93,33 %
17.03.2016 18:03 8,3 C 69 % 1022,3 hPa 0,0 l/m 6,3 km/h (2 Bft) O 82 0 min 0,000 mm 0,0 UV-I 11 W/m 3,0 C 8,3 C 9,7 km/h (2 Bft) 100,00 %
17.03.2016 18:04 8,2 C 69 % 1022,3 hPa 0,0 l/m 4,8 km/h (1 Bft) O 99 0 min 0,000 mm 0,0 UV-I 10 W/m 2,9 C 8,2 C 6,4 km/h (2 Bft) 95,83 %
17.03.2016 18:05 8,2 C 70 % 1022,4 hPa 0,0 l/m 7,4 km/h (2 Bft) O 101 0 min 0,000 mm 0,0 UV-I 9 W/m 3,1 C 7,4 C 11,3 km/h (2 Bft) 95,65 %
17.03.2016 18:06 8,2 C 70 % 1022,4 hPa 0,0 l/m 5,9 km/h (2 Bft) O 86 0 min 0,000 mm 0,0 UV-I 9 W/m 3,1 C 8,2 C 6,4 km/h (2 Bft) 100,00 %
17.03.2016 18:07 8,1 C 70 % 1022,4 hPa 0,0 l/m 4,5 km/h (1 Bft) O 84 0 min 0,000 mm 0,0 UV-I 9 W/m 3,0 C 8,1 C 6,4 km/h (2 Bft) 95,65 %
17.03.2016 18:08 8,1 C 70 % 1022,4 hPa 0,0 l/m 5,5 km/h (1 Bft) O 97 0 min 0,000 mm 0,0 UV-I 7 W/m 3,0 C 8,1 C 9,7 km/h (2 Bft) 100,00 %
17.03.2016 18:09 8,0 C 70 % 1022,4 hPa 0,0 l/m 5,1 km/h (1 Bft) O 101 0 min 0,000 mm 0,0 UV-I 7 W/m 2,9 C 8,0 C 6,4 km/h (2 Bft) 95,65 %
17.03.2016 18:10 7,9 C 71 % 1022,4 hPa 0,0 l/m 5,0 km/h (1 Bft) O 98 0 min 0,000 mm 0,0 UV-I 7 W/m 3,0 C 7,9 C 6,4 km/h (2 Bft) 100,00 %
17.03.2016 18:11 7,9 C 71 % 1022,4 hPa 0,0 l/m 6,2 km/h (2 Bft) O 84 0 min 0,000 mm 0,0 UV-I 5 W/m 3,0 C 7,9 C 9,7 km/h (2 Bft) 96,15 %
17.03.2016 18:12 7,8 C 71 % 1022,3 hPa 0,0 l/m 5,4 km/h (1 Bft) O 96 0 min 0,000 mm 0,0 UV-I 5 W/m 2,9 C 7,8 C 8,0 km/h (2 Bft) 100,00 %
17.03.2016 18:13 7,8 C 71 % 1022,3 hPa 0,0 l/m 5,2 km/h (1 Bft) O 92 0 min 0,000 mm 0,0 UV-I 5 W/m 2,9 C 7,8 C 6,4 km/h (2 Bft) 96,15 %
17.03.2016 18:14 7,7 C 71 % 1022,4 hPa 0,0 l/m 4,3 km/h (1 Bft) O 93 0 min 0,000 mm 0,0 UV-I 5 W/m 2,8 C 7,7 C 6,4 km/h (2 Bft) 92,59 %
17.03.2016 18:15 7,7 C 71 % 1022,3 hPa 0,0 l/m 5,5 km/h (1 Bft) O 88 0 min 0,000 mm 0,0 UV-I 5 W/m 2,8 C 7,7 C 8,0 km/h (2 Bft) 100,00 %
17.03.2016 18:16 7,7 C 71 % 1022,3 hPa 0,0 l/m 5,7 km/h (1 Bft) O-NO 73 0 min 0,000 mm 0,0 UV-I 5 W/m 2,8 C 7,7 C 8,0 km/h (2 Bft) 92,59 %
17.03.2016 18:17 7,8 C 71 % 1022,2 hPa 0,0 l/m 5,5 km/h (1 Bft) O 89 0 min 0,000 mm 0,0 UV-I 2 W/m 2,9 C 7,8 C 6,4 km/h (2 Bft) 100,00 %
17.03.2016 18:18 7,8 C 71 % 1022,3 hPa 0,0 l/m 4,5 km/h (1 Bft) O 88 0 min 0,000 mm 0,0 UV-I 0 W/m 2,9 C 7,8 C 6,4 km/h (2 Bft) 96,30 %
17.03.2016 18:19 7,7 C 71 % 1022,3 hPa 0,0 l/m 5,5 km/h (1 Bft) O 90 0 min 0,000 mm 0,0 UV-I 0 W/m 2,8 C 7,7 C 6,4 km/h (2 Bft) 100,00 %
17.03.2016 18:20 7,7 C 71 % 1022,2 hPa 0,0 l/m 4,5 km/h (1 Bft) O 93 0 min 0,000 mm 0,0 UV-I 0 W/m 2,8 C 7,7 C 6,4 km/h (2 Bft) 95,83 %
17.03.2016 18:21 7,6 C 71 % 1022,3 hPa 0,0 l/m 4,5 km/h (1 Bft) O 90 0 min 0,000 mm 0,0 UV-I 0 W/m 2,7 C 7,6 C 6,4 km/h (2 Bft) 95,65 %
17.03.2016 18:22 7,6 C 72 % 1022,3 hPa 0,0 l/m 4,4 km/h (1 Bft) O 90 0 min 0,000 mm 0,0 UV-I 0 W/m 2,9 C 7,6 C 4,8 km/h (1 Bft) 100,00 %
17.03.2016 18:23 7,5 C 72 % 1022,3 hPa 0,0 l/m 4,0 km/h (1 Bft) O 90 0 min 0,000 mm 0,0 UV-I 0 W/m 2,8 C 7,5 C 4,8 km/h (1 Bft) 91,30 %
17.03.2016 18:24 7,4 C 72 % 1022,3 hPa 0,0 l/m 5,0 km/h (1 Bft) O 84 0 min 0,000 mm 0,0 UV-I 0 W/m 2,7 C 7,4 C 6,4 km/h (2 Bft) 100,00 %
17.03.2016 18:25 7,4 C 72 % 1022,3 hPa 0,0 l/m 5,1 km/h (1 Bft) O-NO 76 0 min 0,000 mm 0,0 UV-I 0 W/m 2,7 C 7,4 C 8,0 km/h (2 Bft) 91,67 %
17.03.2016 18:26 7,4 C 72 % 1022,3 hPa 0,0 l/m 4,3 km/h (1 Bft) O 84 0 min 0,000 mm 0,0 UV-I 0 W/m 2,7 C 7,4 C 6,4 km/h (2 Bft) 100,00 %
17.03.2016 18:27 7,4 C 72 % 1022,3 hPa 0,0 l/m 5,1 km/h (1 Bft) O-NO 78 0 min 0,000 mm 0,0 UV-I 0 W/m 2,7 C 7,4 C 6,4 km/h (2 Bft) 95,83 %
17.03.2016 18:28 7,6 C 72 % 1022,2 hPa 0,0 l/m 4,1 km/h (1 Bft) O 80 0 min 0,000 mm 0,0 UV-I 0 W/m 2,9 C 7,6 C 4,8 km/h (1 Bft) 100,00 %
17.03.2016 18:29 7,6 C 72 % 1022,3 hPa 0,0 l/m 4,2 km/h (1 Bft) O 79 0 min 0,000 mm 0,0 UV-I 0 W/m 2,9 C 7,6 C 4,8 km/h (1 Bft) 95,83 %
17.03.2016 18:30 7,6 C 71 % 1022,3 hPa 0,0 l/m 4,1 km/h (1 Bft) O 79 0 min 0,000 mm 0,0 UV-I 0 W/m 2,7 C 7,6 C 4,8 km/h (1 Bft) 95,65 %
17.03.2016 18:31 7,6 C 71 % 1022,3 hPa 0,0 l/m 5,3 km/h (1 Bft) O 86 0 min 0,000 mm 0,0 UV-I 0 W/m 2,7 C 7,6 C 6,4 km/h (2 Bft) 100,00 %
17.03.2016 18:32 7,6 C 72 % 1022,3 hPa 0,0 l/m 4,6 km/h (1 Bft) O 86 0 min 0,000 mm 0,0 UV-I 0 W/m 2,9 C 7,6 C 6,4 km/h (2 Bft) 86,96 %
17.03.2016 18:33 7,5 C 72 % 1022,3 hPa 0,0 l/m 5,3 km/h (1 Bft) O 89 0 min 0,000 mm 0,0 UV-I 0 W/m 2,8 C 7,5 C 6,4 km/h (2 Bft) 100,00 %
17.03.2016 18:34 7,3 C 74 % 1022,3 hPa 0,0 l/m 2,6 km/h (1 Bft) O 89 0 min 0,000 mm 0,0 UV-I 0 W/m 3,0 C 7,3 C 3,2 km/h (1 Bft) 100,00 %
17.03.2016 18:35 7,2 C 74 % 1022,3 hPa 0,0 l/m 3,1 km/h (1 Bft) O 89 0 min 0,000 mm 0,0 UV-I 0 W/m 2,9 C 7,2 C 4,8 km/h (1 Bft) 100,00 %
17.03.2016 18:36 7,1 C 74 % 1022,3 hPa 0,0 l/m 3,7 km/h (1 Bft) O 89 0 min 0,000 mm 0,0 UV-I 0 W/m 2,8 C 7,1 C 4,8 km/h (1 Bft) 100,00 %
17.03.2016 18:37 6,9 C 75 % 1022,4 hPa 0,0 l/m 3,8 km/h (1 Bft) O-SO 103 0 min 0,000 mm 0,0 UV-I 0 W/m 2,8 C 6,9 C 4,8 km/h (1 Bft) 100,00 %
17.03.2016 18:38 6,7 C 76 % 1022,3 hPa 0,0 l/m 3,6 km/h (1 Bft) O 101 0 min 0,000 mm 0,0 UV-I 0 W/m 2,8 C 6,7 C 4,8 km/h (1 Bft) 100,00 %
17.03.2016 18:39 6,6 C 78 % 1022,3 hPa 0,0 l/m 3,3 km/h (1 Bft) O 101 0 min 0,000 mm 0,0 UV-I 0 W/m 3,0 C 6,6 C 4,8 km/h (1 Bft) 96,30 %
17.03.2016 18:40 6,4 C 80 % 1022,3 hPa 0,0 l/m 4,2 km/h (1 Bft) O-NO 77 0 min 0,000 mm 0,0 UV-I 0 W/m 3,2 C 6,4 C 4,8 km/h (1 Bft) 100,00 %
17.03.2016 18:41 6,3 C 80 % 1022,3 hPa 0,0 l/m 3,5 km/h (1 Bft) O-SO 107 0 min 0,000 mm 0,0 UV-I 0 W/m 3,1 C 6,3 C 6,4 km/h (2 Bft) 100,00 %
17.03.2016 18:42 6,2 C 80 % 1022,3 hPa 0,0 l/m 3,1 km/h (1 Bft) O-SO 105 0 min 0,000 mm 0,0 UV-I 0 W/m 3,0 C 6,2 C 4,8 km/h (1 Bft) 100,00 %
17.03.2016 18:43 6,1 C 80 % 1022,3 hPa 0,0 l/m 2,7 km/h (1 Bft) O-SO 105 0 min 0,000 mm 0,0 UV-I 0 W/m 2,9 C 6,1 C 4,8 km/h (1 Bft) 100,00 %
17.03.2016 18:44 6,1 C 80 % 1022,3 hPa 0,0 l/m 3,9 km/h (1 Bft) O 80 0 min 0,000 mm 0,0 UV-I 0 W/m 2,9 C 6,1 C 6,4 km/h (2 Bft) 95,83 %
17.03.2016 18:45 6,1 C 81 % 1022,3 hPa 0,0 l/m 3,7 km/h (1 Bft) O 86 0 min 0,000 mm 0,0 UV-I 0 W/m 3,1 C 6,1 C 4,8 km/h (1 Bft) 100,00 %
17.03.2016 18:46 5,9 C 82 % 1022,3 hPa 0,0 l/m 3,8 km/h (1 Bft) O 83 0 min 0,000 mm 0,0 UV-I 0 W/m 3,1 C 5,9 C 4,8 km/h (1 Bft) 100,00 %
17.03.2016 18:47 5,9 C 82 % 1022,3 hPa 0,0 l/m 4,4 km/h (1 Bft) O 87 0 min 0,000 mm 0,0 UV-I 0 W/m 3,1 C 5,9 C 6,4 km/h (2 Bft) 100,00 %
17.03.2016 18:48 5,8 C 82 % 1022,2 hPa 0,0 l/m 4,3 km/h (1 Bft) O 88 0 min 0,000 mm 0,0 UV-I 0 W/m 3,0 C 5,8 C 4,8 km/h (1 Bft) 95,83 %
17.03.2016 18:49 5,8 C 82 % 1022,3 hPa 0,0 l/m 4,3 km/h (1 Bft) O 88 0 min 0,000 mm 0,0 UV-I 0 W/m 3,0 C 5,8 C 6,4 km/h (2 Bft) 100,00 %
17.03.2016 18:50 5,7 C 83 % 1022,2 hPa 0,0 l/m 3,2 km/h (1 Bft) O 88 0 min 0,000 mm 0,0 UV-I 0 W/m 3,0 C 5,7 C 3,2 km/h (1 Bft) 100,00 %
17.03.2016 18:51 5,6 C 83 % 1022,2 hPa 0,0 l/m 3,9 km/h (1 Bft) O 88 0 min 0,000 mm 0,0 UV-I 0 W/m 2,9 C 5,6 C 4,8 km/h (1 Bft) 100,00 %
17.03.2016 18:52 5,6 C 84 % 1022,3 hPa 0,0 l/m 4,3 km/h (1 Bft) O 86 0 min 0,000 mm 0,0 UV-I 0 W/m 3,1 C 5,6 C 6,4 km/h (2 Bft) 100,00 %
17.03.2016 18:53 5,5 C 84 % 1022,3 hPa 0,0 l/m 4,6 km/h (1 Bft) O-NO 73 0 min 0,000 mm 0,0 UV-I 0 W/m 3,0 C 5,5 C 6,4 km/h (2 Bft) 90,91 %
17.03.2016 18:54 5,5 C 83 % 1022,3 hPa 0,0 l/m 4,7 km/h (1 Bft) O-NO 73 0 min 0,000 mm 0,0 UV-I 0 W/m 2,8 C 5,5 C 4,8 km/h (1 Bft) 100,00 %
17.03.2016 18:55 5,6 C 82 % 1022,3 hPa 0,0 l/m 4,0 km/h (1 Bft) O-NO 70 0 min 0,000 mm 0,0 UV-I 0 W/m 2,8 C 5,6 C 4,8 km/h (1 Bft) 100,00 %
17.03.2016 18:56 5,7 C 81 % 1022,4 hPa 0,0 l/m 3,2 km/h (1 Bft) O-NO 70 0 min 0,000 mm 0,0 UV-I 0 W/m 2,7 C 5,7 C 4,8 km/h (1 Bft) 100,00 %
17.03.2016 18:57 5,8 C 80 % 1022,3 hPa 0,0 l/m 2,9 km/h (1 Bft) O-NO 70 0 min 0,000 mm 0,0 UV-I 0 W/m 2,6 C 5,8 C 4,8 km/h (1 Bft) 93,10 %
17.03.2016 18:58 5,9 C 79 % 1022,4 hPa 0,0 l/m 3,0 km/h (1 Bft) O-NO 70 0 min 0,000 mm 0,0 UV-I 0 W/m 2,5 C 5,9 C 4,8 km/h (1 Bft) 100,00 %
17.03.2016 18:59 6,1 C 79 % 1022,4 hPa 0,0 l/m 3,5 km/h (1 Bft) O-NO 70 0 min 0,000 mm 0,0 UV-I 0 W/m 2,7 C 6,1 C 4,8 km/h (1 Bft) 100,00 %
17.03.2016 19:00 6,3 C 78 % 1022,4 hPa 0,0 l/m 3,0 km/h (1 Bft) O-NO 70 0 min 0,000 mm 0,0 UV-I 0 W/m 2,8 C 6,3 C 3,2 km/h (1 Bft) 98,52 %
17.03.2016 19:01 6,3 C 78 % 1022,4 hPa 0,0 l/m 3,3 km/h (1 Bft) O-NO 70 0 min 0,025 mm 0,0 UV-I 0 W/m 2,8 C 6,3 C 4,8 km/h (1 Bft) 100,00 %
17.03.2016 19:02 6,4 C 77 % 1022,4 hPa 0,0 l/m 2,8 km/h (1 Bft) O-NO 70 0 min 0,000 mm 0,0 UV-I 0 W/m 2,7 C 6,4 C 4,8 km/h (1 Bft) 100,00 %
17.03.2016 19:03 6,3 C 77 % 1022,4 hPa 0,0 l/m 2,0 km/h (1 Bft) O-NO 70 0 min 0,000 mm 0,0 UV-I 0 W/m 2,6 C 6,3 C 3,2 km/h (1 Bft) 100,00 %
17.03.2016 19:04 6,3 C 77 % 1022,4 hPa 0,0 l/m 2,2 km/h (1 Bft) O-NO 70 0 min 0,000 mm 0,0 UV-I 0 W/m 2,6 C 6,3 C 3,2 km/h (1 Bft) 100,00 %
17.03.2016 19:05 6,3 C 77 % 1022,4 hPa 0,0 l/m 2,3 km/h (1 Bft) O-NO 70 0 min 0,000 mm 0,0 UV-I 0 W/m 2,6 C 6,3 C 3,2 km/h (1 Bft) 100,00 %
17.03.2016 19:06 6,3 C 77 % 1022,4 hPa 0,0 l/m 2,5 km/h (1 Bft) O-NO 70 0 min 0,000 mm 0,0 UV-I 0 W/m 2,6 C 6,3 C 3,2 km/h (1 Bft) 95,65 %
17.03.2016 19:07 6,3 C 77 % 1022,4 hPa 0,0 l/m 2,5 km/h (1 Bft) O-NO 70 0 min 0,000 mm 0,0 UV-I 0 W/m 2,6 C 6,3 C 3,2 km/h (1 Bft) 100,00 %
17.03.2016 19:08 6,3 C 77 % 1022,4 hPa 0,0 l/m 2,4 km/h (1 Bft) O-NO 70 0 min 0,000 mm 0,0 UV-I 0 W/m 2,6 C 6,3 C 3,2 km/h (1 Bft) 100,00 %
17.03.2016 19:09 6,3 C 78 % 1022,4 hPa 0,0 l/m 3,2 km/h (1 Bft) O-NO 70 0 min 0,000 mm 0,0 UV-I 0 W/m 2,8 C 6,3 C 3,2 km/h (1 Bft) 100,00 %
17.03.2016 19:10 6,2 C 78 % 1022,4 hPa 0,0 l/m 2,9 km/h (1 Bft) O-NO 70 0 min 0,000 mm 0,0 UV-I 0 W/m 2,7 C 6,2 C 3,2 km/h (1 Bft) 100,00 %
17.03.2016 19:11 6,2 C 78 % 1022,4 hPa 0,0 l/m 3,2 km/h (1 Bft) O-NO 70 0 min 0,000 mm 0,0 UV-I 0 W/m 2,7 C 6,2 C 4,8 km/h (1 Bft) 100,00 %
17.03.2016 19:12 6,2 C 78 % 1022,4 hPa 0,0 l/m 3,3 km/h (1 Bft) O-NO 70 0 min 0,000 mm 0,0 UV-I 0 W/m 2,7 C 6,2 C 4,8 km/h (1 Bft) 100,00 %
17.03.2016 19:13 6,1 C 78 % 1022,4 hPa 0,0 l/m 3,5 km/h (1 Bft) O-NO 70 0 min 0,000 mm 0,0 UV-I 0 W/m 2,6 C 6,1 C 4,8 km/h (1 Bft) 93,33 %
17.03.2016 19:14 6,1 C 78 % 1022,4 hPa 0,0 l/m 2,2 km/h (1 Bft) O-NO 70 0 min 0,000 mm 0,0 UV-I 0 W/m 2,6 C 6,1 C 3,2 km/h (1 Bft) 96,15 %
17.03.2016 19:15 6,1 C 79 % 1022,4 hPa 0,0 l/m 2,6 km/h (1 Bft) O-NO 70 0 min 0,000 mm 0,0 UV-I 0 W/m 2,7 C 6,1 C 3,2 km/h (1 Bft) 100,00 %
17.03.2016 19:16 6,1 C 79 % 1022,4 hPa 0,0 l/m 2,6 km/h (1 Bft) O-NO 70 0 min 0,000 mm 0,0 UV-I 0 W/m 2,7 C 6,1 C 3,2 km/h (1 Bft) 100,00 %
17.03.2016 19:17 6,1 C 79 % 1022,4 hPa 0,0 l/m 2,7 km/h (1 Bft) O-NO 70 0 min 0,000 mm 0,0 UV-I 0 W/m 2,7 C 6,1 C 3,2 km/h (1 Bft) 100,00 %
17.03.2016 19:18 6,1 C 79 % 1022,4 hPa 0,0 l/m 2,5 km/h (1 Bft) O-NO 70 0 min 0,000 mm 0,0 UV-I 0 W/m 2,7 C 6,1 C 3,2 km/h (1 Bft) 100,00 %
17.03.2016 19:19 6,0 C 79 % 1022,4 hPa 0,0 l/m 2,6 km/h (1 Bft) O-NO 70 0 min 0,000 mm 0,0 UV-I 0 W/m 2,6 C 6,0 C 3,2 km/h (1 Bft) 100,00 %
17.03.2016 19:20 5,9 C 79 % 1022,4 hPa 0,0 l/m 1,7 km/h (1 Bft) O-NO 70 0 min 0,000 mm 0,0 UV-I 0 W/m 2,5 C 5,9 C 3,2 km/h (1 Bft) 100,00 %
17.03.2016 19:21 5,9 C 80 % 1022,3 hPa 0,0 l/m 1,8 km/h (1 Bft) O-NO 70 0 min 0,000 mm 0,0 UV-I 0 W/m 2,7 C 5,9 C 3,2 km/h (1 Bft) 100,00 %
17.03.2016 19:22 5,8 C 81 % 1022,3 hPa 0,0 l/m 2,9 km/h (1 Bft) O-NO 70 0 min 0,000 mm 0,0 UV-I 0 W/m 2,8 C 5,8 C 3,2 km/h (1 Bft) 100,00 %
17.03.2016 19:23 5,6 C 81 % 1022,3 hPa 0,0 l/m 2,8 km/h (1 Bft) O-NO 70 0 min 0,000 mm 0,0 UV-I 0 W/m 2,6 C 5,6 C 3,2 km/h (1 Bft) 100,00 %
17.03.2016 19:24 5,5 C 82 % 1022,3 hPa 0,0 l/m 3,2 km/h (1 Bft) O-NO 70 0 min 0,000 mm 0,0 UV-I 0 W/m 2,7 C 5,5 C 4,8 km/h (1 Bft) 100,00 %
17.03.2016 19:25 5,4 C 83 % 1022,4 hPa 0,0 l/m 2,7 km/h (1 Bft) O-NO 70 0 min 0,000 mm 0,0 UV-I 0 W/m 2,7 C 5,4 C 3,2 km/h (1 Bft) 100,00 %
17.03.2016 19:26 5,3 C 83 % 1022,4 hPa 0,0 l/m 3,1 km/h (1 Bft) O-NO 70 0 min 0,000 mm 0,0 UV-I 0 W/m 2,7 C 5,3 C 3,2 km/h (1 Bft) 100,00 %
17.03.2016 19:27 5,2 C 83 % 1022,4 hPa 0,0 l/m 3,1 km/h (1 Bft) O-NO 70 0 min 0,000 mm 0,0 UV-I 0 W/m 2,6 C 5,2 C 4,8 km/h (1 Bft) 90,91 %
17.03.2016 19:28 5,2 C 82 % 1022,3 hPa 0,0 l/m 2,0 km/h (1 Bft) O-NO 70 0 min 0,000 mm 0,0 UV-I 0 W/m 2,4 C 5,2 C 3,2 km/h (1 Bft) 100,00 %
17.03.2016 19:29 5,2 C 82 % 1022,4 hPa 0,0 l/m 3,0 km/h (1 Bft) O-NO 70 0 min 0,000 mm 0,0 UV-I 0 W/m 2,4 C 5,2 C 3,2 km/h (1 Bft) 100,00 %
17.03.2016 19:30 5,1 C 82 % 1022,4 hPa 0,0 l/m 3,0 km/h (1 Bft) O-NO 70 0 min 0,000 mm 0,0 UV-I 0 W/m 2,3 C 5,1 C 3,2 km/h (1 Bft) 100,00 %
17.03.2016 19:31 5,1 C 82 % 1022,4 hPa 0,0 l/m 2,1 km/h (1 Bft) O-NO 70 0 min 0,000 mm 0,0 UV-I 0 W/m 2,3 C 5,1 C 3,2 km/h (1 Bft) 92,86 %
17.03.2016 19:32 5,2 C 82 % 1022,4 hPa 0,0 l/m 2,6 km/h (1 Bft) O-NO 70 0 min 0,000 mm 0,0 UV-I 0 W/m 2,4 C 5,2 C 3,2 km/h (1 Bft) 100,00 %
17.03.2016 19:33 5,2 C 82 % 1022,4 hPa 0,0 l/m 2,5 km/h (1 Bft) O-NO 70 0 min 0,000 mm 0,0 UV-I 0 W/m 2,4 C 5,2 C 3,2 km/h (1 Bft) 100,00 %
17.03.2016 19:34 5,2 C 82 % 1022,4 hPa 0,0 l/m 3,2 km/h (1 Bft) O-NO 70 0 min 0,000 mm 0,0 UV-I 0 W/m 2,4 C 5,2 C 3,2 km/h (1 Bft) 100,00 %
17.03.2016 19:35 5,2 C 82 % 1022,4 hPa 0,0 l/m 3,0 km/h (1 Bft) O-NO 70 0 min 0,000 mm 0,0 UV-I 0 W/m 2,4 C 5,2 C 3,2 km/h (1 Bft) 100,00 %
17.03.2016 19:36 5,2 C 82 % 1022,4 hPa 0,0 l/m 3,0 km/h (1 Bft) O-NO 70 0 min 0,000 mm 0,0 UV-I 0 W/m 2,4 C 5,2 C 3,2 km/h (1 Bft) 95,83 %
17.03.2016 19:37 5,2 C 82 % 1022,4 hPa 0,0 l/m 3,0 km/h (1 Bft) O-NO 70 0 min 0,000 mm 0,0 UV-I 0 W/m 2,4 C 5,2 C 3,2 km/h (1 Bft) 100,00 %
17.03.2016 19:38 5,2 C 82 % 1022,3 hPa 0,0 l/m 3,4 km/h (1 Bft) O-NO 70 0 min 0,000 mm 0,0 UV-I 0 W/m 2,4 C 5,2 C 4,8 km/h (1 Bft) 100,00 %
17.03.2016 19:39 5,2 C 82 % 1022,4 hPa 0,0 l/m 3,5 km/h (1 Bft) O-NO 70 0 min 0,000 mm 0,0 UV-I 0 W/m 2,4 C 5,2 C 4,8 km/h (1 Bft) 95,65 %
17.03.2016 19:40 5,2 C 82 % 1022,4 hPa 0,0 l/m 3,4 km/h (1 Bft) O-NO 70 0 min 0,000 mm 0,0 UV-I 0 W/m 2,4 C 5,2 C 4,8 km/h (1 Bft) 100,00 %
17.03.2016 19:41 5,3 C 82 % 1022,4 hPa 0,0 l/m 3,1 km/h (1 Bft) O-NO 70 0 min 0,000 mm 0,0 UV-I 0 W/m 2,5 C 5,3 C 4,8 km/h (1 Bft) 96,15 %
17.03.2016 19:42 5,3 C 82 % 1022,4 hPa 0,0 l/m 3,4 km/h (1 Bft) O-NO 70 0 min 0,000 mm 0,0 UV-I 0 W/m 2,5 C 5,3 C 4,8 km/h (1 Bft) 100,00 %
17.03.2016 19:43 5,6 C 82 % 1022,3 hPa 0,0 l/m 3,1 km/h (1 Bft) O-NO 70 0 min 0,000 mm 0,0 UV-I 0 W/m 2,8 C 5,6 C 4,8 km/h (1 Bft) 100,00 %
17.03.2016 19:44 5,7 C 81 % 1022,3 hPa 0,0 l/m 3,4 km/h (1 Bft) O-NO 70 0 min 0,000 mm 0,0 UV-I 0 W/m 2,7 C 5,7 C 4,8 km/h (1 Bft) 100,00 %
17.03.2016 19:45 5,8 C 80 % 1022,3 hPa 0,0 l/m 3,1 km/h (1 Bft) O-NO 70 0 min 0,000 mm 0,0 UV-I 0 W/m 2,6 C 5,8 C 3,2 km/h (1 Bft) 100,00 %
17.03.2016 19:46 6,0 C 80 % 1022,3 hPa 0,0 l/m 3,5 km/h (1 Bft) O-NO 70 0 min 0,000 mm 0,0 UV-I 0 W/m 2,8 C 6,0 C 4,8 km/h (1 Bft) 98,56 %
17.03.2016 19:47 6,1 C 79 % 1022,3 hPa 0,0 l/m 3,3 km/h (1 Bft) O-NO 70 0 min 0,000 mm 0,0 UV-I 0 W/m 2,7 C 6,1 C 4,8 km/h (1 Bft) 100,00 %
17.03.2016 19:48 6,2 C 79 % 1022,4 hPa 0,0 l/m 3,2 km/h (1 Bft) O-NO 70 0 min 0,000 mm 0,0 UV-I 0 W/m 2,8 C 6,2 C 3,2 km/h (1 Bft) 100,00 %
17.03.2016 19:49 6,2 C 78 % 1022,3 hPa 0,0 l/m 2,9 km/h (1 Bft) O-NO 70 0 min 0,000 mm 0,0 UV-I 0 W/m 2,7 C 6,2 C 3,2 km/h (1 Bft) 100,00 %
17.03.2016 19:50 6,2 C 78 % 1022,3 hPa 0,0 l/m 2,9 km/h (1 Bft) O-NO 70 0 min 0,000 mm 0,0 UV-I 0 W/m 2,7 C 6,2 C 3,2 km/h (1 Bft) 100,00 %
17.03.2016 19:51 6,2 C 78 % 1022,3 hPa 0,0 l/m 3,2 km/h (1 Bft) O-NO 70 0 min 0,000 mm 0,0 UV-I 0 W/m 2,7 C 6,2 C 4,8 km/h (1 Bft) 95,83 %
17.03.2016 19:52 6,2 C 78 % 1022,3 hPa 0,0 l/m 3,4 km/h (1 Bft) O-NO 70 0 min 0,000 mm 0,0 UV-I 0 W/m 2,7 C 6,2 C 4,8 km/h (1 Bft) 95,65 %
17.03.2016 19:53 6,2 C 78 % 1022,4 hPa 0,0 l/m 3,4 km/h (1 Bft) O-NO 70 0 min 0,000 mm 0,0 UV-I 0 W/m 2,7 C 6,2 C 4,8 km/h (1 Bft) 100,00 %
17.03.2016 19:54 6,2 C 78 % 1022,3 hPa 0,0 l/m 3,2 km/h (1 Bft) O-NO 70 0 min 0,000 mm 0,0 UV-I 0 W/m 2,7 C 6,2 C 3,2 km/h (1 Bft) 100,00 %
17.03.2016 19:55 6,2 C 78 % 1022,3 hPa 0,0 l/m 3,0 km/h (1 Bft) O-NO 70 0 min 0,000 mm 0,0 UV-I 0 W/m 2,7 C 6,2 C 4,8 km/h (1 Bft) 100,00 %
17.03.2016 19:56 6,2 C 78 % 1022,3 hPa 0,0 l/m 2,8 km/h (1 Bft) O-NO 70 0 min 0,000 mm 0,0 UV-I 0 W/m 2,7 C 6,2 C 3,2 km/h (1 Bft) 100,00 %
17.03.2016 19:57 6,2 C 78 % 1022,3 hPa 0,0 l/m 2,7 km/h (1 Bft) O-NO 70 0 min 0,000 mm 0,0 UV-I 0 W/m 2,7 C 6,2 C 3,2 km/h (1 Bft) 96,30 %
17.03.2016 19:58 6,2 C 78 % 1022,3 hPa 0,0 l/m 2,8 km/h (1 Bft) O-NO 70 0 min 0,000 mm 0,0 UV-I 0 W/m 2,7 C 6,2 C 3,2 km/h (1 Bft) 95,65 %
17.03.2016 19:59 6,2 C 78 % 1022,4 hPa 0,0 l/m 2,6 km/h (1 Bft) O-NO 70 0 min 0,000 mm 0,0 UV-I 0 W/m 2,7 C 6,2 C 3,2 km/h (1 Bft) 100,00 %
17.03.2016 20:00 6,2 C 78 % 1022,4 hPa 0,0 l/m 2,9 km/h (1 Bft) O-NO 70 0 min 0,000 mm 0,0 UV-I 0 W/m 2,7 C 6,2 C 3,2 km/h (1 Bft) 100,00 %
17.03.2016 20:01 6,3 C 78 % 1022,4 hPa 0,0 l/m 2,2 km/h (1 Bft) O-NO 70 0 min 0,000 mm 0,0 UV-I 0 W/m 2,8 C 6,3 C 3,2 km/h (1 Bft) 100,00 %
17.03.2016 20:02 6,3 C 78 % 1022,4 hPa 0,0 l/m 2,3 km/h (1 Bft) O-NO 70 0 min 0,000 mm 0,0 UV-I 0 W/m 2,8 C 6,3 C 3,2 km/h (1 Bft) 100,00 %
17.03.2016 20:03 6,3 C 78 % 1022,4 hPa 0,0 l/m 1,7 km/h (1 Bft) O-NO 70 0 min 0,000 mm 0,0 UV-I 0 W/m 2,8 C 6,3 C 3,2 km/h (1 Bft) 100,00 %
17.03.2016 20:04 6,3 C 78 % 1022,5 hPa 0,0 l/m 1,1 km/h (1 Bft) O-NO 70 0 min 0,000 mm 0,0 UV-I 0 W/m 2,8 C 6,3 C 1,6 km/h (1 Bft) 100,00 %
17.03.2016 20:05 6,3 C 77 % 1022,5 hPa 0,0 l/m 0,8 km/h (0 Bft) O-NO 70 0 min 0,000 mm 0,0 UV-I 0 W/m 2,6 C 6,3 C 1,6 km/h (1 Bft) 95,65 %
17.03.2016 20:06 6,3 C 77 % 1022,5 hPa 0,0 l/m 0,9 km/h (0 Bft) O-NO 70 0 min 0,000 mm 0,0 UV-I 0 W/m 2,6 C 6,3 C 1,6 km/h (1 Bft) 100,00 %
17.03.2016 20:07 6,2 C 78 % 1022,5 hPa 0,0 l/m 0,5 km/h (0 Bft) O-NO 70 0 min 0,000 mm 0,0 UV-I 0 W/m 2,7 C 6,2 C 1,6 km/h (1 Bft) 100,00 %
17.03.2016 20:08 6,1 C 78 % 1022,4 hPa 0,0 l/m 1,3 km/h (1 Bft) O-NO 70 0 min 0,000 mm 0,0 UV-I 0 W/m 2,6 C 6,1 C 1,6 km/h (1 Bft) 100,00 %
17.03.2016 20:09 6,0 C 79 % 1022,4 hPa 0,0 l/m 0,9 km/h (0 Bft) O-NO 70 0 min 0,000 mm 0,0 UV-I 0 W/m 2,6 C 6,0 C 1,6 km/h (1 Bft) 100,00 %
17.03.2016 20:10 5,9 C 79 % 1022,5 hPa 0,0 l/m 1,4 km/h (1 Bft) O-NO 70 0 min 0,000 mm 0,0 UV-I 0 W/m 2,5 C 5,9 C 1,6 km/h (1 Bft) 100,00 %
17.03.2016 20:11 5,9 C 79 % 1022,4 hPa 0,0 l/m 1,7 km/h (1 Bft) O-NO 70 0 min 0,000 mm 0,0 UV-I 0 W/m 2,5 C 5,9 C 3,2 km/h (1 Bft) 100,00 %
17.03.2016 20:12 5,8 C 79 % 1022,4 hPa 0,0 l/m 1,4 km/h (1 Bft) O-NO 70 0 min 0,000 mm 0,0 UV-I 0 W/m 2,4 C 5,8 C 1,6 km/h (1 Bft) 100,00 %
17.03.2016 20:13 5,8 C 79 % 1022,5 hPa 0,0 l/m 1,7 km/h (1 Bft) O-NO 70 0 min 0,000 mm 0,0 UV-I 0 W/m 2,4 C 5,8 C 3,2 km/h (1 Bft) 100,00 %
17.03.2016 20:14 5,8 C 79 % 1022,4 hPa 0,0 l/m 1,1 km/h (1 Bft) O-NO 70 0 min 0,000 mm 0,0 UV-I 0 W/m 2,4 C 5,8 C 1,6 km/h (1 Bft) 100,00 %
17.03.2016 20:15 5,8 C 79 % 1022,4 hPa 0,0 l/m 1,1 km/h (1 Bft) O-NO 70 0 min 0,000 mm 0,0 UV-I 0 W/m 2,4 C 5,8 C 1,6 km/h (1 Bft) 96,55 %
17.03.2016 20:16 5,8 C 79 % 1022,4 hPa 0,0 l/m 1,1 km/h (1 Bft) O-NO 70 0 min 0,000 mm 0,0 UV-I 0 W/m 2,4 C 5,8 C 1,6 km/h (1 Bft) 100,00 %
17.03.2016 20:17 5,7 C 80 % 1022,5 hPa 0,0 l/m 1,0 km/h (0 Bft) O-NO 70 0 min 0,000 mm 0,0 UV-I 0 W/m 2,5 C 5,7 C 1,6 km/h (1 Bft) 100,00 %
17.03.2016 20:18 5,6 C 80 % 1022,5 hPa 0,0 l/m 1,5 km/h (1 Bft) O-NO 70 0 min 0,000 mm 0,0 UV-I 0 W/m 2,4 C 5,6 C 1,6 km/h (1 Bft) 100,00 %
17.03.2016 20:19 5,5 C 80 % 1022,5 hPa 0,0 l/m 1,6 km/h (1 Bft) O-NO 70 0 min 0,000 mm 0,0 UV-I 0 W/m 2,3 C 5,5 C 3,2 km/h (1 Bft) 95,65 %
17.03.2016 20:20 5,4 C 80 % 1022,5 hPa 0,0 l/m 1,5 km/h (1 Bft) O-NO 70 0 min 0,000 mm 0,0 UV-I 0 W/m 2,2 C 5,4 C 3,2 km/h (1 Bft) 100,00 %
17.03.2016 20:21 5,3 C 81 % 1022,5 hPa 0,0 l/m 1,7 km/h (1 Bft) O-NO 70 0 min 0,000 mm 0,0 UV-I 0 W/m 2,3 C 5,3 C 3,2 km/h (1 Bft) 100,00 %
17.03.2016 20:22 5,2 C 81 % 1022,5 hPa 0,0 l/m 2,3 km/h (1 Bft) O-NO 70 0 min 0,000 mm 0,0 UV-I 0 W/m 2,2 C 5,2 C 3,2 km/h (1 Bft) 100,00 %
17.03.2016 20:23 5,1 C 81 % 1022,5 hPa 0,0 l/m 3,0 km/h (1 Bft) O-NO 70 0 min 0,000 mm 0,0 UV-I 0 W/m 2,1 C 5,1 C 4,8 km/h (1 Bft) 100,00 %
17.03.2016 20:24 5,0 C 82 % 1022,5 hPa 0,0 l/m 3,7 km/h (1 Bft) O-NO 70 0 min 0,000 mm 0,0 UV-I 0 W/m 2,2 C 5,0 C 4,8 km/h (1 Bft) 100,00 %
17.03.2016 20:25 4,9 C 82 % 1022,5 hPa 0,0 l/m 4,6 km/h (1 Bft) O-NO 68 0 min 0,000 mm 0,0 UV-I 0 W/m 2,1 C 4,9 C 6,4 km/h (2 Bft) 96,30 %
17.03.2016 20:26 5,0 C 82 % 1022,5 hPa 0,0 l/m 4,6 km/h (1 Bft) NO 47 0 min 0,000 mm 0,0 UV-I 0 W/m 2,2 C 5,0 C 4,8 km/h (1 Bft) 100,00 %
17.03.2016 20:27 5,0 C 82 % 1022,5 hPa 0,0 l/m 5,6 km/h (1 Bft) N-NO 32 0 min 0,000 mm 0,0 UV-I 0 W/m 2,2 C 5,0 C 6,4 km/h (2 Bft) 100,00 %
17.03.2016 20:28 5,1 C 82 % 1022,5 hPa 0,0 l/m 4,8 km/h (1 Bft) N-NO 32 0 min 0,000 mm 0,0 UV-I 0 W/m 2,3 C 5,1 C 6,4 km/h (2 Bft) 100,00 %
17.03.2016 20:29 5,1 C 82 % 1022,5 hPa 0,0 l/m 4,8 km/h (1 Bft) NO 35 0 min 0,000 mm 0,0 UV-I 0 W/m 2,3 C 5,1 C 6,4 km/h (2 Bft) 100,00 %
17.03.2016 20:30 5,1 C 82 % 1022,5 hPa 0,0 l/m 3,4 km/h (1 Bft) NO 35 0 min 0,000 mm 0,0 UV-I 0 W/m 2,3 C 5,1 C 4,8 km/h (1 Bft) 100,00 %
17.03.2016 20:31 5,1 C 82 % 1022,5 hPa 0,0 l/m 3,0 km/h (1 Bft) NO 36 0 min 0,000 mm 0,0 UV-I 0 W/m 2,3 C 5,1 C 4,8 km/h (1 Bft) 95,83 %
17.03.2016 20:32 5,1 C 82 % 1022,5 hPa 0,0 l/m 3,0 km/h (1 Bft) NO 36 0 min 0,000 mm 0,0 UV-I 0 W/m 2,3 C 5,1 C 4,8 km/h (1 Bft) 96,88 %
17.03.2016 20:33 5,1 C 82 % 1022,5 hPa 0,0 l/m 3,0 km/h (1 Bft) NO 36 0 min 0,000 mm 0,0 UV-I 0 W/m 2,3 C 5,1 C 4,8 km/h (1 Bft) 100,00 %
17.03.2016 20:34 5,1 C 82 % 1022,5 hPa 0,0 l/m 3,4 km/h (1 Bft) NO 36 0 min 0,000 mm 0,0 UV-I 0 W/m 2,3 C 5,1 C 4,8 km/h (1 Bft) 96,15 %
17.03.2016 20:35 5,1 C 82 % 1022,5 hPa 0,0 l/m 3,7 km/h (1 Bft) NO 38 0 min 0,000 mm 0,0 UV-I 0 W/m 2,3 C 5,1 C 4,8 km/h (1 Bft) 100,00 %
17.03.2016 20:36 5,1 C 82 % 1022,5 hPa 0,0 l/m 3,2 km/h (1 Bft) NO 39 0 min 0,000 mm 0,0 UV-I 0 W/m 2,3 C 5,1 C 3,2 km/h (1 Bft) 95,65 %
17.03.2016 20:37 5,1 C 82 % 1022,5 hPa 0,0 l/m 3,2 km/h (1 Bft) NO 39 0 min 0,000 mm 0,0 UV-I 0 W/m 2,3 C 5,1 C 4,8 km/h (1 Bft) 100,00 %
17.03.2016 20:38 5,1 C 82 % 1022,4 hPa 0,0 l/m 2,7 km/h (1 Bft) NO 39 0 min 0,000 mm 0,0 UV-I 0 W/m 2,3 C 5,1 C 3,2 km/h (1 Bft) 95,65 %
17.03.2016 20:39 5,1 C 82 % 1022,4 hPa 0,0 l/m 2,3 km/h (1 Bft) NO 39 0 min 0,000 mm 0,0 UV-I 0 W/m 2,3 C 5,1 C 3,2 km/h (1 Bft) 100,00 %
17.03.2016 20:40 5,1 C 82 % 1022,5 hPa 0,0 l/m 2,6 km/h (1 Bft) NO 39 0 min 0,000 mm 0,0 UV-I 0 W/m 2,3 C 5,1 C 3,2 km/h (1 Bft) 91,30 %
17.03.2016 20:41 5,1 C 82 % 1022,5 hPa 0,0 l/m 2,2 km/h (1 Bft) NO 39 0 min 0,000 mm 0,0 UV-I 0 W/m 2,3 C 5,1 C 3,2 km/h (1 Bft) 91,67 %
17.03.2016 20:42 5,0 C 82 % 1022,4 hPa 0,0 l/m 2,9 km/h (1 Bft) NO 39 0 min 0,000 mm 0,0 UV-I 0 W/m 2,2 C 5,0 C 4,8 km/h (1 Bft) 100,00 %
17.03.2016 20:43 5,0 C 82 % 1022,5 hPa 0,0 l/m 2,8 km/h (1 Bft) NO 39 0 min 0,000 mm 0,0 UV-I 0 W/m 2,2 C 5,0 C 4,8 km/h (1 Bft) 86,67 %
17.03.2016 20:44 4,9 C 82 % 1022,5 hPa 0,0 l/m 3,3 km/h (1 Bft) NO 48 0 min 0,000 mm 0,0 UV-I 0 W/m 2,1 C 4,9 C 4,8 km/h (1 Bft) 100,00 %
17.03.2016 20:45 4,9 C 82 % 1022,5 hPa 0,0 l/m 2,4 km/h (1 Bft) NO 48 0 min 0,000 mm 0,0 UV-I 0 W/m 2,1 C 4,9 C 4,8 km/h (1 Bft) 86,96 %
17.03.2016 20:46 4,9 C 82 % 1022,5 hPa 0,0 l/m 2,4 km/h (1 Bft) NO 48 0 min 0,000 mm 0,0 UV-I 0 W/m 2,1 C 4,9 C 3,2 km/h (1 Bft) 100,00 %
17.03.2016 20:47 5,0 C 82 % 1022,5 hPa 0,0 l/m 2,8 km/h (1 Bft) NO 48 0 min 0,000 mm 0,0 UV-I 0 W/m 2,2 C 5,0 C 4,8 km/h (1 Bft) 95,65 %
17.03.2016 20:48 5,0 C 82 % 1022,4 hPa 0,0 l/m 2,7 km/h (1 Bft) NO 48 0 min 0,000 mm 0,0 UV-I 0 W/m 2,2 C 5,0 C 3,2 km/h (1 Bft) 95,83 %
17.03.2016 20:49 5,1 C 82 % 1022,4 hPa 0,0 l/m 2,8 km/h (1 Bft) NO 48 0 min 0,000 mm 0,0 UV-I 0 W/m 2,3 C 5,1 C 3,2 km/h (1 Bft) 100,00 %
17.03.2016 20:50 5,0 C 82 % 1022,4 hPa 0,0 l/m 2,7 km/h (1 Bft) NO 48 0 min 0,000 mm 0,0 UV-I 0 W/m 2,2 C 5,0 C 3,2 km/h (1 Bft) 95,83 %
17.03.2016 20:51 5,1 C 82 % 1022,4 hPa 0,0 l/m 3,0 km/h (1 Bft) NO 48 0 min 0,000 mm 0,0 UV-I 0 W/m 2,3 C 5,1 C 3,2 km/h (1 Bft) 100,00 %
17.03.2016 20:52 5,1 C 82 % 1022,4 hPa 0,0 l/m 2,4 km/h (1 Bft) NO 48 0 min 0,000 mm 0,0 UV-I 0 W/m 2,3 C 5,1 C 3,2 km/h (1 Bft) 96,30 %
17.03.2016 20:53 5,1 C 82 % 1022,4 hPa 0,0 l/m 3,4 km/h (1 Bft) NO 49 0 min 0,000 mm 0,0 UV-I 0 W/m 2,3 C 5,1 C 4,8 km/h (1 Bft) 100,00 %
17.03.2016 20:54 5,1 C 81 % 1022,5 hPa 0,0 l/m 3,0 km/h (1 Bft) NO 49 0 min 0,000 mm 0,0 UV-I 0 W/m 2,1 C 5,1 C 3,2 km/h (1 Bft) 96,30 %
17.03.2016 20:55 5,0 C 81 % 1022,5 hPa 0,0 l/m 2,6 km/h (1 Bft) NO 49 0 min 0,000 mm 0,0 UV-I 0 W/m 2,0 C 5,0 C 3,2 km/h (1 Bft) 100,00 %
17.03.2016 20:56 5,0 C 81 % 1022,5 hPa 0,0 l/m 3,8 km/h (1 Bft) NO 49 0 min 0,000 mm 0,0 UV-I 0 W/m 2,0 C 5,0 C 4,8 km/h (1 Bft) 95,83 %
17.03.2016 20:57 4,9 C 81 % 1022,5 hPa 0,0 l/m 2,3 km/h (1 Bft) O-NO 57 0 min 0,000 mm 0,0 UV-I 0 W/m 1,9 C 4,9 C 4,8 km/h (1 Bft) 100,00 %
17.03.2016 20:58 4,9 C 81 % 1022,5 hPa 0,0 l/m 4,3 km/h (1 Bft) NO 49 0 min 0,000 mm 0,0 UV-I 0 W/m 1,9 C 4,9 C 6,4 km/h (2 Bft) 96,30 %
17.03.2016 20:59 4,9 C 81 % 1022,5 hPa 0,0 l/m 4,4 km/h (1 Bft) O-NO 71 0 min 0,000 mm 0,0 UV-I 0 W/m 1,9 C 4,9 C 6,4 km/h (2 Bft) 96,15 %
17.03.2016 21:00 4,8 C 81 % 1022,5 hPa 0,0 l/m 3,8 km/h (1 Bft) O-NO 71 0 min 0,000 mm 0,0 UV-I 0 W/m 1,8 C 4,8 C 4,8 km/h (1 Bft) 100,00 %
17.03.2016 21:01 4,8 C 82 % 1022,4 hPa 0,0 l/m 4,8 km/h (1 Bft) O-NO 66 0 min 0,000 mm 0,0 UV-I 0 W/m 2,0 C 4,8 C 6,4 km/h (2 Bft) 95,65 %
17.03.2016 21:02 4,7 C 82 % 1022,5 hPa 0,0 l/m 5,1 km/h (1 Bft) O-NO 74 0 min 0,000 mm 0,0 UV-I 0 W/m 1,9 C 4,7 C 6,4 km/h (2 Bft) 100,00 %
17.03.2016 21:03 4,7 C 82 % 1022,4 hPa 0,0 l/m 5,0 km/h (1 Bft) O-NO 66 0 min 0,000 mm 0,0 UV-I 0 W/m 1,9 C 4,7 C 6,4 km/h (2 Bft) 95,65 %
17.03.2016 21:04 4,7 C 82 % 1022,4 hPa 0,0 l/m 5,5 km/h (1 Bft) O-NO 69 0 min 0,000 mm 0,0 UV-I 0 W/m 1,9 C 4,7 C 8,0 km/h (2 Bft) 93,33 %
17.03.2016 21:05 4,7 C 82 % 1022,4 hPa 0,0 l/m 5,4 km/h (1 Bft) NO 46 0 min 0,000 mm 0,0 UV-I 0 W/m 1,9 C 4,7 C 8,0 km/h (2 Bft) 96,30 %
17.03.2016 21:06 4,8 C 82 % 1022,4 hPa 0,0 l/m 4,6 km/h (1 Bft) O-NO 74 0 min 0,000 mm 0,0 UV-I 0 W/m 2,0 C 4,8 C 6,4 km/h (2 Bft) 91,30 %
17.03.2016 21:07 4,8 C 81 % 1022,4 hPa 0,0 l/m 6,7 km/h (2 Bft) O-NO 70 0 min 0,000 mm 0,0 UV-I 0 W/m 1,8 C 4,6 C 11,3 km/h (2 Bft) 100,00 %
17.03.2016 21:08 4,8 C 81 % 1022,4 hPa 0,0 l/m 6,0 km/h (2 Bft) O-NO 67 0 min 0,000 mm 0,0 UV-I 0 W/m 1,8 C 4,8 C 8,0 km/h (2 Bft) 96,15 %
17.03.2016 21:09 4,8 C 82 % 1022,4 hPa 0,0 l/m 5,6 km/h (1 Bft) O-NO 69 0 min 0,000 mm 0,0 UV-I 0 W/m 2,0 C 4,8 C 8,0 km/h (2 Bft) 100,00 %
17.03.2016 21:10 4,8 C 81 % 1022,4 hPa 0,0 l/m 4,8 km/h (1 Bft) O-NO 69 0 min 0,000 mm 0,0 UV-I 0 W/m 1,8 C 4,8 C 6,4 km/h (2 Bft) 95,65 %
17.03.2016 21:11 4,8 C 81 % 1022,4 hPa 0,0 l/m 4,2 km/h (1 Bft) O-NO 67 0 min 0,000 mm 0,0 UV-I 0 W/m 1,8 C 4,8 C 6,4 km/h (2 Bft) 100,00 %
17.03.2016 21:12 4,9 C 81 % 1022,5 hPa 0,0 l/m 4,6 km/h (1 Bft) O-NO 76 0 min 0,000 mm 0,0 UV-I 0 W/m 1,9 C 4,9 C 6,4 km/h (2 Bft) 96,15 %
17.03.2016 21:13 4,9 C 81 % 1022,4 hPa 0,0 l/m 4,6 km/h (1 Bft) O-NO 78 0 min 0,000 mm 0,0 UV-I 0 W/m 1,9 C 4,9 C 6,4 km/h (2 Bft) 100,00 %
17.03.2016 21:14 4,8 C 81 % 1022,5 hPa 0,0 l/m 5,5 km/h (1 Bft) O-NO 67 0 min 0,000 mm 0,0 UV-I 0 W/m 1,8 C 4,8 C 8,0 km/h (2 Bft) 100,00 %
17.03.2016 21:15 4,9 C 81 % 1022,4 hPa 0,0 l/m 6,6 km/h (2 Bft) O-NO 76 0 min 0,000 mm 0,0 UV-I 0 W/m 1,9 C 4,7 C 8,0 km/h (2 Bft) 100,00 %
17.03.2016 21:16 4,9 C 81 % 1022,5 hPa 0,0 l/m 5,1 km/h (1 Bft) O-NO 78 0 min 0,000 mm 0,0 UV-I 0 W/m 1,9 C 4,9 C 8,0 km/h (2 Bft) 100,00 %
17.03.2016 21:17 4,8 C 81 % 1022,5 hPa 0,0 l/m 4,6 km/h (1 Bft) O-NO 74 0 min 0,000 mm 0,0 UV-I 0 W/m 1,8 C 4,8 C 6,4 km/h (2 Bft) 100,00 %
17.03.2016 21:18 4,8 C 81 % 1022,4 hPa 0,0 l/m 5,3 km/h (1 Bft) O 86 0 min 0,000 mm 0,0 UV-I 0 W/m 1,8 C 4,8 C 6,4 km/h (2 Bft) 100,00 %
17.03.2016 21:19 4,8 C 81 % 1022,5 hPa 0,0 l/m 3,5 km/h (1 Bft) O-NO 74 0 min 0,000 mm 0,0 UV-I 0 W/m 1,8 C 4,8 C 4,8 km/h (1 Bft) 100,00 %
17.03.2016 21:20 4,8 C 81 % 1022,5 hPa 0,0 l/m 5,3 km/h (1 Bft) O-NO 76 0 min 0,000 mm 0,0 UV-I 0 W/m 1,8 C 4,8 C 6,4 km/h (2 Bft) 100,00 %
17.03.2016 21:21 4,8 C 81 % 1022,4 hPa 0,0 l/m 5,1 km/h (1 Bft) O 81 0 min 0,000 mm 0,0 UV-I 0 W/m 1,8 C 4,8 C 6,4 km/h (2 Bft) 93,33 %
17.03.2016 21:22 4,8 C 81 % 1022,4 hPa 0,0 l/m 2,2 km/h (1 Bft) O 81 0 min 0,000 mm 0,0 UV-I 0 W/m 1,8 C 4,8 C 3,2 km/h (1 Bft) 100,00 %
17.03.2016 21:23 4,8 C 81 % 1022,4 hPa 0,0 l/m 3,4 km/h (1 Bft) NO 55 0 min 0,000 mm 0,0 UV-I 0 W/m 1,8 C 4,8 C 4,8 km/h (1 Bft) 100,00 %
17.03.2016 21:24 4,8 C 81 % 1022,5 hPa 0,0 l/m 2,7 km/h (1 Bft) NO 55 0 min 0,000 mm 0,0 UV-I 0 W/m 1,8 C 4,8 C 3,2 km/h (1 Bft) 96,55 %
17.03.2016 21:25 4,8 C 81 % 1022,4 hPa 0,0 l/m 1,6 km/h (1 Bft) NO 55 0 min 0,000 mm 0,0 UV-I 0 W/m 1,8 C 4,8 C 3,2 km/h (1 Bft) 100,00 %
17.03.2016 21:26 4,8 C 81 % 1022,4 hPa 0,0 l/m 1,7 km/h (1 Bft) NO 55 0 min 0,000 mm 0,0 UV-I 0 W/m 1,8 C 4,8 C 3,2 km/h (1 Bft) 100,00 %
17.03.2016 21:27 4,8 C 81 % 1022,4 hPa 0,0 l/m 1,7 km/h (1 Bft) NO 55 0 min 0,000 mm 0,0 UV-I 0 W/m 1,8 C 4,8 C 3,2 km/h (1 Bft) 100,00 %
17.03.2016 21:28 4,7 C 81 % 1022,4 hPa 0,0 l/m 1,2 km/h (1 Bft) NO 55 0 min 0,000 mm 0,0 UV-I 0 W/m 1,7 C 4,7 C 3,2 km/h (1 Bft) 100,00 %
17.03.2016 21:29 4,7 C 81 % 1022,4 hPa 0,0 l/m 1,1 km/h (1 Bft) NO 55 0 min 0,000 mm 0,0 UV-I 0 W/m 1,7 C 4,7 C 3,2 km/h (1 Bft) 100,00 %
17.03.2016 21:30 4,7 C 81 % 1022,4 hPa 0,0 l/m 0,9 km/h (0 Bft) NO 55 0 min 0,000 mm 0,0 UV-I 0 W/m 1,7 C 4,7 C 3,2 km/h (1 Bft) 100,00 %
17.03.2016 21:31 4,7 C 81 % 1022,4 hPa 0,0 l/m 1,4 km/h (1 Bft) NO 55 0 min 0,000 mm 0,0 UV-I 0 W/m 1,7 C 4,7 C 1,6 km/h (1 Bft) 100,00 %
17.03.2016 21:32 4,7 C 81 % 1022,4 hPa 0,0 l/m 0,8 km/h (0 Bft) NO 55 0 min 0,000 mm 0,0 UV-I 0 W/m 1,7 C 4,7 C 1,6 km/h (1 Bft) 100,00 %
17.03.2016 21:33 4,6 C 81 % 1022,4 hPa 0,0 l/m 1,5 km/h (1 Bft) NO 55 0 min 0,000 mm 0,0 UV-I 0 W/m 1,6 C 4,6 C 3,2 km/h (1 Bft) 100,00 %
17.03.2016 21:34 4,6 C 82 % 1022,4 hPa 0,0 l/m 2,1 km/h (1 Bft) NO 55 0 min 0,000 mm 0,0 UV-I 0 W/m 1,8 C 4,6 C 3,2 km/h (1 Bft) 100,00 %
17.03.2016 21:35 4,5 C 82 % 1022,4 hPa 0,0 l/m 1,9 km/h (1 Bft) NO 55 0 min 0,000 mm 0,0 UV-I 0 W/m 1,7 C 4,5 C 3,2 km/h (1 Bft) 100,00 %
17.03.2016 21:36 4,4 C 82 % 1022,4 hPa 0,0 l/m 1,1 km/h (1 Bft) NO 55 0 min 0,000 mm 0,0 UV-I 0 W/m 1,6 C 4,4 C 1,6 km/h (1 Bft) 100,00 %
17.03.2016 21:37 4,3 C 82 % 1022,4 hPa 0,0 l/m 1,5 km/h (1 Bft) NO 55 0 min 0,000 mm 0,0 UV-I 0 W/m 1,5 C 4,3 C 1,6 km/h (1 Bft) 100,00 %
17.03.2016 21:38 4,3 C 82 % 1022,4 hPa 0,0 l/m 0,9 km/h (0 Bft) NO 55 0 min 0,000 mm 0,0 UV-I 0 W/m 1,5 C 4,3 C 1,6 km/h (1 Bft) 100,00 %
17.03.2016 21:39 4,3 C 82 % 1022,4 hPa 0,0 l/m 0,8 km/h (0 Bft) NO 55 0 min 0,000 mm 0,0 UV-I 0 W/m 1,5 C 4,3 C 1,6 km/h (1 Bft) 100,00 %
17.03.2016 21:40 4,3 C 83 % 1022,4 hPa 0,0 l/m 1,0 km/h (0 Bft) NO 55 0 min 0,000 mm 0,0 UV-I 0 W/m 1,7 C 4,3 C 1,6 km/h (1 Bft) 100,00 %
17.03.2016 21:41 4,3 C 83 % 1022,4 hPa 0,0 l/m 1,3 km/h (1 Bft) NO 55 0 min 0,000 mm 0,0 UV-I 0 W/m 1,7 C 4,3 C 1,6 km/h (1 Bft) 100,00 %
17.03.2016 21:42 4,3 C 83 % 1022,4 hPa 0,0 l/m 1,6 km/h (1 Bft) NO 55 0 min 0,000 mm 0,0 UV-I 0 W/m 1,7 C 4,3 C 1,6 km/h (1 Bft) 100,00 %
17.03.2016 21:43 4,3 C 83 % 1022,4 hPa 0,0 l/m 1,4 km/h (1 Bft) NO 55 0 min 0,000 mm 0,0 UV-I 0 W/m 1,7 C 4,3 C 1,6 km/h (1 Bft) 100,00 %
17.03.2016 21:44 4,3 C 83 % 1022,4 hPa 0,0 l/m 1,5 km/h (1 Bft) NO 55 0 min 0,000 mm 0,0 UV-I 0 W/m 1,7 C 4,3 C 1,6 km/h (1 Bft) 100,00 %
17.03.2016 21:45 4,3 C 83 % 1022,4 hPa 0,0 l/m 0,5 km/h (0 Bft) NO 55 0 min 0,000 mm 0,0 UV-I 0 W/m 1,7 C 4,3 C 1,6 km/h (1 Bft) 100,00 %
17.03.2016 21:46 4,2 C 82 % 1022,4 hPa 0,0 l/m 1,3 km/h (1 Bft) NO 55 0 min 0,000 mm 0,0 UV-I 0 W/m 1,4 C 4,2 C 1,6 km/h (1 Bft) 100,00 %
17.03.2016 21:47 4,1 C 83 % 1022,4 hPa 0,0 l/m 1,2 km/h (1 Bft) NO 55 0 min 0,000 mm 0,0 UV-I 0 W/m 1,5 C 4,1 C 1,6 km/h (1 Bft) 100,00 %
17.03.2016 21:48 4,0 C 83 % 1022,4 hPa 0,0 l/m 0,9 km/h (0 Bft) NO 55 0 min 0,000 mm 0,0 UV-I 0 W/m 1,4 C 4,0 C 1,6 km/h (1 Bft) 100,00 %
17.03.2016 21:49 3,9 C 84 % 1022,4 hPa 0,0 l/m 0,8 km/h (0 Bft) NO 55 0 min 0,000 mm 0,0 UV-I 0 W/m 1,4 C 3,9 C 1,6 km/h (1 Bft) 100,00 %
17.03.2016 21:50 3,8 C 84 % 1022,4 hPa 0,0 l/m 0,2 km/h (0 Bft) NO 55 0 min 0,000 mm 0,0 UV-I 0 W/m 1,4 C 3,8 C 1,6 km/h (1 Bft) 100,00 %
17.03.2016 21:51 3,7 C 84 % 1022,4 hPa 0,0 l/m 0,1 km/h (0 Bft) NO 55 0 min 0,000 mm 0,0 UV-I 0 W/m 1,3 C 3,7 C 1,6 km/h (1 Bft) 100,00 %
17.03.2016 21:52 3,6 C 85 % 1022,4 hPa 0,0 l/m 0,0 km/h (0 Bft) NO 55 0 min 0,000 mm 0,0 UV-I 0 W/m 1,3 C 3,6 C 0,0 km/h (0 Bft) 100,00 %
17.03.2016 21:53 3,4 C 86 % 1022,4 hPa 0,0 l/m 0,7 km/h (0 Bft) NO 55 0 min 0,000 mm 0,0 UV-I 0 W/m 1,3 C 3,4 C 1,6 km/h (1 Bft) 100,00 %
17.03.2016 21:54 3,2 C 86 % 1022,4 hPa 0,0 l/m 0,3 km/h (0 Bft) NO 55 0 min 0,000 mm 0,0 UV-I 0 W/m 1,1 C 3,2 C 1,6 km/h (1 Bft) 100,00 %
17.03.2016 21:55 3,1 C 87 % 1022,4 hPa 0,0 l/m 0,0 km/h (0 Bft) NO 55 0 min 0,000 mm 0,0 UV-I 0 W/m 1,2 C 3,1 C 0,0 km/h (0 Bft) 100,00 %
17.03.2016 21:56 3,0 C 87 % 1022,4 hPa 0,0 l/m 0,0 km/h (0 Bft) NO 55 0 min 0,000 mm 0,0 UV-I 0 W/m 1,1 C 3,0 C 0,0 km/h (0 Bft) 100,00 %
17.03.2016 21:57 2,9 C 88 % 1022,4 hPa 0,0 l/m 0,0 km/h (0 Bft) NO 55 0 min 0,000 mm 0,0 UV-I 0 W/m 1,1 C 2,9 C 0,0 km/h (0 Bft) 100,00 %
17.03.2016 21:58 2,9 C 88 % 1022,4 hPa 0,0 l/m 0,1 km/h (0 Bft) NO 55 0 min 0,000 mm 0,0 UV-I 0 W/m 1,1 C 2,9 C 1,6 km/h (1 Bft) 100,00 %
17.03.2016 21:59 2,9 C 88 % 1022,4 hPa 0,0 l/m 0,4 km/h (0 Bft) NO 55 0 min 0,000 mm 0,0 UV-I 0 W/m 1,1 C 2,9 C 1,6 km/h (1 Bft) 100,00 %
17.03.2016 22:00 2,9 C 88 % 1022,4 hPa 0,0 l/m 1,3 km/h (1 Bft) NO 55 0 min 0,000 mm 0,0 UV-I 0 W/m 1,1 C 2,9 C 3,2 km/h (1 Bft) 100,00 %
17.03.2016 22:01 2,8 C 88 % 1022,4 hPa 0,0 l/m 1,2 km/h (1 Bft) NO 55 0 min 0,000 mm 0,0 UV-I 0 W/m 1,0 C 2,8 C 3,2 km/h (1 Bft) 100,00 %
17.03.2016 22:02 2,8 C 88 % 1022,4 hPa 0,0 l/m 1,5 km/h (1 Bft) NO 55 0 min 0,000 mm 0,0 UV-I 0 W/m 1,0 C 2,8 C 3,2 km/h (1 Bft) 100,00 %
17.03.2016 22:03 2,8 C 88 % 1022,4 hPa 0,0 l/m 1,7 km/h (1 Bft) NO 55 0 min 0,000 mm 0,0 UV-I 0 W/m 1,0 C 2,8 C 3,2 km/h (1 Bft) 100,00 %
17.03.2016 22:04 2,8 C 88 % 1022,4 hPa 0,0 l/m 1,7 km/h (1 Bft) NO 55 0 min 0,000 mm 0,0 UV-I 0 W/m 1,0 C 2,8 C 3,2 km/h (1 Bft) 100,00 %
17.03.2016 22:05 2,8 C 88 % 1022,4 hPa 0,0 l/m 1,9 km/h (1 Bft) NO 55 0 min 0,000 mm 0,0 UV-I 0 W/m 1,0 C 2,8 C 3,2 km/h (1 Bft) 100,00 %
17.03.2016 22:06 2,8 C 88 % 1022,3 hPa 0,0 l/m 2,0 km/h (1 Bft) NO 55 0 min 0,000 mm 0,0 UV-I 0 W/m 1,0 C 2,8 C 3,2 km/h (1 Bft) 100,00 %
17.03.2016 22:07 2,9 C 88 % 1022,4 hPa 0,0 l/m 2,0 km/h (1 Bft) NO 55 0 min 0,000 mm 0,0 UV-I 0 W/m 1,1 C 2,9 C 3,2 km/h (1 Bft) 100,00 %
17.03.2016 22:08 2,9 C 88 % 1022,4 hPa 0,0 l/m 2,4 km/h (1 Bft) NO 55 0 min 0,000 mm 0,0 UV-I 0 W/m 1,1 C 2,9 C 3,2 km/h (1 Bft) 100,00 %
17.03.2016 22:09 2,9 C 88 % 1022,3 hPa 0,0 l/m 2,6 km/h (1 Bft) NO 55 0 min 0,000 mm 0,0 UV-I 0 W/m 1,1 C 2,9 C 3,2 km/h (1 Bft) 100,00 %
17.03.2016 22:10 2,8 C 88 % 1022,3 hPa 0,0 l/m 2,6 km/h (1 Bft) NO 55 0 min 0,000 mm 0,0 UV-I 0 W/m 1,0 C 2,8 C 3,2 km/h (1 Bft) 100,00 %
17.03.2016 22:11 2,8 C 88 % 1022,3 hPa 0,0 l/m 2,3 km/h (1 Bft) NO 55 0 min 0,000 mm 0,0 UV-I 0 W/m 1,0 C 2,8 C 3,2 km/h (1 Bft) 95,65 %
17.03.2016 22:12 2,8 C 88 % 1022,3 hPa 0,0 l/m 2,2 km/h (1 Bft) NO 55 0 min 0,000 mm 0,0 UV-I 0 W/m 1,0 C 2,8 C 3,2 km/h (1 Bft) 100,00 %
17.03.2016 22:13 2,8 C 88 % 1022,3 hPa 0,0 l/m 1,9 km/h (1 Bft) NO 55 0 min 0,000 mm 0,0 UV-I 0 W/m 1,0 C 2,8 C 3,2 km/h (1 Bft) 95,65 %
17.03.2016 22:14 2,8 C 87 % 1022,3 hPa 0,0 l/m 1,9 km/h (1 Bft) NO 55 0 min 0,000 mm 0,0 UV-I 0 W/m 0,9 C 2,8 C 3,2 km/h (1 Bft) 100,00 %
17.03.2016 22:15 2,7 C 88 % 1022,3 hPa 0,0 l/m 3,0 km/h (1 Bft) O 84 0 min 0,000 mm 0,0 UV-I 0 W/m 0,9 C 2,7 C 3,2 km/h (1 Bft) 100,00 %
17.03.2016 22:16 2,7 C 88 % 1022,3 hPa 0,0 l/m 2,7 km/h (1 Bft) O 85 0 min 0,000 mm 0,0 UV-I 0 W/m 0,9 C 2,7 C 3,2 km/h (1 Bft) 100,00 %
17.03.2016 22:17 2,7 C 88 % 1022,3 hPa 0,0 l/m 2,7 km/h (1 Bft) O 85 0 min 0,000 mm 0,0 UV-I 0 W/m 0,9 C 2,7 C 3,2 km/h (1 Bft) 100,00 %
17.03.2016 22:18 2,6 C 88 % 1022,3 hPa 0,0 l/m 2,7 km/h (1 Bft) O 85 0 min 0,000 mm 0,0 UV-I 0 W/m 0,8 C 2,6 C 3,2 km/h (1 Bft) 100,00 %
17.03.2016 22:19 2,6 C 88 % 1022,3 hPa 0,0 l/m 2,6 km/h (1 Bft) O 85 0 min 0,000 mm 0,0 UV-I 0 W/m 0,8 C 2,6 C 3,2 km/h (1 Bft) 100,00 %
17.03.2016 22:20 2,5 C 88 % 1022,4 hPa 0,0 l/m 2,3 km/h (1 Bft) O 85 0 min 0,000 mm 0,0 UV-I 0 W/m 0,7 C 2,5 C 3,2 km/h (1 Bft) 100,00 %
17.03.2016 22:21 2,4 C 88 % 1022,4 hPa 0,0 l/m 2,6 km/h (1 Bft) O 85 0 min 0,000 mm 0,0 UV-I 0 W/m 0,6 C 2,4 C 3,2 km/h (1 Bft) 96,15 %
17.03.2016 22:22 2,4 C 89 % 1022,4 hPa 0,0 l/m 2,1 km/h (1 Bft) O 85 0 min 0,000 mm 0,0 UV-I 0 W/m 0,8 C 2,4 C 3,2 km/h (1 Bft) 100,00 %
17.03.2016 22:23 2,3 C 89 % 1022,4 hPa 0,0 l/m 3,0 km/h (1 Bft) O 85 0 min 0,000 mm 0,0 UV-I 0 W/m 0,7 C 2,3 C 3,2 km/h (1 Bft) 100,00 %
17.03.2016 22:24 2,2 C 89 % 1022,4 hPa 0,0 l/m 3,2 km/h (1 Bft) O 85 0 min 0,000 mm 0,0 UV-I 0 W/m 0,6 C 2,2 C 3,2 km/h (1 Bft) 100,00 %
17.03.2016 22:25 2,2 C 89 % 1022,4 hPa 0,0 l/m 3,6 km/h (1 Bft) O-SO 121 0 min 0,000 mm 0,0 UV-I 0 W/m 0,6 C 2,2 C 4,8 km/h (1 Bft) 100,00 %
17.03.2016 22:26 2,1 C 89 % 1022,4 hPa 0,0 l/m 4,0 km/h (1 Bft) SO 124 0 min 0,000 mm 0,0 UV-I 0 W/m 0,5 C 2,1 C 4,8 km/h (1 Bft) 100,00 %
17.03.2016 22:27 2,0 C 89 % 1022,4 hPa 0,0 l/m 3,9 km/h (1 Bft) SO 138 0 min 0,000 mm 0,0 UV-I 0 W/m 0,4 C 2,0 C 4,8 km/h (1 Bft) 100,00 %
17.03.2016 22:28 2,0 C 90 % 1022,3 hPa 0,0 l/m 3,2 km/h (1 Bft) SO 138 0 min 0,000 mm 0,0 UV-I 0 W/m 0,5 C 2,0 C 4,8 km/h (1 Bft) 100,00 %
17.03.2016 22:29 1,9 C 90 % 1022,3 hPa 0,0 l/m 3,6 km/h (1 Bft) SO 138 0 min 0,000 mm 0,0 UV-I 0 W/m 0,4 C 1,9 C 4,8 km/h (1 Bft) 100,00 %
17.03.2016 22:30 1,9 C 90 % 1022,3 hPa 0,0 l/m 3,1 km/h (1 Bft) SO 138 0 min 0,000 mm 0,0 UV-I 0 W/m 0,4 C 1,9 C 4,8 km/h (1 Bft) 100,00 %
17.03.2016 22:31 1,9 C 90 % 1022,3 hPa 0,0 l/m 3,2 km/h (1 Bft) SO 138 0 min 0,000 mm 0,0 UV-I 0 W/m 0,4 C 1,9 C 4,8 km/h (1 Bft) 100,00 %
17.03.2016 22:32 1,9 C 90 % 1022,3 hPa 0,0 l/m 3,4 km/h (1 Bft) SO 138 0 min 0,000 mm 0,0 UV-I 0 W/m 0,4 C 1,9 C 4,8 km/h (1 Bft) 95,65 %
17.03.2016 22:33 1,9 C 90 % 1022,3 hPa 0,0 l/m 2,2 km/h (1 Bft) SO 138 0 min 0,000 mm 0,0 UV-I 0 W/m 0,4 C 1,9 C 3,2 km/h (1 Bft) 100,00 %
17.03.2016 22:34 2,0 C 90 % 1022,3 hPa 0,0 l/m 2,3 km/h (1 Bft) SO 138 0 min 0,000 mm 0,0 UV-I 0 W/m 0,5 C 2,0 C 3,2 km/h (1 Bft) 100,00 %
17.03.2016 22:35 2,1 C 91 % 1022,2 hPa 0,0 l/m 3,0 km/h (1 Bft) SO 138 0 min 0,000 mm 0,0 UV-I 0 W/m 0,8 C 2,1 C 3,2 km/h (1 Bft) 100,00 %
17.03.2016 22:36 2,1 C 91 % 1022,3 hPa 0,0 l/m 3,4 km/h (1 Bft) SO 138 0 min 0,000 mm 0,0 UV-I 0 W/m 0,8 C 2,1 C 4,8 km/h (1 Bft) 100,00 %
17.03.2016 22:37 2,1 C 91 % 1022,3 hPa 0,0 l/m 3,4 km/h (1 Bft) SO 138 0 min 0,000 mm 0,0 UV-I 0 W/m 0,8 C 2,1 C 4,8 km/h (1 Bft) 100,00 %
17.03.2016 22:38 2,1 C 90 % 1022,3 hPa 0,0 l/m 3,5 km/h (1 Bft) SO 138 0 min 0,000 mm 0,0 UV-I 0 W/m 0,6 C 2,1 C 4,8 km/h (1 Bft) 100,00 %
17.03.2016 22:39 2,1 C 90 % 1022,2 hPa 0,0 l/m 3,2 km/h (1 Bft) SO 138 0 min 0,000 mm 0,0 UV-I 0 W/m 0,6 C 2,1 C 3,2 km/h (1 Bft) 100,00 %
17.03.2016 22:40 2,1 C 90 % 1022,3 hPa 0,0 l/m 3,2 km/h (1 Bft) SO 138 0 min 0,000 mm 0,0 UV-I 0 W/m 0,6 C 2,1 C 3,2 km/h (1 Bft) 100,00 %
17.03.2016 22:41 2,1 C 90 % 1022,3 hPa 0,0 l/m 3,0 km/h (1 Bft) SO 138 0 min 0,000 mm 0,0 UV-I 0 W/m 0,6 C 2,1 C 3,2 km/h (1 Bft) 100,00 %
17.03.2016 22:42 2,1 C 90 % 1022,2 hPa 0,0 l/m 2,4 km/h (1 Bft) SO 138 0 min 0,000 mm 0,0 UV-I 0 W/m 0,6 C 2,1 C 3,2 km/h (1 Bft) 98,61 %
17.03.2016 22:43 2,1 C 91 % 1022,3 hPa 0,0 l/m 2,8 km/h (1 Bft) SO 138 0 min 0,000 mm 0,0 UV-I 0 W/m 0,8 C 2,1 C 3,2 km/h (1 Bft) 100,00 %
17.03.2016 22:44 2,1 C 90 % 1022,3 hPa 0,0 l/m 3,1 km/h (1 Bft) SO 138 0 min 0,000 mm 0,0 UV-I 0 W/m 0,6 C 2,1 C 3,2 km/h (1 Bft) 100,00 %
17.03.2016 22:45 2,1 C 90 % 1022,2 hPa 0,0 l/m 3,2 km/h (1 Bft) SO 138 0 min 0,000 mm 0,0 UV-I 0 W/m 0,6 C 2,1 C 3,2 km/h (1 Bft) 92,31 %
17.03.2016 22:46 2,1 C 90 % 1022,3 hPa 0,0 l/m 3,1 km/h (1 Bft) SO 138 0 min 0,000 mm 0,0 UV-I 0 W/m 0,6 C 2,1 C 3,2 km/h (1 Bft) 100,00 %
17.03.2016 22:47 2,1 C 90 % 1022,2 hPa 0,0 l/m 3,3 km/h (1 Bft) SO 138 0 min 0,000 mm 0,0 UV-I 0 W/m 0,6 C 2,1 C 4,8 km/h (1 Bft) 91,30 %
17.03.2016 22:48 2,0 C 90 % 1022,2 hPa 0,0 l/m 2,4 km/h (1 Bft) SO 138 0 min 0,000 mm 0,0 UV-I 0 W/m 0,5 C 2,0 C 3,2 km/h (1 Bft) 100,00 %
17.03.2016 22:49 2,0 C 90 % 1022,2 hPa 0,0 l/m 0,9 km/h (0 Bft) SO 138 0 min 0,000 mm 0,0 UV-I 0 W/m 0,5 C 2,0 C 1,6 km/h (1 Bft) 100,00 %
17.03.2016 22:50 2,0 C 91 % 1022,2 hPa 0,0 l/m 0,8 km/h (0 Bft) SO 138 0 min 0,000 mm 0,0 UV-I 0 W/m 0,7 C 2,0 C 1,6 km/h (1 Bft) 100,00 %
17.03.2016 22:51 2,1 C 91 % 1022,2 hPa 0,0 l/m 0,6 km/h (0 Bft) SO 138 0 min 0,000 mm 0,0 UV-I 0 W/m 0,8 C 2,1 C 1,6 km/h (1 Bft) 100,00 %
17.03.2016 22:52 2,2 C 91 % 1022,3 hPa 0,0 l/m 0,8 km/h (0 Bft) SO 138 0 min 0,000 mm 0,0 UV-I 0 W/m 0,9 C 2,2 C 1,6 km/h (1 Bft) 100,00 %
17.03.2016 22:53 2,2 C 91 % 1022,3 hPa 0,0 l/m 1,0 km/h (0 Bft) SO 138 0 min 0,000 mm 0,0 UV-I 0 W/m 0,9 C 2,2 C 1,6 km/h (1 Bft) 96,15 %
17.03.2016 22:54 2,3 C 91 % 1022,2 hPa 0,0 l/m 0,7 km/h (0 Bft) SO 138 0 min 0,000 mm 0,0 UV-I 0 W/m 1,0 C 2,3 C 1,6 km/h (1 Bft) 96,30 %
17.03.2016 22:55 2,4 C 91 % 1022,2 hPa 0,0 l/m 1,0 km/h (0 Bft) SO 138 0 min 0,000 mm 0,0 UV-I 0 W/m 1,1 C 2,4 C 1,6 km/h (1 Bft) 100,00 %
17.03.2016 22:56 2,5 C 91 % 1022,2 hPa 0,0 l/m 1,4 km/h (1 Bft) SO 138 0 min 0,000 mm 0,0 UV-I 0 W/m 1,2 C 2,5 C 3,2 km/h (1 Bft) 96,15 %
17.03.2016 22:57 2,4 C 90 % 1022,2 hPa 0,0 l/m 2,3 km/h (1 Bft) SO 138 0 min 0,000 mm 0,0 UV-I 0 W/m 0,9 C 2,4 C 3,2 km/h (1 Bft) 97,14 %
17.03.2016 22:58 2,4 C 90 % 1022,3 hPa 0,0 l/m 2,1 km/h (1 Bft) SO 138 0 min 0,000 mm 0,0 UV-I 0 W/m 0,9 C 2,4 C 3,2 km/h (1 Bft) 100,00 %
17.03.2016 22:59 2,4 C 90 % 1022,2 hPa 0,0 l/m 2,9 km/h (1 Bft) SO 138 0 min 0,000 mm 0,0 UV-I 0 W/m 0,9 C 2,4 C 3,2 km/h (1 Bft) 100,00 %
17.03.2016 23:00 2,4 C 90 % 1022,2 hPa 0,0 l/m 2,1 km/h (1 Bft) SO 138 0 min 0,000 mm 0,0 UV-I 0 W/m 0,9 C 2,4 C 3,2 km/h (1 Bft) 91,30 %
17.03.2016 23:02 2,3 C 90 % 1022,2 hPa 0,0 l/m 2,1 km/h (1 Bft) SO 138 0 min 0,000 mm 0,0 UV-I 0 W/m 0,8 C 2,3 C 3,2 km/h (1 Bft) 98,00 %
17.03.2016 23:03 2,2 C 89 % 1022,2 hPa 0,0 l/m 2,6 km/h (1 Bft) SO 138 0 min 0,000 mm 0,0 UV-I 0 W/m 0,6 C 2,2 C 3,2 km/h (1 Bft) 95,83 %
17.03.2016 23:04 2,1 C 89 % 1022,2 hPa 0,0 l/m 2,9 km/h (1 Bft) SO 138 0 min 0,000 mm 0,0 UV-I 0 W/m 0,5 C 2,1 C 3,2 km/h (1 Bft) 96,15 %
17.03.2016 23:05 1,9 C 89 % 1022,2 hPa 0,0 l/m 2,5 km/h (1 Bft) SO 138 0 min 0,000 mm 0,0 UV-I 0 W/m 0,3 C 1,9 C 3,2 km/h (1 Bft) 96,30 %
17.03.2016 23:06 1,8 C 89 % 1022,2 hPa 0,0 l/m 1,6 km/h (1 Bft) SO 138 0 min 0,000 mm 0,0 UV-I 0 W/m 0,2 C 1,8 C 3,2 km/h (1 Bft) 95,65 %
17.03.2016 23:07 1,8 C 90 % 1022,1 hPa 0,0 l/m 1,2 km/h (1 Bft) SO 138 0 min 0,000 mm 0,0 UV-I 0 W/m 0,3 C 1,8 C 3,2 km/h (1 Bft) 100,00 %
17.03.2016 23:08 1,7 C 90 % 1022,1 hPa 0,0 l/m 2,1 km/h (1 Bft) SO 138 0 min 0,000 mm 0,0 UV-I 0 W/m 0,2 C 1,7 C 3,2 km/h (1 Bft) 100,00 %
17.03.2016 23:09 1,7 C 90 % 1022,1 hPa 0,0 l/m 2,0 km/h (1 Bft) SO 138 0 min 0,000 mm 0,0 UV-I 0 W/m 0,2 C 1,7 C 3,2 km/h (1 Bft) 96,30 %
17.03.2016 23:10 1,6 C 91 % 1022,1 hPa 0,0 l/m 2,2 km/h (1 Bft) SO 138 0 min 0,000 mm 0,0 UV-I 0 W/m 0,3 C 1,6 C 3,2 km/h (1 Bft) 96,15 %
17.03.2016 23:11 1,6 C 91 % 1022,1 hPa 0,0 l/m 2,4 km/h (1 Bft) SO 138 0 min 0,000 mm 0,0 UV-I 0 W/m 0,3 C 1,6 C 3,2 km/h (1 Bft) 100,00 %
17.03.2016 23:12 1,6 C 91 % 1022,1 hPa 0,0 l/m 3,0 km/h (1 Bft) SO 138 0 min 0,000 mm 0,0 UV-I 0 W/m 0,3 C 1,6 C 3,2 km/h (1 Bft) 91,67 %
17.03.2016 23:13 1,6 C 91 % 1022,1 hPa 0,0 l/m 3,4 km/h (1 Bft) SO 138 0 min 0,000 mm 0,0 UV-I 0 W/m 0,3 C 1,6 C 4,8 km/h (1 Bft) 97,37 %
17.03.2016 23:14 1,6 C 91 % 1022,1 hPa 0,0 l/m 3,4 km/h (1 Bft) SO 138 0 min 0,000 mm 0,0 UV-I 0 W/m 0,3 C 1,6 C 4,8 km/h (1 Bft) 95,65 %
17.03.2016 23:15 1,5 C 91 % 1022,1 hPa 0,0 l/m 3,3 km/h (1 Bft) SO 138 0 min 0,000 mm 0,0 UV-I 0 W/m 0,2 C 1,5 C 4,8 km/h (1 Bft) 95,83 %
17.03.2016 23:16 1,5 C 91 % 1022,1 hPa 0,0 l/m 3,2 km/h (1 Bft) SO 138 0 min 0,000 mm 0,0 UV-I 0 W/m 0,2 C 1,5 C 3,2 km/h (1 Bft) 100,00 %
17.03.2016 23:17 1,4 C 91 % 1022,1 hPa 0,0 l/m 3,4 km/h (1 Bft) SO 138 0 min 0,000 mm 0,0 UV-I 0 W/m 0,1 C 1,4 C 4,8 km/h (1 Bft) 95,83 %
17.03.2016 23:18 1,4 C 91 % 1022,1 hPa 0,0 l/m 3,4 km/h (1 Bft) SO 138 0 min 0,000 mm 0,0 UV-I 0 W/m 0,1 C 1,4 C 4,8 km/h (1 Bft) 100,00 %
17.03.2016 23:19 1,3 C 91 % 1022,1 hPa 0,0 l/m 3,5 km/h (1 Bft) SO 138 0 min 0,000 mm 0,0 UV-I 0 W/m -0,0 C 1,3 C 4,8 km/h (1 Bft) 95,83 %
17.03.2016 23:20 1,3 C 92 % 1022,1 hPa 0,0 l/m 3,4 km/h (1 Bft) SO 138 0 min 0,000 mm 0,0 UV-I 0 W/m 0,1 C 1,3 C 4,8 km/h (1 Bft) 100,00 %
17.03.2016 23:21 1,3 C 92 % 1022,1 hPa 0,0 l/m 3,4 km/h (1 Bft) SO 138 0 min 0,000 mm 0,0 UV-I 0 W/m 0,1 C 1,3 C 4,8 km/h (1 Bft) 91,67 %
17.03.2016 23:22 1,3 C 92 % 1022,1 hPa 0,0 l/m 3,6 km/h (1 Bft) SO 138 0 min 0,000 mm 0,0 UV-I 0 W/m 0,1 C 1,3 C 4,8 km/h (1 Bft) 93,10 %
17.03.2016 23:23 1,3 C 92 % 1022,1 hPa 0,0 l/m 3,6 km/h (1 Bft) SO 138 0 min 0,000 mm 0,0 UV-I 0 W/m 0,1 C 1,3 C 4,8 km/h (1 Bft) 100,00 %
17.03.2016 23:24 1,2 C 92 % 1022,1 hPa 0,0 l/m 3,5 km/h (1 Bft) SO 138 0 min 0,000 mm 0,0 UV-I 0 W/m 0,0 C 1,2 C 4,8 km/h (1 Bft) 94,29 %
17.03.2016 23:25 1,2 C 92 % 1022,1 hPa 0,0 l/m 3,5 km/h (1 Bft) SO 138 0 min 0,000 mm 0,0 UV-I 0 W/m 0,0 C 1,2 C 4,8 km/h (1 Bft) 100,00 %
17.03.2016 23:26 1,2 C 92 % 1022,1 hPa 0,0 l/m 3,2 km/h (1 Bft) SO 138 0 min 0,000 mm 0,0 UV-I 0 W/m 0,0 C 1,2 C 3,2 km/h (1 Bft) 96,67 %
17.03.2016 23:27 1,2 C 92 % 1022,0 hPa 0,0 l/m 3,4 km/h (1 Bft) SO 138 0 min 0,000 mm 0,0 UV-I 0 W/m 0,0 C 1,2 C 4,8 km/h (1 Bft) 100,00 %
17.03.2016 23:28 1,2 C 92 % 1022,1 hPa 0,0 l/m 3,4 km/h (1 Bft) SO 138 0 min 0,000 mm 0,0 UV-I 0 W/m 0,0 C 1,2 C 4,8 km/h (1 Bft) 95,83 %
17.03.2016 23:29 1,2 C 92 % 1022,1 hPa 0,0 l/m 3,9 km/h (1 Bft) SO 138 0 min 0,000 mm 0,0 UV-I 0 W/m 0,0 C 1,2 C 4,8 km/h (1 Bft) 92,86 %
17.03.2016 23:30 1,2 C 92 % 1022,0 hPa 0,0 l/m 3,5 km/h (1 Bft) SO 138 0 min 0,000 mm 0,0 UV-I 0 W/m 0,0 C 1,2 C 4,8 km/h (1 Bft) 100,00 %
17.03.2016 23:31 1,2 C 92 % 1022,0 hPa 0,0 l/m 3,1 km/h (1 Bft) SO 138 0 min 0,000 mm 0,0 UV-I 0 W/m 0,0 C 1,2 C 3,2 km/h (1 Bft) 100,00 %
17.03.2016 23:32 1,2 C 93 % 1022,1 hPa 0,0 l/m 3,0 km/h (1 Bft) SO 138 0 min 0,000 mm 0,0 UV-I 0 W/m 0,2 C 1,2 C 3,2 km/h (1 Bft) 100,00 %
17.03.2016 23:33 1,3 C 93 % 1022,1 hPa 0,0 l/m 2,9 km/h (1 Bft) SO 138 0 min 0,000 mm 0,0 UV-I 0 W/m 0,3 C 1,3 C 3,2 km/h (1 Bft) 100,00 %
17.03.2016 23:34 1,3 C 93 % 1022,0 hPa 0,0 l/m 1,5 km/h (1 Bft) SO 138 0 min 0,000 mm 0,0 UV-I 0 W/m 0,3 C 1,3 C 1,6 km/h (1 Bft) 100,00 %
17.03.2016 23:35 1,3 C 93 % 1022,1 hPa 0,0 l/m 1,6 km/h (1 Bft) SO 138 0 min 0,000 mm 0,0 UV-I 0 W/m 0,3 C 1,3 C 1,6 km/h (1 Bft) 91,30 %
17.03.2016 23:36 1,3 C 93 % 1022,1 hPa 0,0 l/m 2,2 km/h (1 Bft) SO 138 0 min 0,000 mm 0,0 UV-I 0 W/m 0,3 C 1,3 C 3,2 km/h (1 Bft) 100,00 %
17.03.2016 23:37 1,3 C 93 % 1022,1 hPa 0,0 l/m 2,6 km/h (1 Bft) SO 138 0 min 0,000 mm 0,0 UV-I 0 W/m 0,3 C 1,3 C 3,2 km/h (1 Bft) 100,00 %
17.03.2016 23:38 1,3 C 92 % 1022,0 hPa 0,0 l/m 3,2 km/h (1 Bft) SO 138 0 min 0,000 mm 0,0 UV-I 0 W/m 0,1 C 1,3 C 3,2 km/h (1 Bft) 100,00 %
17.03.2016 23:39 1,2 C 92 % 1022,0 hPa 0,0 l/m 3,7 km/h (1 Bft) SO 138 0 min 0,000 mm 0,0 UV-I 0 W/m 0,0 C 1,2 C 4,8 km/h (1 Bft) 100,00 %
17.03.2016 23:40 1,2 C 92 % 1022,0 hPa 0,0 l/m 4,1 km/h (1 Bft) SO 138 0 min 0,000 mm 0,0 UV-I 0 W/m 0,0 C 1,2 C 4,8 km/h (1 Bft) 100,00 %
17.03.2016 23:41 1,2 C 92 % 1022,0 hPa 0,0 l/m 3,7 km/h (1 Bft) SO 138 0 min 0,000 mm 0,0 UV-I 0 W/m 0,0 C 1,2 C 4,8 km/h (1 Bft) 100,00 %
17.03.2016 23:42 1,2 C 93 % 1022,0 hPa 0,0 l/m 3,7 km/h (1 Bft) SO 139 0 min 0,000 mm 0,0 UV-I 0 W/m 0,2 C 1,2 C 4,8 km/h (1 Bft) 100,00 %
17.03.2016 23:43 1,2 C 93 % 1022,0 hPa 0,0 l/m 2,0 km/h (1 Bft) SO 139 0 min 0,000 mm 0,0 UV-I 0 W/m 0,2 C 1,2 C 3,2 km/h (1 Bft) 100,00 %
17.03.2016 23:44 1,2 C 94 % 1022,0 hPa 0,0 l/m 1,4 km/h (1 Bft) SO 139 0 min 0,000 mm 0,0 UV-I 0 W/m 0,3 C 1,2 C 1,6 km/h (1 Bft) 96,15 %
17.03.2016 23:45 1,3 C 94 % 1022,0 hPa 0,0 l/m 1,1 km/h (1 Bft) SO 139 0 min 0,000 mm 0,0 UV-I 0 W/m 0,4 C 1,3 C 1,6 km/h (1 Bft) 100,00 %
17.03.2016 23:46 1,4 C 94 % 1022,0 hPa 0,0 l/m 2,5 km/h (1 Bft) SO 139 0 min 0,000 mm 0,0 UV-I 0 W/m 0,5 C 1,4 C 4,8 km/h (1 Bft) 95,65 %
17.03.2016 23:47 1,4 C 94 % 1021,9 hPa 0,0 l/m 1,9 km/h (1 Bft) SO 139 0 min 0,000 mm 0,0 UV-I 0 W/m 0,5 C 1,4 C 3,2 km/h (1 Bft) 100,00 %
17.03.2016 23:48 1,4 C 93 % 1022,0 hPa 0,0 l/m 1,7 km/h (1 Bft) SO 139 0 min 0,000 mm 0,0 UV-I 0 W/m 0,4 C 1,4 C 3,2 km/h (1 Bft) 100,00 %
17.03.2016 23:49 1,4 C 93 % 1021,9 hPa 0,0 l/m 3,6 km/h (1 Bft) SO 139 0 min 0,000 mm 0,0 UV-I 0 W/m 0,4 C 1,4 C 4,8 km/h (1 Bft) 100,00 %
17.03.2016 23:50 1,4 C 93 % 1022,0 hPa 0,0 l/m 5,2 km/h (1 Bft) S-SO 167 0 min 0,000 mm 0,0 UV-I 0 W/m 0,4 C 1,4 C 8,0 km/h (2 Bft) 100,00 %
17.03.2016 23:51 1,4 C 93 % 1022,0 hPa 0,0 l/m 6,3 km/h (2 Bft) S-SO 167 0 min 0,000 mm 0,0 UV-I 0 W/m 0,4 C 1,4 C 8,0 km/h (2 Bft) 100,00 %
17.03.2016 23:52 1,4 C 93 % 1022,0 hPa 0,0 l/m 6,8 km/h (2 Bft) S 169 0 min 0,000 mm 0,0 UV-I 0 W/m 0,4 C 1,0 C 8,0 km/h (2 Bft) 100,00 %
17.03.2016 23:53 1,4 C 93 % 1021,9 hPa 0,0 l/m 7,1 km/h (2 Bft) S 171 0 min 0,000 mm 0,0 UV-I 0 W/m 0,4 C 0,7 C 8,0 km/h (2 Bft) 100,00 %
17.03.2016 23:54 1,4 C 93 % 1022,0 hPa 0,0 l/m 6,4 km/h (2 Bft) S 169 0 min 0,000 mm 0,0 UV-I 0 W/m 0,4 C 1,4 C 8,0 km/h (2 Bft) 100,00 %
17.03.2016 23:55 1,3 C 93 % 1021,9 hPa 0,0 l/m 5,5 km/h (1 Bft) S 170 0 min 0,000 mm 0,0 UV-I 0 W/m 0,3 C 1,3 C 8,0 km/h (2 Bft) 100,00 %
17.03.2016 23:56 1,3 C 93 % 1021,9 hPa 0,0 l/m 6,5 km/h (2 Bft) S 170 0 min 0,000 mm 0,0 UV-I 0 W/m 0,3 C 1,2 C 8,0 km/h (2 Bft) 96,15 %
17.03.2016 23:57 1,2 C 93 % 1021,9 hPa 0,0 l/m 6,4 km/h (2 Bft) S 175 0 min 0,000 mm 0,0 UV-I 0 W/m 0,2 C 1,2 C 8,0 km/h (2 Bft) 100,00 %
17.03.2016 23:58 1,2 C 92 % 1021,9 hPa 0,0 l/m 5,1 km/h (1 Bft) S 180 0 min 0,000 mm 0,0 UV-I 0 W/m 0,0 C 1,2 C 6,4 km/h (2 Bft) 100,00 %
17.03.2016 23:59 1,2 C 93 % 1021,9 hPa 0,0 l/m 5,2 km/h (1 Bft) S 183 0 min 0,000 mm 0,0 UV-I 0 W/m 0,2 C 1,2 C 6,4 km/h (2 Bft) 100,00 %
_ Min-Zeit 06:28 13:50 23:47 - 21:52 - - - - - - 01:08 03:10 21:52 10:12
Minimum _ 0,7 C 58 % 1021,9 hPa - 0,0 km/h (0 Bft) - - - - - - -0,2 C -8,1 C 0,0 km/h (0 Bft) 75,00 %
_ Max-Zeit 14:44 06:43 00:00 00:00 00:39 - - 11:02 13:00 11:43 11:56 11:49 15:53 00:06 00:00
Maximum _ 10,7 C 95 % 1027,2 hPa 0,0 l/m 21,8 km/h
O (4 Bft)
- - 2 min 0,330 mm 2,4 UV-I 656 W/m 4,3 C 9,6 C 29,0 km/h
O-NO (5 Bft)
100,00 %
Durchschnitt _ 4,7 C 81 % 1024,6 hPa #0,0 l/m 10,2 km/h (2 Bft) O-NO - #8:27 h #2,286 mm 1,6 UV-I 355 W/m 1,6 C 1,4 C 13,9 km/h (3 Bft) 98,59 %